     2.10           OBSERVATION DATA    G (GPS)             RINEX VERSION / TYPE
teqc 2003Nov3 GPS Data Processor 20031211 22:27:07UTC       PGM / RUN BY / DATE
Solaris 2.7|Ultra 2|cc SC5.0|=+-|*Sparc                     COMMENT
2 OBSERVATION DATA                                          COMMENT
ASRINEXO V2.2.0 UX USGS 17-OCT-94 16:21                     COMMENT
HI'S ARE VERT TO BASE OF ANTENNA                            COMMENT
bear Bear_Ridge_2_1957_1981_NGS                             MARKER NAME
                                                            MARKER NUMBER
NEK USGS                                                    OBSERVER / AGENCY
765 ASHTECH L-XII 6b                                        REC # / TYPE / VERS
1058 ASH700228D NONE                                        ANT # / TYPE
 -2736969.0000 -4013076.0000  4120634.0000                  APPROX POSITION XYZ
        1.1728        0.0000        0.0000                  ANTENNA: DELTA H/E/N
     1     1                                                WAVELENGTH FACT L1/2
     3    L1    L2    C1                                    # / TYPES OF OBSERV
    30.0000                                                 INTERVAL
                                                            COMMENT
Receiver type modified to reflect codeless receiver         COMMENT
Original receiver designation: ASHTECH LM-XII3              COMMENT
                                                            COMMENT
                                                            COMMENT
  1992     5     8     1    26    0.0000000     GPS         TIME OF FIRST OBS
                                                            END OF HEADER
 92  5  8  1 26  0.0000000  0  4G20G12G13G24
    -94125.356 7    -73344.67625  30581868.820
     44458.344 8     34642.69228  28918745.874
     72983.485 7     56870.46823  30322845.431
    -22630.906 8    -17634.61029  28358032.651
 92  5  8  1 26 30.0000000  0  4G20G12G13G24
    -94256.685 7    -73447.53125  22769023.428
     44816.384 8     34922.11427  21132813.150
     72873.543 7     56784.74323  22542343.459
    -22337.888 8    -17406.69929  20559105.133
 92  5  8  1 27  0.0000000  0  4G20G12G13G24
   -190019.671 7   -148067.97124  22750799.346
     90775.757 8     70734.59227  21141560.508
    146852.738 7    114430.80123  22556424.721
    -44659.532 8    -34800.16029  20554854.662
 92  5  8  1 27 30.0000000  0  4G20G12G13G24
   -285708.531 7   -222630.65423  22732591.754
    137224.131 8    106928.07427  21150397.490
    220829.916 7    172075.31923  22570501.166
    -66548.091 8    -51856.15029  20550692.645
 92  5  8  1 28  0.0000000  0  4G20G12G13G24
   -381218.003 7   -297053.58523  22714416.532
    184263.388 8    143582.01127  21159349.591
    294907.064 7    229797.75923  22584599.214
    -87875.211 8    -68474.66829  20546632.870
 92  5  8  1 28 30.0000000  0  4G20G12G13G24
   -476525.537 7   -371319.13024  22696279.997
    231912.257 8    180710.96027  21168417.405
    369103.293 7    287612.99624  22598716.737
   -108590.058 8    -84616.07029  20542689.696
 92  5  8  1 29  0.0000000  0  4G20G12G13G24
   -571527.327 7   -445346.44724  22678202.199
    280271.584 8    218393.49927  21177620.144
    443519.618 7    345599.68822  22612876.838
   -128567.118 8   -100182.59329  20538890.714
 92  5  8  1 29 30.0000000  0  4G20G12G13G24
   -666319.313 7   -519210.24722  22660165.794
    329241.465 8    256551.81227  21186937.094
    518056.431 7    403680.27524  22627062.714
   -147892.374 8   -115241.20729  20535211.667
 92  5  8  1 30  0.0000000  0  4G20G12G13G24
   -760839.012 7   -592861.91024  22642176.748
    378881.475 8    295232.30328  21196384.154
    592772.669 7    461900.70823  22641277.975
   -166508.182 8   -129747.00729  20531670.826
 92  5  8  1 30 30.0000000  0  4G20G12G13G24
   -855121.203 7   -666328.49424  22624237.768
    429152.621 8    334404.58727  21205949.630
    667630.002 7    520231.08824  22655524.106
   -184470.817 8   -143743.84929  20528253.480
 92  5  8  1 31  0.0000000  0  4G20G12G13G24
   -949186.521 7   -739626.09724  22606335.362
    480030.627 8    374049.74827  21215630.819
    742604.543 7    578652.75922  22669791.526
   -201834.498 8   -157273.96629  20524946.472
 92  5  8  1 31 30.0000000  0  4G20G12G13G24
  -1043029.500 7   -812750.41724  22588478.816
    531517.101 8    414169.03627  21225428.645
    817698.474 7    637167.47724  22684081.143
   -218616.251 8   -170350.63829  20521753.989
 92  5  8  1 32  0.0000000  0  4G20G12G13G24
  -1136643.325 7   -885696.18323  22570661.551
    583615.661 8    454765.26427  21235344.574
    892915.359 7    695778.00323  22698397.424
   -234816.367 8   -182974.08329  20518669.716
 92  5  8  1 32 30.0000000  0  4G20G12G13G24
  -1230046.540 7   -958477.82925  22552890.458
    636303.752 8    495820.88327  21245370.545
    968233.555 7    754467.52424  22712727.211
   -250461.996 8   -195165.46629  20515694.576
 92  5  8  1 33  0.0000000  0  4G20G12G13G24
  -1323245.418 7  -1031100.28926  22535151.143
    689571.190 7    537327.94827  21255506.818
   1043642.930 7    813228.04822  22727078.270
   -265557.948 8   -206928.52329  20512821.066
 92  5  8  1 33 30.0000000  0  4G20G12G13G24
  -1416246.751 7  -1103568.78923  22517454.388
    743407.960 8    579278.63227  21265752.521
   1119133.770 7    872052.00224  22741443.132
   -280091.274 8   -218253.18129  20510054.892
 92  5  8  1 34  0.0000000  0  4G20G12G13G24
  -1509053.938 7  -1175886.02823  22499791.226
    797806.678 8    621667.19128  21276105.264
   1194699.775 7    930934.54122  22755821.466
   -294065.070 8   -229141.83829  20507395.723
 92  5  8  1 34 30.0000000  0  5G20G16G12G13G24
  -1601660.830 7  -1248047.16425  22482173.608
   -212064.675 5   -165245.39621  24731530.826
    852769.293 8    664495.14527  21286564.122
   1270343.249 6    989877.54521  22770216.011
   -307465.126 8   -239583.42429  20504848.096
 92  5  8  1 35  0.0000000  0  5G20G16G12G13G24
  -1694069.986 7  -1320054.23625  22464590.193
   -309974.903 5   -241539.19223  24712897.221
    908289.828 8    707757.86927  21297127.000
   1346058.415 6   1048876.37522  22784624.638
   -320286.309 8   -249573.95029  20502406.584
 92  5  8  1 35 30.0000000  0  5G20G16G12G13G24
  -1786297.204 7  -1391919.54125  22447037.647
   -407930.306 5   -317868.25722  24694257.318
    964348.570 8    751439.97227  21307794.825
   1421826.340 7   1107916.26821  22799045.551
   -332545.395 8   -259126.45929  20500073.298
 92  5  8  1 36  0.0000000  0  5G20G16G12G13G24
  -1878332.608 7  -1463635.38424  22429523.457
   -505911.943 6   -394217.83122  24675607.834
   1020951.084 8    795545.78327  21318567.263
   1497653.247 7   1167002.17921  22813474.856
   -344232.678 8   -268233.42329  20497850.629
 92  5  8  1 36 30.0000000  0  5G20G16G12G13G24
  -1970172.278 7  -1535198.69424  22412045.860
   -603906.576 6   -470577.48921  24656958.036
   1078097.246 8    840075.21326  21329439.237
   1573539.377 7   1226134.26222  22827913.167
   -355338.057 8   -276886.95629  20495737.704
 92  5  8  1 37  0.0000000  0  5G20G16G12G13G24
  -2061807.775 7  -1606602.93224  22394609.026
   -701890.306 5   -546928.63222  24638317.556
   1135791.977 8    885032.09827  21340419.438
   1649490.133 7   1285316.59522  22842367.950
   -365854.662 8   -285081.69229  20493736.583
 92  5  8  1 37 30.0000000  0  5G20G16G12G13G24
  -2153241.363 7  -1677849.82124  22377211.787
   -799853.830 5   -623263.60023  24619674.651
   1194029.145 7    930411.66727  21351501.268
   1725500.470 7   1344545.41922  22856828.753
   -375785.378 8   -292819.90029  20491845.782
 92  5  8  1 38  0.0000000  0  5G20G16G12G13G24
  -2244463.629 7  -1748932.05325  22359852.904
   -897785.072 5   -699573.86323  24601033.264
   1252813.882 7    976217.89727  21362686.823
   1801576.552 7   1403825.47822  22871306.623
   -385128.538 8   -300100.26129  20490068.024
 92  5  8  1 38 30.0000000  0  5G20G16G12G13G24
  -2335466.418 7  -1819843.26723  22342533.580
   -995676.382 5   -775853.03524  24582413.445
   1312150.604 8   1022454.27026  21373981.197
   1877723.382 7   1463160.68323  22885798.593
   -393896.057 8   -306932.07829  20488399.381
 92  5  8  1 39  0.0000000  0  5G20G16G12G13G24
  -2426261.981 7  -1890593.00925  22325255.352
  -1093548.602 5   -852117.32823  24563782.546
   1372022.495 8   1069107.64827  21385373.921
   1953924.808 7   1522538.35923  22900299.252
   -402112.342 8   -313334.37529  20486833.853
 92  5  8  1 39 30.0000000  0  5G20G16G12G13G24
  -2516849.155 7  -1961180.38124  22308017.276
  -1191417.146 4   -928378.73723  24545159.446
   1432426.702 8   1116175.81526  21396867.664
   2030178.590 6   1581956.86122  22914810.714
   -409790.256 8   -319317.14629  20485373.863
 92  5  8  1 40  0.0000000  0  5G20G16G12G13G24
  -2607220.958 7  -2031599.93624  22290821.186
  -1289275.967 4  -1004632.52922  24526535.440
   1493366.089 7   1163660.99827  21408464.223
   2106488.533 6   1641419.18823  22929326.363
   -416922.589 8   -324874.80729  20484017.614
 92  5  8  1 40 30.0000000  0  5G20G16G12G13G24
  -2697373.499 7  -2101848.62925  22273666.453
  -1387130.334 4  -1080882.43722  24507909.932
   1554840.751 7   1211563.26926  21420159.429
   2182855.978 7   1700926.24422  22943865.990
   -423498.572 8   -329998.92529  20482767.777
 92  5  8  1 41  0.0000000  0  5G20G16G12G13G24
  -2787302.874 7  -2171923.42824  22256551.018
  -1484979.074 3  -1157128.41423  24489294.023
   1616849.987 8   1259882.10526  21431961.657
   2259280.942 7   1760478.12023  22958402.928
   -429505.062 8   -334679.29529  20481623.759
 92  5  8  1 41 30.0000000  0  5G20G16G12G13G24
  -2877012.592 7  -2241827.05924  22239480.534
  -1582809.496 4  -1233360.10222  24470677.206
   1679386.181 8   1308611.57526  21443861.624
   2335756.967 7   1820069.77822  22972958.748
   -434941.303 8   -338915.32229  20480587.687
 92  5  8  1 42  0.0000000  0  5G20G16G12G13G24
  -2966498.623 7  -2311556.38825  22222452.612
  -1680601.017 4  -1309561.51922  24452070.579
   1742449.061 7   1357751.43326  21455864.407
   2412284.412 7   1879701.59322  22987522.962
   -439809.346 8   -342708.58629  20479659.824
 92  5  8  1 42 30.0000000  0  5G20G16G12G13G24
  -3055754.444 7  -2381106.33524  22205466.674
  -1778338.146 4  -1385720.48623  24433468.455
   1806041.245 7   1407303.72326  21467962.835
   2488866.828 6   1939376.19622  23002094.086
   -444122.177 8   -346069.22829  20478841.095
 92  5  8  1 43  0.0000000  0  5G20G16G12G13G24
  -3144776.497 7  -2450474.10024  22188526.300
  -1876008.649 3  -1461827.54423  24414885.230
   1870161.527 7   1457267.53126  21480167.098
   2565504.400 6   1999093.75322  23016682.590
   -447894.210 8   -349008.46229  20478123.699
 92  5  8  1 43 30.0000000  0  4G20G12G13G24
  -3233560.206 7  -2519656.14725  22171632.098
   1934810.440 8   1507643.25526  21492469.065
   2642198.378 6   2058855.26922  23031269.890
   -451136.676 8   -351535.04929  20477504.914
 92  5  8  1 44  0.0000000  0  4G20G12G13G24
  -3322105.518 7  -2588652.40924  22154781.069
   1999983.674 7   1558427.54726  21504869.696
   2718945.979 6   2118658.64022  23045880.277
   -453852.142 8   -353650.99129  20476991.371
 92  5  8  1 44 30.0000000  0  5G20G16G12G13G24
  -3410406.275 7  -2657458.12426  22137978.289
    -16247.07514    -12662.73721  24359201.777
   2065683.326 7   1609622.02426  21517372.236
   2795750.028 6   2178505.91023  23060490.646
   -456020.472 8   -355340.58229  20476576.161
 92  5  8  1 45  0.0000000  0  5G20G16G12G13G24
  -3498467.465 8  -2726077.17126  22121221.997
   -113717.507 4    -88613.91721  24340642.825
   2131899.825 7   1661219.23126  21529973.702
   2872602.310 6   2238390.77523  23075112.428
   -457638.395 8   -356601.29229  20476268.880
 92  5  8  1 45 30.0000000  0  6G20G16G12G13G24G 3
  -3586286.220 8  -2794507.28626  22104510.970
   -211148.616 5   -164534.02621  24322106.959
   2198631.227 7   1713217.66426  21542670.218
   2949502.382 6   2298312.92622  23089750.107
   -458685.475 8   -357417.18729  20476067.121
   -245867.537 5   -191584.93022  25022536.066
 92  5  8  1 46  0.0000000  0  6G20G16G12G13G24G 3
  -3673861.738 8  -2862747.85725  22087844.895
   -308534.867 5   -240419.62123  24303579.190
   2265874.534 7   1765615.00327  21555468.068
   3026447.562 6   2358270.23822  23104394.068
   -459139.861 8   -357771.23129  20475986.169
   -334474.940 5   -260629.57322  25005673.328
 92  5  8  1 46 30.0000000  0  6G20G16G12G13G24G 3
  -3761186.429 8  -2930792.99127  22071228.013
   -405864.987 5   -316261.5192   24285056.203
   2333632.626 7   1818413.46326  21568363.640
   3103442.865 6   2418266.54322  23119048.219
   -459007.400 8   -357668.01529  20476008.959
   -422938.207 5   -329561.81922  24988840.882
 92  5  8  1 47  0.0000000  0  6G20G16G12G13G24G 3
  -3848260.139 8  -2998642.55626  22054656.972
   -503132.008 6   -392054.22722  24266541.330
   2401901.065 7   1871609.60326  21581354.245
   3180484.537 6   2478298.99822  23133701.778
   -458301.113 8   -357117.66929  20476142.069
   -511259.476 5   -398383.46621  24972034.525
 92  5  8  1 47 30.0000000  0  6G20G16G12G13G24G 3
  -3935089.096 8  -3066301.42125  22038134.512
   -600346.615 6   -467806.03323  24248043.820
   2470669.205 7   1925195.09427  21594439.273
   3257562.953 6   2538360.16522  23148370.309
   -457020.350 8   -356119.65629  20476387.891
   -599446.692 5   -467100.64822  24955253.646
 92  5  8  1 48  0.0000000  0  6G20G16G12G13G24G 3
  -4021664.123 8  -3133762.39026  22021660.617
   -697508.860 6   -543517.09522  24229554.128
   2539941.753 7   1979173.65027  21607620.260
   3334684.757 6   2598455.03621  23163050.846
   -455176.307 8   -354682.72529  20476741.345
   -687492.585 5   -535707.63022  24938501.227
 92  5  8  1 48 30.0000000  0  6G20G16G12G13G24G 3
  -4107985.794 8  -3201025.97325  22005232.895
   -794611.205 6   -619181.51123  24211075.813
   2609713.424 7   2033541.13227  21620897.468
   3411845.705 6   2658580.39723  23177733.494
   -452791.062 8   -352824.07929  20477191.927
   -775400.008 5   -604206.90422  24921772.210
 92  5  8  1 49  0.0000000  0  6G20G16G12G13G24G 3
  -4194058.594 8  -3268095.61625  21988856.738
   -891648.277 6   -694795.01821  24192608.300
   2679975.481 7   2088290.73426  21634270.006
   3489038.839 6   2718730.85721  23192424.221
   -449866.620 8   -350545.27729  20477746.250
   -863175.359 5   -672603.50621  24905068.076
 92  5  8  1 49 30.0000000  0  6G20G16G12G13G24G 3
  -4279871.143 8  -3334962.48223  21972526.143
   -988600.964 6   -770342.40621  24174157.277
   2750734.705 7   2143427.74025  21647732.779
   3566272.442 6   2778912.95422  23207120.044
   -446397.982 8   -347842.43229  20478407.596
   -950809.125 5   -740889.43122  24888385.528
 92  5  8  1 50  0.0000000  0  6G20G16G12G13G24G 3
  -4365418.140 8  -3401622.41026  21956246.504
  -1085454.082 6   -845812.51222  24155731.732
   2821991.549 7   2198952.48926  21661292.104
   3643547.658 6   2839127.35023  23221826.058
   -442394.848 8   -344723.10629  20479168.775
  -1038297.986 5   -809062.32622  24871735.647
 92  5  8  1 50 30.0000000  0  6G20G16G12G13G24G 3
  -4450705.486 8  -3468080.02726  21940012.741
  -1182219.590 6   -921213.97422  24137317.878
   2893735.877 7   2254857.09927  21674947.947
   3720856.257 6   2899367.77222  23236538.686
   -437864.053 8   -341192.59129  20480031.566
  -1125649.967 5   -877128.75521  24855116.356
 92  5  8  1 51  0.0000000  0  6G20G16G12G13G24G 3
  -4535729.411 8  -3534332.39126  21923838.640
  -1278900.712 6   -996549.74422  24118924.110
   2965966.147 7   2311140.36125  21688692.838
   3798198.347 6   2959634.30622  23251259.096
   -432797.511 8   -337244.63629  20480998.395
  -1212863.549 5   -945087.31922  24838528.249
 92  5  8  1 51 30.0000000  0  6G20G16G12G13G24G 3
  -4620487.235 8  -3600377.41226  21907708.601
  -1375494.404 6  -1071817.69023  24100532.156
   3038681.182 7   2367801.36226  21702528.260
   3875573.345 6   3019926.54122  23265976.802
   -427192.277 8   -332876.91029  20482062.370
  -1299937.774 5  -1012937.13423  24821951.520
 92  5  8  1 52  0.0000000  0  6G20G16G12G13G24G 3
  -4704980.611 8  -3666216.36225  21891628.644
  -1472013.808 6  -1147027.43022  24082169.868
   3111874.581 7   2424835.11126  21716457.216
   3952976.710 6   3080240.80522  23280707.106
   -421050.172 8   -328090.83829  20483230.051
  -1386876.542 4  -1080681.55123  24805402.972
 92  5  8  1 52 30.0000000  0  6G20G16G12G13G24G 3
  -4789202.328 8  -3731843.61125  21875601.439
  -1568450.537 6  -1222173.12321  24063819.865
   3185548.383 7   2482243.20926  21730475.796
   4030412.948 6   3140580.62822  23295446.991
   -414369.394 8   -322885.02329  20484505.680
  -1473674.711 3  -1148316.37222  24788882.921
 92  5  8  1 53  0.0000000  0  5G20G16G12G13G24
  -4873146.366 8  -3797254.50226  21859628.487
  -1664781.192 6  -1297236.17821  24045488.149
   3259703.868 7   2540026.66626  21744589.742
   4107884.398 6   3200947.92422  23310187.190
   -407146.345 8   -317256.66929  20485875.731
 92  5  8  1 53 30.0000000  0  5G20G16G12G13G24
  -4956813.030 8  -3862449.26226  21843708.322
  -1761010.618 6  -1372220.02922  24027171.441
   3334336.365 7   2598181.79826  21758791.793
   4185387.832 6   3261340.22221  23324929.186
   -399387.368 8   -311210.70029  20487353.991
 92  5  8  1 54  0.0000000  0  5G20G16G12G13G24
  -5040202.008 8  -3927427.64226  21827840.909
  -1857148.747 6  -1447132.99322  24008879.896
   3409441.278 7   2656705.01826  21773082.614
   4262920.043 6   3321754.93121  23339683.782
   -391093.647 8   -304748.05429  20488929.414
 92  5  8  1 54 30.0000000  0  5G20G16G12G13G24
  -5123306.775 8  -3992184.55526  21812023.543
  -1953176.006 6  -1521959.26821  23990609.343
   3485020.356 7   2715597.72827  21787464.246
   4340484.511 6   3382194.72723  23354447.050
   -382257.745 8   -297862.91429  20490616.344
 92  5  8  1 55  0.0000000  0  5G20G16G12G13G24
  -5206123.894 8  -4056717.33225  21796263.169
  -2049080.472 6  -1596690.23623  23972357.375
   3561071.978 7   2774858.66026  21801937.631
   4418081.770 6   3442660.01123  23369211.836
   -372872.388 8   -290549.64829  20492401.903
 92  5  8  1 55 30.0000000  0  5G20G16G12G13G24
  -5288655.217 8  -4121027.40726  21780559.439
  -2144864.658 6  -1671327.01922  23954127.307
   3637589.681 7   2834482.78026  21816497.656
   4495706.598 6   3503146.82223  23383984.405
   -362941.736 8   -282811.43929  20494291.500
 92  5  8  1 56  0.0000000  0  5G20G16G12G13G24
  -5370896.637 8  -4185111.59026  21764907.868
  -2240513.396 5  -1745858.29923  23935932.297
   3714572.831 7   2894469.59525  21831148.807
   4573360.343 6   3563656.26422  23398762.366
   -352467.984 8   -274650.07729  20496280.022
 92  5  8  1 56 30.0000000  0  6G20G16G12G13G24G 3
  -5452850.108 8  -4248971.39026  21749314.458
  -2336013.687 5  -1820274.34522  23917755.888
   3792014.655 7   2954813.80826  21845886.004
   4651038.048 6   3624184.30625  23413538.844
   -341464.630 8   -266076.02829  20498375.270
    -65656.08615    -51158.54521  24657734.501
 92  5  8  1 57  0.0000000  0  6G20G16G12G13G24G 3
  -5534516.498 8  -4312607.48826  21733772.927
  -2431365.782 5  -1894574.47723  23899607.051
   3869909.273 7   3015510.83625  21860709.249
   4728735.429 6   3684727.70522  23428322.512
   -329933.634 8   -257090.82429  20500569.443
   -151174.188 5   -117795.85922  24641460.270
 92  5  8  1 57 30.0000000  0  6G20G16G12G13G24G 3
  -5615888.060 8  -4376013.83826  21718288.337
  -2526585.576 4  -1968771.93824  23881485.192
   3948259.771 7   3076563.10826  21875620.024
   4806456.970 6   3745289.81722  23443117.574
   -317868.630 9   -247689.50729  20502866.153
   -236549.955 5   -184322.25223  24625209.720
 92  5  8  1 58  0.0000000  0  6G20G16G12G13G24G 3
  -5696963.342 8  -4439189.32726  21702861.629
  -2621685.299 4  -2042875.40524  23863393.609
   4027062.356 7   3137967.63826  21890614.141
   4884201.091 6   3805869.50623  23457917.418
   -305268.318 8   -237871.06429  20505263.900
   -321784.113 5   -250738.34623  24608992.448
 92  5  8  1 58 30.0000000  0  6G20G16G12G13G24G 3
  -5777737.702 8  -4502130.32826  21687489.471
  -2716664.843 4  -2116885.20123  23845316.736
   4106317.036 7   3199724.45326  21905693.101
   4961969.582 6   3866468.54921  23472707.682
   -292121.655 9   -227626.89429  20507764.778
   -406873.904 5   -317041.95321  24592797.965
 92  5  8  1 59  0.0000000  0  6G20G16G12G13G24G 3
  -5858217.064 8  -4564841.46826  21672176.067
  -2811549.379 4  -2190820.99123  23827259.635
   4186012.978 7   3261825.13225  21920858.404
   5039753.965 6   3927079.63323  23487509.637
   -278430.003 8   -216958.06029  20510373.272
   -491827.713 5   -383239.56522  24576628.052
 92  5  8  1 59 30.0000000  0  6G20G16G12G13G24G 3
  -5938398.615 8  -4627320.53926  21656917.230
  -2906349.883 4  -2264691.80824  23809218.117
   4266147.871 7   3324267.85924  21936108.848
   5117553.505 6   3987702.55421  23502319.078
   -264204.328 8   -205873.10529  20513077.096
   -576644.750 5   -449330.70122  24560491.121
 92  5  8  2  0  0.0000000  0  6G20G16G12G13G24G 3
  -6018284.483 8  -4689569.20427  21641712.646
  -3001039.817 5  -2338475.95022  23791200.889
   4346714.836 7   3387047.24625  21951440.836
   5195362.716 6   4048332.99821  23517127.926
   -249458.342 9   -194382.70329  20515885.551
   -661329.201 5   -515318.43721  24544383.575
 92  5  8  2  0 30.0000000  0  6G20G16G12G13G24G 3
  -6097862.766 8  -4751578.21526  21626572.244
  -3095595.179 5  -2412155.27225  23773215.752
   4427720.486 7   3450168.45825  21966853.758
   5273190.486 6   4108977.92821  23531934.087
   -234186.331 8   -182482.43129  20518789.634
   -745871.895 5   -581195.65622  24528292.816
 92  5  8  2  1  0.0000000  0  6G20G16G12G13G24G 3
  -6177133.243 8  -4813347.36527  21611486.688
  -3190018.268 5  -2485731.50023  23755237.491
   4509160.283 7   3513627.96625  21982350.930
   5351034.464 6   4169635.76721  23546755.220
   -218400.462 8   -170181.73129  20521795.050
   -830274.592 5   -646963.97022  24512232.037
 92  5  8  2  1 29.9990000  0  6G20G16G12G13G24G 3
  -6256083.824 8  -4874867.24127  21596464.385
  -3284276.500 5  -2559179.26225  23737302.416
   4591035.510 7   3577426.76826  21997934.442
   5428897.839 5   4230308.35022  23561570.068
   -202110.020 8   -157487.86629  20524894.903
   -914527.273 4   -712615.5732   24496190.747
 92  5  8  2  1 59.9990000  0  6G20G16G12G13G24G 3
  -6334728.263 8  -4936148.55326  21581497.543
  -3378370.127 5  -2632498.75024  23719397.899
   4673338.751 7   3641559.07925  22013596.798
   5506775.024 5   4290991.77922  23576377.712
   -185324.074 8   -144407.87429  20528090.090
   -998646.248 4   -778162.84021  24480192.614
 92  5  8  2  2 29.9990000  0  6G20G16G12G13G24G 3
  -6413060.064 8  -4997186.27027  21566591.253
  -3472314.939 5  -2705702.29424  23701524.269
   4756065.689 7   3706021.56025  22029338.011
   5584663.712 6   4351684.17922  23591208.146
   -168048.050 8   -130946.03229  20531376.124
  -1082627.106 4   -843602.55121  24464200.188
 92  5  8  2  2 59.9990000  0  6G20G16G12G13G24G 3
  -6491070.480 8  -5057973.55527  21551745.532
  -3566104.660 6  -2778784.99323  23683670.742
   4839220.036 7   3770817.07625  22045162.253
   5662569.836 6   4412390.18522  23606037.079
   -150280.858 8   -117101.44329  20534756.283
  -1166463.374 5   -908929.53922  24448251.823
 92  5  8  2  3 29.9990000  0  6G20G16G12G13G24G 3
  -6568760.139 8  -5118510.89627  21536963.976
  -3659737.441 6  -2851745.41924  23665857.664
   4922796.393 7   3835941.42525  22061066.835
   5740489.928 6   4473107.05222  23620851.930
   -132024.433 8   -102875.64829  20538231.773
  -1250157.853 4   -974145.83722  24432326.859
 92  5  8  2  3 59.9990000  0  6G20G16G12G13G24G 3
  -6646126.118 8  -5178796.00526  21522241.158
  -3753217.988 6  -2924587.22122  23648064.690
   5006792.495 7   3901392.88024  22077052.072
   5818423.677 6   4533834.59021  23635684.161
   -113258.835 8    -88253.09429  20541802.000
  -1333709.718 4  -1039251.02422  24416433.654
 92  5  8  2  4 29.9990000  0  6G20G16G12G13G24G 3
  -6723166.012 8  -5238827.03126  21507578.316
  -3846540.257 6  -2997305.68625  23630308.273
   5091205.456 7   3967169.13025  22093111.961
   5896370.454 6   4594572.28821  23650522.989
    -93977.868 9    -73228.95029  20545472.357
  -1417118.833 4  -1104245.00122  24400551.845
 92  5  8  2  4 59.9990000  0  6G20G16G12G13G24G 3
  -6799877.988 8  -5298602.54927  21492980.825
  -3939695.201 6  -3069893.78824  23612587.245
   5176032.592 7   4033268.12825  22109257.286
   5974329.976 6   4655319.91221  23665355.220
    -74168.060 9    -57792.72929  20549240.156
  -1500385.599 4  -1169127.99623  24384709.019
 92  5  8  2  5 29.9990000  0  6G20G16G12G13G24G 3
  -6876268.068 8  -5358127.22627  21478445.980
  -4032685.258 6  -3142353.36523  23594885.099
   5261262.234 7   4099680.75925  22125476.653
   6052292.426 6   4716069.75722  23680195.845
    -53835.071 9    -41948.82529  20553109.881
  -1583518.383 5  -1233906.61622  24368888.966
 92  5  8  2  5 59.9990000  0  6G20G16G12G13G24G 3
  -6952330.053 8  -5417396.25627  21463972.595
  -4125493.354 6  -3214671.21023  23577224.623
   5346895.312 7   4166407.76426  22141770.078
   6130261.029 5   4776824.44922  23695025.983
    -32967.156 9    -25688.11129  20557081.237
  -1666513.586 5  -1298578.45022  24353099.502
 92  5  8  2  6 29.9990000  0  6G20G16G12G13G24G 3
  -7028060.906 8  -5476407.24626  21449561.280
  -4218122.076 6  -3286849.21524  23559595.035
   5432930.141 7   4233447.81925  22158142.344
   6208235.844 6   4837583.94223  23709864.496
    -11571.509 9     -9016.17029  20561152.407
  -1749370.309 5  -1363142.01323  24337329.810
 92  5  8  2  6 59.9990000  0  6G20G16G12G13G24G 3
  -7103458.125 8  -5535158.27327  21435212.315
  -4310569.771 6  -3358886.20425  23542004.412
   5519363.626 7   4300798.49725  22174592.245
   6286216.464 6   4898348.03021  23724700.340
     10341.524 8      8058.93029  20565321.020
  -1832088.400 5  -1427597.43724  24321594.914
 92  5  8  2  7 29.9990000  0  6G20G16G12G13G24G 3
  -7178517.006 8  -5593645.65827  21420929.591
  -4402818.755 6  -3430768.31422  23524447.068
   5606195.783 7   4368459.84225  22191109.906
   6364204.531 5   4959118.02621  23739537.963
     32762.871 9     25530.11929  20569591.559
  -1914664.936 5  -1491942.60824  24305873.490
 92  5  8  2  7 59.9990000  0  6G20G16G12G13G24G 3
  -7253235.474 8  -5651867.79327  21406711.049
  -4494869.476 6  -3502495.99324  23506929.894
   5693423.467 7   4436429.37926  22207710.316
   6442199.336 6   5019893.09822  23754382.776
     55687.588 9     43393.53629  20573952.351
  -1997100.398 5  -1556177.78724  24290185.953
 92  5  8  2  8 29.9990000  0  6G20G16G12G13G24G 3
  -7327613.884 8  -5709824.95027  21392556.043
  -4586732.743 6  -3574077.53523  23489450.499
   5781040.775 7   4504702.53625  22224386.581
   6520198.019 6   5080671.17022  23769236.297
     79089.387 9     61628.71129  20578405.472
  -2079397.523 5  -1620305.23722  24274531.694
 92  5  8  2  8 59.9990000  0  6G20G16G12G13G24G 3
  -7401653.972 8  -5767518.46527  21378468.500
  -4678396.119 6  -3645503.36325  23472010.071
   5869041.095 7   4573274.11625  22241128.495
   6598195.984 6   5141448.74422  23784079.626
    102955.525 9     80225.69529  20582947.921
  -2161560.417 5  -1684328.07722  24258893.315
 92  5  8  2  9 29.9990000  0  6G20G16G12G13G24G 3
  -7475349.045 8  -5824943.15926  21364446.901
  -4769861.339 6  -3716774.76424  23454605.014
   5957425.870 7   4642145.30125  22257949.545
   6676196.352 6   5202228.18722  23798911.858
    127288.663 9     99186.57229  20587577.918
  -2243584.581 5  -1748242.83022  24243278.634
 92  5  8  2  9 59.9990000  0  6G20G16G12G13G24G 3
  -7548697.860 8  -5882098.03727  21350484.668
  -4861143.025 7  -3787903.20125  23437229.344
   6046191.236 7   4711313.05726  22274843.153
   6754197.826 6   5263008.58921  23813760.283
    152096.047 9    118516.99529  20592299.057
  -2325470.953 5  -1812050.15722  24227698.713
 92  5  8  2 10 29.9990000  0  6G20G16G12G13G24G 3
  -7621692.248 8  -5938976.74526  21336596.790
  -4952230.651 6  -3858880.41723  23419898.939
   6135340.058 7   4780779.56925  22291806.004
   6832205.314 6   5323793.65622  23828607.801
    177383.965 9    138221.86329  20597110.413
  -2407213.876 6  -1875745.73622  24212147.881
 92  5  8  2 10 59.9990000  0  6G20G16G12G13G24G 3
  -7694331.949 8  -5995579.07827  21322771.855
  -5043126.711 6  -3929708.36125  23402604.221
   6224867.138 7   4850540.85525  22308839.911
   6910216.623 6   5384581.62023  23843454.114
    203164.633 9    158310.69129  20602016.524
  -2488815.392 6  -1939331.13722  24196617.135
 92  5  8  2 11 29.9990000  0  6G20G16G12G13G24G 3
  -7766619.511 8  -6051907.01926  21309017.977
  -5133845.084 6  -4000397.87424  23385341.872
   6314764.784 7   4920590.86825  22325948.175
   6988226.237 6   5445368.18321  23858293.553
    229436.388 8    178782.19629  20607016.151
  -2570280.154 5  -2002810.02722  24181114.257
 92  5  8  2 11 59.9990000  0  6G20G16G12G13G24G 3
  -7838547.429 8  -6107954.72227  21295330.044
  -5224359.003 6  -4070928.04924  23368115.191
   6405035.555 6   4990931.62626  22343126.570
   7066238.464 5   5506157.12622  23873136.272
    256211.363 9    199645.80529  20612111.441
  -2651603.217 5  -2066178.41723  24165640.172
 92  5  8  2 12 29.9990000  0  6G20G16G12G13G24G 3
  -7910112.927 8  -6163720.02627  21281711.073
  -5314644.154 6  -4141279.98325  23350930.479
   6495676.780 6   5061561.05425  22360374.243
   7144253.979 6   5566948.39322  23887985.587
    283482.999 8    220896.41929  20617299.635
  -2732784.071 5  -2129436.11822  24150194.862
 92  5  8  2 12 59.9990000  0  6G20G16G12G13G24G 3
  -7981321.035 9  -6219206.83827  21268161.660
  -5404701.722 6  -4211454.59524  23333794.051
   6586677.992 6   5132470.97125  22377692.642
   7222264.354 6   5627735.60121  23902834.919
    311239.468 9    242524.82629  20622583.177
  -2813829.917 5  -2192588.58821  24134765.449
 92  5  8  2 13 29.9990000  0  6G20G16G12G13G24G 3
  -8052164.171 9  -6274409.27128  21254679.098
  -5494516.070 6  -4281439.66424  23316707.984
   6678041.528 6   5203663.22525  22395079.114
   7300274.449 5   5688522.86822  23917676.731
    339481.315 9    264531.43929  20627956.657
  -2894735.918 4  -2255632.00821  24119362.107
 92  5  8  2 13 59.9990000  0  6G20G16G12G13G24G 3
  -8122646.610 9  -6329330.64627  21241266.076
  -5584095.524 7  -4351241.73724  23299660.273
   6769757.886 6   5275130.40424  22412530.327
   7378276.786 5   5749303.77621  23932515.559
    368201.389 9    286910.71629  20633421.577
  -2975508.631 4  -2318571.66421  24103995.044
 92  5  8  2 14 29.9990000  0  6G20G16G12G13G24G 3
  -8192761.830 9  -6383965.86826  21227926.204
  -5673453.433 6  -4420871.16424  23282654.547
   6861828.500 6   5346873.63824  22430052.300
   7456275.812 5   5810082.16922  23947360.686
    397393.460 9    309657.76329  20638975.527
  -3056143.519 4  -2381404.28022  24088653.772
 92  5  8  2 14 59.9990000  0  6G20G16G12G13G24G 3
  -8262508.397 9  -6438313.83026  21214652.609
  -5762607.700 6  -4490341.86824  23265691.993
   6954249.286 7   5418889.71625  22447637.530
   7534269.654 5   5870856.50422  23962204.312
    427051.120 9    332767.62029  20644620.934
  -3136641.627 4  -2444130.02521  24073336.477
 92  5  8  2 15 29.9990000  0  6G20G16G12G13G24G 3
  -8331885.294 9  -6492373.73927  21201451.240
  -5851563.844 7  -4559658.24824  23248762.717
   7047016.054 7   5491175.41025  22465293.206
   7612256.509 5   5931625.38422  23977041.935
    457187.750 9    356250.70529  20650354.762
  -3217004.208 4  -2506749.94722  24058042.862
 92  5  8  2 15 59.9990000  0  6G20G16G12G13G24G 3
  -8400891.518 9  -6546144.81527  21188318.834
  -5940310.874 7  -4628811.67724  23231878.707
   7140124.508 7   5563727.34425  22483008.842
   7690235.211 5   5992387.97522  23991888.563
    487803.956 9    380107.48229  20656181.215
  -3297232.859 4  -2569265.71122  24042783.135
 92  5  8  2 16 29.9990000  0  6G20G16G12G13G24G 3
  -8469519.572 9  -6599621.21327  21175259.580
  -6028822.706 7  -4697781.77722  23215032.476
   7233576.806 7   5636547.20825  22500796.128
   7768210.190 5   6053147.87921  24006730.986
    518893.613 9    404333.17129  20662095.233
  -3377322.140 4  -2631672.73822  24027537.788
 92  5  8  2 16 59.9990000  0  6G20G16G12G13G24G 3
  -8537770.139 9  -6652803.46427  21162271.959
  -6117092.911 7  -4766563.66423  23198238.700
   7327366.987 7   5709630.35225  22518641.576
   7846177.809 5   6113901.73222  24021554.230
    550465.004 9    428934.25329  20668102.174
  -3457275.025 5  -2693973.60821  24012327.811
 92  5  8  2 17 29.9990000  0  6G20G16G12G13G24G 3
  -8605649.408 8  -6705696.39427  21149354.208
  -6205122.405 7  -4835157.95823  23181484.188
   7421483.329 7   5782967.64924  22536552.375
   7924128.771 5   6174642.60821  24036384.350
    582513.012 9    453906.72129  20674203.852
  -3537100.551 4  -2756175.19523  23997129.527
 92  5  8  2 17 59.9990000  0  6G20G16G12G13G24G 3
  -8673144.680 8  -6758290.09927  21136509.906
  -6292895.362 7  -4903552.32523  23164780.054
   7515933.554 7   5856565.10124  22554526.134
   8002073.876 5   6235378.86221  24051219.583
    615022.088 9    479238.45629  20680390.967
  -3616787.787 3  -2818269.00322  23981970.226
 92  5  8  2 18 29.9990000  0  5G20G16G12G13G24
  -8740249.025 8  -6810579.19526  21123742.035
  -6380424.418 7  -4971756.68623  23148122.390
   7610719.555 7   5930424.20924  22572565.837
   8080016.791 5   6296113.43122  24066062.319
    648001.350 9    504936.57229  20686665.611
 92  5  8  2 18 59.9990000  0  5G20G16G12G13G24
  -8806971.601 8  -6862570.79327  21111044.925
  -6467731.455 7  -5039788.01524  23131508.788
   7705826.390 7   6004533.31724  22590660.718
   8157945.845 5   6356837.28323  24080881.952
    681452.887 9    531002.69729  20693030.508
 92  5  8  2 19 29.9990000  0  5G20G16G12G13G24
  -8873306.815 8  -6914260.56328  21098421.560
  -6554805.574 6  -5107637.82524  23114941.953
   7801254.225 6   6078892.56024  22608820.933
   8235863.986 6   6417552.54322  24095720.779
    715361.512 9    557424.99229  20699483.843
 92  5  8  2 19 59.9990000  0  5G20G16G12G13G24
  -8939247.527 8  -6965642.91727  21085874.050
  -6641625.772 6  -5175289.81724  23098418.290
   7897005.370 6   6153503.71324  22627040.531
   8313775.795 6   6478262.91021  24110540.115
    749730.214 9    584205.78029  20706024.115
 92  5  8  2 20 29.9990000  0  5G20G16G12G13G24
  -9004793.837 9  -7016717.93727  21073401.490
  -6728191.280 7  -5242743.33221  23081946.802
   7993073.788 6   6228362.08824  22645323.962
   8391677.916 6   6538965.71322  24125370.549
    784564.924 9    611349.70829  20712651.027
 92  5  8  2 20 59.9990000  0  5G20G16G12G13G24
  -9069940.420 9  -7067481.49028  21061002.063
  -6814486.895 6  -5309986.54024  23065526.566
   8089459.618 6   6303467.78424  22663664.071
   8469573.184 6   6599663.25822  24140180.601
    819844.693 9    638840.43129  20719366.988
 92  5  8  2 21 29.9990000  0  6G20G16G12G13G24G 3
  -9134686.634 8  -7117933.06128  21048681.197
  -6900496.889 6  -5377007.20823  23049157.005
   8186158.132 6   6378817.14724  22682068.624
   8547459.568 6   6660353.76621  24155007.143
    855551.762 9    666664.11329  20726161.771
    -13112.18314    -10209.65222  23876552.099
 92  5  8  2 21 59.9990000  0  6G20G16G12G13G24G 3
  -9199029.540 8  -7168070.36328  21036438.578
  -6986220.708 6  -5443804.88523  23032843.495
   8283167.250 6   6454408.52825  22700524.148
   8625337.653 6   6721038.04721  24169826.479
    891688.802 9    694822.84229  20733039.617
    -91697.903 4    -71445.43422  23861597.856
 92  5  8  2 22 29.9990000  0  6G20G16G12G13G24G 3
  -9262971.847 8  -7217895.51428  21024271.798
  -7071675.203 6  -5510392.67524  23016587.849
   8380478.442 6   6530235.29124  22719045.338
   8703201.942 6   6781711.59621  24184642.220
    928244.943 9    723308.14129  20739995.693
   -170150.178 5   -132576.99821  23846669.998
 92  5  8  2 22 59.9990000  0  6G20G16G12G13G24G 3
  -9326509.496 8  -7267405.33327  21012179.669
  -7156843.595 6  -5576757.54825  23000374.171
   8478090.749 6   6606296.67524  22737618.373
   8781053.538 6   6842375.09122  24199456.164
    965221.038 9    752120.67629  20747030.033
   -248466.936 5   -193602.82322  23831767.913
 92  5  8  2 23 29.9990000  0  7G20G25G16G12G13G24G 3
  -9389648.272 8  -7316604.34628  21000165.491
   -838735.562 6   -653559.75722  24537429.293
  -7241733.472 6  -5642905.39223  22984223.751
   8575992.747 6   6682583.79924  22756248.086
   8858884.196 6   6903022.27622  24214277.000
   1002630.093 9    781270.58029  20754146.197
   -326656.593 5   -254529.74423  23816885.320
 92  5  8  2 23 59.9990000  0  7G20G25G16G12G13G24G 3
  -9452380.860 9  -7365486.84328  20988227.448
   -907068.823 6   -706806.42622  24524428.183
  -7326351.892 6  -5708841.70523  22968118.596
   8674186.913 6   6759098.60423  22774934.442
   8936699.090 5   6963657.29121  24229075.657
   1040486.638 9    810769.17929  20761351.723
   -404713.645 5   -315353.36722  23802031.503
 92  5  8  2 24 29.9990000  0  7G20G25G16G12G13G24G 3
  -9514706.787 9  -7414052.45728  20976366.762
   -974898.683 6   -759660.82122  24511523.625
  -7410696.671 6  -5774564.83623  22952066.210
   8772668.276 6   6835837.14623  22793678.960
   9014495.887 5   7024278.20921  24243867.421
   1078796.273 9    840620.83329  20768640.871
   -482640.280 5   -376075.22321  23787205.868
 92  5  8  2 24 59.9990000  0  7G20G25G16G12G13G24G 3
  -9576621.975 9  -7462298.03728  20964584.026
  -1042237.493 6   -812132.52421  24498709.302
  -7494760.131 6  -5840068.72321  22936066.891
   8871435.264 6   6912798.29123  22812469.948
   9092275.962 5   7084885.9532   24258686.757
   1117566.373 9    870831.28829  20776020.865
   -560434.499 5   -436694.07221  23772398.206
 92  5  8  2 25 29.9990000  0  7G20G25G16G12G13G24G 3
  -9638121.637 9  -7510219.82028  20952882.521
  -1109087.829 6   -864223.65623  24485989.995
  -7578549.076 6  -5905358.67623  22920124.826
   8970487.472 6   6989981.68423  22831317.614
   9170041.463 5   7145482.37822  24273481.226
   1156793.153 9    901397.61429  20783485.998
   -638094.002 5   -497207.95621  23757621.449
 92  5  8  2 25 59.9990000  0  7G20G25G16G12G13G24G 3
  -9699205.955 9  -7557817.96929  20941258.966
  -1175466.717 6   -915947.46322  24473353.158
  -7662055.544 6  -5970428.58523  22904233.436
   9069819.316 6   7067382.98823  22850219.515
   9247789.683 5   7206065.32122  24288279.866
   1196452.907 9    932301.30029  20791032.676
   -715621.089 4   -557618.66422  23742870.449
 92  5  8  2 26 29.9990000  0  7G20G25G16G12G13G24G 3
  -9759872.799 9  -7605090.81628  20929712.453
  -1241383.276 6   -967310.99322  24460811.338
  -7745273.342 6  -6035273.50823  22888398.689
   9169427.529 6   7144999.60223  22869175.093
   9325520.467 5   7266634.85121  24303069.536
   1236538.855 9    963537.10929  20798661.789
   -793016.441 4   -617926.52622  23728143.145
 92  5  8  2 26 59.9990000  0  7G20G25G16G12G13G24G 3
  -9820116.313 9  -7652033.79028  20918248.690
  -1306823.860 6  -1018303.61222  24448359.752
  -7828200.936 6  -6099892.29522  22872615.526
   9269312.948 6   7222832.25223  22888184.348
   9403237.047 4   7327193.18322  24317863.691
   1277042.534 9    995098.40929  20806367.648
   -870276.379 5   -678129.04422  23713443.431
 92  5  8  2 27 29.9990000  0  7G20G25G16G12G13G24G 3
  -9879932.220 9  -7698643.56228  20906866.175
  -1371780.879 6  -1068919.39721  24435999.903
  -7910829.936 6  -6164278.43021  22856897.993
   9369473.978 6   7300879.65323  22907246.338
   9480940.899 4   7387741.57122  24332641.967
   1317956.709 9   1026979.58529  20814153.255
   -947398.692 5   -738224.32521  23698764.988
 92  5  8  2 27 59.9990000  0  6G20G25G16G12G24G 3
  -9939317.049 9  -7744917.43828  20895566.705
  -1436249.789 6  -1119154.86424  24423731.806
  -7993160.253 6  -6228431.82423  22841228.151
   9469909.170 6   7379140.67022  22926353.908
   1359285.449 9   1059183.78629  20822018.923
  -1024382.243 4   -798211.48121  23684116.229
 92  5  8  2 28 29.9990000  0  6G20G25G16G12G24G 3
  -9998278.425 9  -7790861.34928  20884345.761
  -1500232.944 6  -1169011.84822  24411555.428
  -8075212.637 6  -6292368.59623  22825610.764
   9570605.436 6   7457605.12823  22945517.841
   1401025.424 9   1091708.45329  20829961.320
  -1101236.882 4   -858098.00122  23669480.365
 92  5  8  2 28 59.9990000  0  6G20G25G16G12G24G 3
 -10056814.047 9  -7836473.50128  20873207.287
  -1563744.583 6  -1218501.44723  24399468.692
  -8156971.401 6  -6356076.65524  22810059.619
   9671559.813 6   7536270.72823  22964726.448
   1443180.347 9   1124556.43529  20837982.557
  -1177962.588 4   -917884.17023  23654884.357
 92  5  8  2 29 29.9990000  0  7G20G25G16G12G13G24G 3
 -10114911.870 9  -7881744.52429  20862151.527
  -1626786.043 6  -1267624.54221  24387472.208
  -8238411.977 6  -6419536.77323  22794557.648
   9772778.794 6   7615142.48423  22983991.122
     12936.75714     10076.13722  24391750.234
   1485771.558 9   1157744.39929  20846088.654
  -1254549.837 5   -977562.49022  23640313.844
 92  5  8  2 29 59.9990000  0  7G20G25G16G12G13G24G 3
 -10172572.858 9  -7926675.14128  20851178.237
  -1689359.977 6  -1316383.40722  24375562.644
  -8319539.415 6  -6482752.84822  22779116.840
   9874256.093 6   7694215.57923  23003305.250
     90558.130 5     70560.27721  24406522.821
   1528803.071 9   1191275.44829  20854275.389
  -1331001.714 5  -1037135.20622  23625766.121
 92  5  8  2 30 29.9990000  0  7G20G25G16G12G13G24G 3
 -10229800.247 9  -7971267.89429  20840288.568
  -1751469.674 6  -1364780.55922  24363748.428
  -8400343.063 6  -6545716.61022  22763744.682
   9975983.314 6   7773483.37023  23022664.050
    168157.987 4    131027.65221  24421292.388
   1572269.672 9   1225145.53329  20862546.967
  -1407323.797 5  -1096606.91122  23611243.875
 92  5  8  2 30 59.9990000  0  7G20G25G16G12G13G24G 3
 -10286586.372 9  -8015516.81228  20829482.852
  -1813097.358 6  -1412802.12523  24352017.257
  -8480802.914 6  -6608412.54123  22748436.391
  10077962.629 6   7852947.61323  23042065.411
    245741.855 5    191482.58521  24436065.865
   1616175.686 9   1259358.00829  20870901.869
  -1483510.888 5  -1155973.40922  23596740.825
 92  5  8  2 31 29.9990000  0  7G20G25G16G12G13G24G 3
 -10342937.998 9  -8059427.15328  20818760.479
  -1874220.984 6  -1460430.91022  24340385.605
  -8560938.374 6  -6670855.63122  22733179.352
  10180181.943 6   7932598.87923  23061517.448
    323300.255 5    251917.48222  24450813.846
   1660489.788 9   1293888.47929  20879336.240
  -1559572.042 5  -1215241.68521  23582270.127
 92  5  8  2 31 59.9990000  0  7G20G25G16G12G13G24G 3
 -10398850.968 9  -8102995.68028  20808120.243
  -1934830.411 6  -1507658.98222  24328854.990
  -8640750.558 6  -6733046.81923  22717996.057
  10282640.398 6   8012436.49223  23081013.844
    400835.533 6    312334.52922  24465577.725
   1705194.079 9   1328722.99229  20887844.041
  -1635504.720 5  -1274409.87122  23567816.844
 92  5  8  2 32 29.9990000  0  6G20G25G16G12G24G 3
 -10454319.146 9  -8146217.62029  20797565.444
  -1994918.623 6  -1554480.99722  24317413.109
  -8720223.310 6  -6794973.54322  22702867.032
  10385338.584 6   8092460.93523  23100558.524
   1750277.870 9   1363853.22129  20896422.010
  -1711305.511 5  -1333475.33621  23553396.229
 92  5  8  2 32 59.9990000  0  6G20G25G16G12G24G 3
 -10509343.058 9  -8189093.36628  20787093.691
  -2054489.470 6  -1600899.78922  24306087.237
  -8799362.668 6  -6856640.47323  22687811.752
  10488270.795 5   8172667.74224  23120147.859
   1795737.689 9   1399276.46529  20905071.926
  -1786977.038 4  -1392439.97221  23538998.089
 92  5  8  2 33 29.9990000  0  6G20G25G16G12G24G 3
 -10563918.050 9  -8231619.30628  20776708.578
  -2113556.637 5  -1646926.1402   24294839.333
  -8878164.108 6  -6918044.04723  22672816.728
  10591436.356 5   8253056.37822  23139777.661
   1841587.081 9   1435003.26529  20913799.478
  -1862517.124 4  -1451302.30821  23524622.739
 92  5  8  2 33 59.9990000  0  6G20G25G16G12G24G 3
 -10618044.428 9  -8273795.67929  20766406.510
  -2172145.234 5  -1692579.58122  24283691.244
  -8956621.739 6  -6979179.79823  22657886.775
  10694829.435 5   8333622.28323  23159447.948
   1887852.242 9   1471054.05429  20922601.978
  -1937928.308 5  -1510064.11121  23510270.179
 92  5  8  2 34 29.9990000  0  6G20G25G16G12G24G 3
 -10671723.216 9  -8315623.27429  20756195.288
  -2230257.043 6  -1737861.49322  24272634.297
  -9034739.215 6  -7040050.45122  22643021.563
  10798443.908 5   8414360.71022  23179165.595
   1934537.377 9   1507432.07529  20931485.727
  -2013213.522 5  -1568727.69222  23495944.004
 92  5  8  2 34 59.9990000  0  6G20G25G16G12G24G 3
 -10724949.641 9  -8357098.37829  20746064.093
  -2287888.032 5  -1782768.70222  24261669.697
  -9112517.762 6  -7100656.98124  22628219.904
  10902279.091 5   8495271.07923  23198927.914
   1981648.878 9   1544142.34729  20940451.021
  -2088370.394 4  -1627291.45021  23481643.603
 92  5  8  2 35 29.9990000  0  6G20G25G16G12G24G 3
 -10777721.812 9  -8398219.51129  20736021.947
  -2345029.338 5  -1827294.30523  24250783.327
  -9189958.528 6  -7161000.34124  22613484.504
  11006331.744 5   8576350.91224  23218728.606
   2029175.123 9   1581175.79129  20949493.060
  -2163399.099 5  -1685755.15322  23467365.381
 92  5  8  2 35 59.9990000  0  6G20G25G16G12G24G 3
 -10830025.312 9  -8438975.44629  20726068.534
  -2401646.224 5  -1871411.33421  24240015.094
  -9267055.609 6  -7221075.86622  22598812.064
  11110611.000 5   8657607.33124  23238572.767
   2077094.340 9   1618515.44029  20958612.160
  -2238287.713 5  -1744109.79123  23453117.139
 92  5  8  2 36 29.9990000  0  6G20G25G16G12G24G 3
 -10881867.093 9  -8479371.60628  20716204.171
  -2457722.960 5  -1915107.46722  24229351.772
  -9343825.021 6  -7280896.05322  22584204.679
  11215104.783 5   8739030.90723  23258457.098
   2125375.359 9   1656137.01829  20967801.393
  -2313045.205 5  -1802362.28122  23438887.202
 92  5  8  2 36 59.9990000  0  6G20G25G16G12G24G 3
 -10933242.442 9  -8519404.30629  20706428.838
  -2513255.311 5  -1958379.40521  24218783.484
  -9420259.906 6  -7340455.62424  22569658.457
  11319812.441 5   8820621.13624  23278386.713
   2174028.941 9   1694048.90329  20977057.791
  -2387669.013 5  -1860510.57622  23424684.836
 92  5  8  2 37 29.9990000  0  6G20G25G16G12G24G 3
 -10984148.269 9  -8559071.14929  20696742.239
  -2568235.545 5  -2001221.14622  24208315.639
  -9496353.220 6  -7399749.01223  22555175.474
  11424731.831 5   8902376.33124  23298348.087
   2223042.859 9   1732241.56429  20986385.229
  -2462158.240 5  -1918554.01723  23410517.231
 92  5  8  2 37 59.9990000  0  6G20G25G16G12G24G 3
 -11034587.116 9  -8598374.11128  20687143.485
  -2622662.498 5  -2043631.69221  24197959.005
  -9572096.846 6  -7458769.92124  22540759.954
  11529855.117 5   8984290.44423  23318352.039
   2272412.668 9   1770711.54329  20995781.019
  -2536517.795 6  -1976496.41022  23396358.945
 92  5  8  2 38 29.9990000  0  6G20G25G16G12G24G 3
 -11084554.792 9  -8637309.93529  20677634.670
  -2676553.025 5  -2085624.22722  24187701.906
  -9647470.231 6  -7517502.32325  22526416.992
  11635181.093 5   9066362.47022  23338396.459
   2322163.468 9   1809478.40629  21005248.164
  -2610745.675 6  -2034336.20623  23382237.216
 92  5  8  2 38 59.9990000  0  6G20G25G16G12G24G 3
 -11134052.997 9  -8675879.94029  20668213.995
  -2729935.976 4  -2127221.33422  24177543.140
  -9722466.133 6  -7575940.58024  22512148.961
  11740703.174 6   9148587.32622  23358475.656
   2372294.149 9   1848541.27129  21014787.866
  -2684845.238 6  -2092076.02823  23368136.481
 92  5  8  2 39 29.9990000  0  6G20G25G16G12G24G 3
 -11183079.694 9  -8714082.53529  20658887.744
  -2782806.121 5  -2168418.79822  24167484.800
  -9797088.750 6  -7634087.95224  22497947.502
  11846418.089 6   9230962.42823  23378595.339
   2422796.510 9   1887893.75929  21024398.312
  -2758816.889 6  -2149716.11424  23354063.020
 92  5  8  2 39 59.9990000  0  6G20G25G16G12G24G 3
 -11231629.925 9  -8751913.86729  20649647.539
  -2835174.226 5  -2209225.04321  24157526.292
  -9871338.459 6  -7691944.80223  22483816.176
  11952325.423 6   9313487.47023  23398746.483
   2473692.100 8   1927552.65729  21034082.502
  -2832657.987 6  -2207254.53122  23340006.642
 92  5  8  2 40 29.9990000  0  6G20G25G16G12G24G 3
 -11279700.678 9  -8789371.57929  20640499.978
  -2887052.078 4  -2249649.25323  24147645.438
  -9945220.829 6  -7749515.37224  22469761.003
  12058423.213 6   9396160.91822  23418935.112
   2524995.354 9   1967529.22129  21043847.051
  -2906367.535 6  -2264690.43623  23325978.168
 92  5  8  2 40 59.9990000  0  6G20G25G16G12G24G 3
 -11327293.266 9  -8826456.69329  20631441.745
  -2938424.105 4  -2289679.44523  24137876.090
 -10018740.084 6  -7806802.97723  22455773.886
  12164704.460 6   9478977.31522  23439162.706
   2576698.176 9   2007817.12429  21053685.937
  -2979948.911 6  -2322026.42922  23311978.452
 92  5  8  2 41 29.9990000  0  6G20G25G16G12G24G 3
 -11374401.187 9  -8863164.14229  20622478.563
  -2989266.704 5  -2329297.00923  24128195.495
 -10091881.424 6  -7863796.13224  22441853.324
  12271171.292 6   9561938.29823  23459421.187
   2628796.639 8   2048413.32928  21063597.678
  -3053397.542 6  -2379259.00423  23298003.026
 92  5  8  2 41 59.9990000  0  6G20G25G16G12G24G 3
 -11421029.741 9  -8899498.06929  20613605.301
  -3039589.218 4  -2368509.30721  24118626.423
 -10164647.416 6  -7920496.80522  22428004.412
  12377812.922 6   9645035.52622  23479717.431
   2681265.609 8   2089298.24028  21073582.867
  -3126720.895 6  -2436394.00121  23284047.686
 92  5  8  2 42 29.9990000  0  6G20G25G16G12G24G 3
 -11467170.938 9  -8935452.22929  20604825.573
  -3089369.657 5  -2407299.20623  24109148.477
 -10237020.365 6  -7976891.18223  22414234.340
  12484631.974 6   9728271.04022  23500041.263
   2734094.140 9   2130463.31929  21083636.095
  -3199913.351 6  -2493426.89921  23270119.026
 92  5  8  2 42 59.9990000  0  6G20G25G16G12G24G 3
 -11512823.694 9  -8971025.78829  20596137.895
  -3138600.669 5  -2445660.99224  24099780.276
 -10308995.358 6  -8032975.47823  22400536.234
  12591624.697 5   9811641.80222  23520402.561
   2787265.136 8   2171895.25428  21093754.691
  -3272975.538 6  -2550358.36221  23256214.361
 92  5  8  2 43 29.9990000  0  6G20G25G16G12G24G 3
 -11557991.780 9  -9006221.67629  20587542.546
  -3187293.211 4  -2483603.20522  24090511.889
 -10380589.045 6  -8088762.67522  22386910.371
  12698782.137 5   9895140.98522  23540795.950
   2840762.308 8   2213581.36129  21103935.043
  -3345913.443 6  -2607192.96222  23242339.955
 92  5  8  2 43 59.9990000  0  6G20G25G16G12G24G 3
 -11602669.613 9  -9041035.54929  20579040.730
  -3235438.476 4  -2521118.98621  24081350.525
 -10451794.671 6  -8144247.43622  22373360.050
  12806104.544 5   9978768.67122  23561216.317
   2894607.218 9   2255538.41328  21114180.764
  -3418723.493 6  -2663927.95322  23228481.760
 92  5  8  2 44 29.9990000  0  6G20G25G16G12G24G 3
 -11646852.175 9  -9075463.50629  20570632.151
  -3283037.514 4  -2558209.05621  24072295.589
 -10522593.704 6  -8199415.42824  22359891.570
  12913592.071 5  10062524.96822  23581668.147
   2948817.508 8   2297780.18629  21124496.321
  -3491402.676 6  -2720560.96923  23214652.026
 92  5  8  2 44 59.9990000  0  6G20G25G16G12G24G 3
 -11690543.382 9  -9109508.58829  20562319.199
  -3330098.976 5  -2594880.31122  24063332.407
 -10592999.745 6  -8254277.19022  22346493.852
  13021235.455 5  10146402.81721  23602154.161
   3003385.902 8   2340301.00829  21134880.527
  -3563956.832 6  -2777096.51524  23200849.584
 92  5  8  2 45 29.9990000  0  6G20G25G16G12G24G 3
 -11733755.643 9  -9143180.48729  20554095.888
  -3376636.777 5  -2631143.52022  24054484.327
 -10663020.988 6  -8308839.06023  22333166.265
  13129017.383 5  10230388.64522  23622669.859
   3058301.605 8   2383092.46228  21145329.787
  -3636400.641 6  -2833546.10922  23187059.724
 92  5  8  2 45 59.9990000  0  6G20G25G16G12G24G 3
 -11776468.493 9  -9176463.19229  20545967.018
  -3422635.354 5  -2666986.54322  24045730.687
 -10732620.052 6  -8363071.98124  22319921.742
  13236953.172 5  10314494.28321  23643204.752
   3113585.557 9   2426170.84728  21155852.216
  -3708715.532 6  -2889895.19524  23173299.250
 92  5  8  2 46 29.9990000  0  6G20G25G16G12G24G 3
 -11818682.873 9  -9209357.49129  20537935.887
  -3468110.168 5  -2702421.43823  24037081.067
 -10801810.091 6  -8416986.21124  22306760.858
  13345036.871 5  10398715.17521  23663770.810
   3169212.602 9   2469516.58528  21166436.087
  -3780904.371 5  -2946146.13222  23159561.270
 92  5  8  2 46 59.9990000  0  6G20G25G16G12G24G 3
 -11860393.543 9  -9241859.28929  20529996.771
  -3513046.072 5  -2737436.40722  24028527.093
 -10870600.888 6  -8470589.28323  22293665.324
  13453268.768 5  10483051.64622  23684370.443
   3225183.754 9   2513130.45828  21177087.106
  -3852963.706 5  -3002296.16322  23145852.658
 92  5  8  2 47 29.9990000  0  6G20G25G16G12G24G 3
 -11901597.745 9  -9273966.44029  20522156.615
  -3557440.741 5  -2772029.67921  24020081.938
 -10938986.432 6  -8523876.63323  22280652.522
  13561646.636 6  10567501.74122  23704992.866
   3281494.923 9   2557009.28229  21187804.995
  -3924893.180 5  -3058344.96321  23132164.428
 92  5  8  2 47 59.9990000  0  6G20G25G16G12G24G 3
 -11942296.183 9  -9305679.48729  20514411.161
  -3601295.652 5  -2806202.31923  24011738.116
 -11006983.991 6  -8576861.67323  22267712.278
  13670164.638 6  10652061.09723  23725645.583
   3338129.395 9   2601140.02528  21198581.028
  -3996694.859 5  -3114294.18622  23118499.302
 92  5  8  2 48 29.9990000  0  6G20G25G16G12G24G 3
 -11982492.234 9  -9337001.05429  20506761.370
  -3644610.340 5  -2839954.00322  24003498.629
 -11074612.271 6  -8629558.91824  22254842.499
  13778814.447 6  10736723.10621  23746317.460
   3395077.140 8   2645514.88329  21209418.521
  -4068374.636 5  -3170148.52422  23104853.337
 92  5  8  2 48 59.9990000  0  6G20G25G16G12G24G 3
 -12022182.141 9  -9367928.21929  20499208.985
  -3687370.765 5  -2873273.83123  23995349.971
 -11141860.143 6  -8681959.75525  22242043.759
  13887594.634 6  10821486.74423  23767020.538
   3452341.136 9   2690136.16728  21220312.692
  -4139930.195 5  -3225906.03222  23091245.168
 92  5  8  2 49 29.9990000  0  6G20G25G16G12G24G 3
 -12061358.690 9  -9398455.37529  20491752.560
  -3729579.809 5  -2906163.94422  23987325.419
 -11208700.948 6  -8734043.40323  22229328.361
  13996507.292 6  10906353.58621  23787743.387
   3509915.328 9   2734999.16429  21231271.289
  -4211356.783 5  -3281562.94921  23077649.267
 92  5  8  2 49 59.9990000  0  6G20G25G16G12G24G 3
 -12100020.191 9  -9428581.19729  20484397.153
  -3771235.888 5  -2938623.22523  23979392.305
 -11275116.059 6  -8785795.36522  22216685.800
  14105549.538 6  10991321.38424  23808495.325
   3567811.214 9   2780112.83228  21242286.564
  -4282654.355 5  -3337119.42023  23064078.879
 92  5  8  2 50 29.9990000  0  6G20G25G16G12G24G 3
 -12138162.196 9  -9458302.22029  20477139.765
  -3812328.959 5  -2970643.77521  23971575.829
 -11341075.387 6  -8837192.13323  22204134.993
  14214721.067 6  11076389.95823  23829270.333
   3626047.720 9   2825491.91328  21253369.302
  -4353820.080 5  -3392573.10621  23050543.844
 92  5  8  2 50 59.9990000  0  6G20G25G16G12G24G 3
 -12175788.639 9  -9487621.50729  20469980.132
  -3852867.299 5  -3002232.07423  23963867.562
 -11406563.657 6  -8888221.89024  22191673.827
  14324012.724 6  11161552.10923  23850069.335
   3684629.318 8   2871139.90228  21264516.781
  -4424859.998 5  -3447928.73323  23037013.608
 92  5  8  2 51 29.9990000  0  6G20G25G16G12G24G 3
 -12212892.716 9  -9516533.75529  20462919.722
  -3892860.144 5  -3033395.30724  23956248.640
 -11471572.894 6  -8938878.34523  22179301.082
  14433426.336 6  11246809.29223  23870890.533
   3743574.865 8   2917071.49228  21275733.816
  -4495768.946 5  -3503182.34422  23023524.747
 92  5  8  2 51 59.9990000  0  6G20G25G16G12G24G 3
 -12249478.846 9  -9545042.40829  20455957.033
  -3932312.556 5  -3064137.47723  23948742.725
 -11536122.484 6  -8989176.63923  22167016.198
  14542952.735 6  11332154.35224  23891728.798
   3802889.628 8   2963290.77228  21287019.796
  -4566553.551 5  -3558339.06421  23010053.877
 92  5  8  2 52 29.9990000  0  6G20G25G16G12G24G 3
 -12285542.349 9  -9573143.82829  20449094.194
  -3971230.881 6  -3094463.41222  23941334.253
 -11600222.647 6  -9039124.75425  22154824.534
  14652591.526 5  11417587.02123  23912592.558
   3862559.845 8   3009787.04228  21298376.537
  -4637210.368 5  -3613396.21522  22996608.484
 92  5  8  2 52 59.9990000  0  6G20G25G16G12G24G 3
 -12321082.569 9  -9600837.49229  20442329.669
  -4009620.288 5  -3124377.19021  23934033.710
 -11663883.925 6  -9088730.87923  22142709.912
  14762338.763 5  11503104.17822  23933473.698
   3922569.853 8   3056548.08528  21309797.129
  -4707741.131 6  -3668355.17521  22983184.974
 92  5  8  2 53 29.9990000  0  6G20G25G16G12G24G 3
 -12356102.851 9  -9628126.01229  20435665.885
  -4047476.626 5  -3153875.55822  23926830.295
 -11727129.039 6  -9138012.71823  22130668.459
  14872186.243 5  11588699.46822  23954382.426
   3982899.484 8   3103558.16928  21321273.788
  -4778150.339 6  -3723219.47321  22969790.553
 92  5  8  2 53 59.9990000  0  6G20G25G16G12G24G 3
 -12390599.876 9  -9655006.79429  20429101.619
  -4084773.411 6  -3182937.95923  23919733.012
 -11789957.809 6  -9186970.11123  22118717.835
  14982132.306 5  11674371.99522  23975304.348
   4043531.319 8   3150803.74427  21332812.501
  -4848437.118 6  -3777988.23522  22956417.998
 92  5  8  2 54 29.9990000  0  6G20G25G16G12G24G 3
 -12424574.131 9  -9681480.22929  20422636.610
  -4121503.008 6  -3211558.39123  23912744.549
 -11852368.535 6  -9235601.80923  22106844.253
  15092171.708 5  11760116.81022  23996241.555
   4104457.677 8   3198278.80928  21344407.874
  -4918603.135 6  -3832662.96522  22943062.543
 92  5  8  2 54 59.9990000  0  6G20G25G16G12G24G 3
 -12458020.943 9  -9707542.67029  20416272.603
  -4157657.968 5  -3239731.05422  23905855.325
 -11914353.372 6  -9283901.62022  22095045.026
  15202304.531 4  11845934.41422  24017196.736
   4165694.722 8   3245995.97528  21356061.408
  -4988645.574 6  -3887241.38422  22929733.177
 92  5  8  2 55 29.9990000  0  6G20G25G16G12G24G 3
 -12490936.363 9  -9733191.03929  20410009.353
  -4193240.418 6  -3267457.59023  23899093.802
 -11975902.151 6  -9331861.62223  22083333.034
  15312529.620 4  11931823.90822  24038173.817
   4227248.002 8   3293959.54528  21367772.494
  -5058562.591 6  -3941722.08121  22916429.882
 92  5  8  2 55 59.9990000  0  6G20G25G16G12G24G 3
 -12523320.354 9  -9758425.31329  20403846.215
  -4228262.210 6  -3294747.27723  23892427.610
 -12037001.646 6  -9379471.54725  22071706.180
  15422842.506 4  12017781.77622  24059168.576
   4289110.236 8   3342163.87328  21379548.354
  -5128355.607 6  -3996106.17322  22903144.891
 92  5  8  2 56 29.9990000  0  6G20G25G16G12G24G 3
 -12555166.560 9  -9783240.53029  20397787.413
  -4262731.494 6  -3321606.43724  23885868.753
 -12097637.439 6  -9426720.16924  22060168.358
  15533244.827 4  12103809.35422  24080178.638
   4351288.167 8   3390614.20228  21391379.061
  -5198019.650 6  -4050389.78822  22889896.756
 92  5  8  2 56 59.9990000  0  6G20G25G16G12G24G 3
 -12586471.025 9  -9807633.61029  20391829.926
  -4296637.603 6  -3348026.76822  23879414.825
 -12157799.934 6  -9473599.95422  22048721.992
  15643736.032 5  12189906.24922  24101205.191
   4413769.308 8   3439300.79827  21403267.929
  -5267552.403 6  -4104571.04422  22876663.313
 92  5  8  2 57 29.9990000  0  6G20G25G16G12G24G 3
 -12617231.671 8  -9831602.92829  20385974.383
  -4329964.917 6  -3373996.05623  23873071.217
 -12217487.202 6  -9520109.41622  22037361.360
  15754313.280 5  12276070.08522  24122241.323
   4476535.080 8   3488209.18329  21415213.755
  -5336953.579 6  -4158649.74124  22863451.753
 92  5  8  2 57 59.9990000  0  6G20G25G16G12G24G 3
 -12647449.846 9  -9855149.54229  20380224.362
  -4362696.731 6  -3399501.31022  23866843.322
 -12276701.929 7  -9566250.71623  22026095.150
  15864970.617 5  12362296.4932   24143302.340
   4539574.045 8   3537330.44428  21427208.145
  -5406226.314 6  -4212628.42922  22850270.784
 92  5  8  2 58 29.9990000  0  6G20G25G16G12G24G 3
 -12677129.881 8  -9878276.84029  20374575.971
  -4394831.990 6  -3424541.74923  23860729.359
 -12335443.962 6  -9612023.66823  22014914.691
  15975698.946 5  12448578.09824  24164370.546
   4602888.411 8   3586666.31828  21439255.618
  -5475376.303 6  -4266511.45323  22837112.604
 92  5  8  2 58 59.9990000  0  6G20G25G16G12G24G 3
 -12706265.236 9  -9900979.71129  20369031.914
  -4426379.888 6  -3449124.50323  23854725.419
 -12393695.170 6  -9657414.16623  22003827.468
  16086499.970 5  12534916.43321  24185459.152
   4666481.266 8   3636219.19628  21451355.232
  -5544398.950 6  -4320295.22722  22823975.993
 92  5  8  2 59 29.9990000  0  6G20G25G16G12G24G 3
 -12734860.699 9  -9923261.87129  20363592.175
  -4457367.374 6  -3473270.55522  23848827.892
 -12451456.096 6  -9702422.59323  21992833.185
  16197364.356 5  12621304.08822  24206559.746
   4730357.752 8   3685993.06427  21463512.119
  -5613300.328 6  -4373984.56523  22810865.470
 92  5  8  2 59 59.9990000  0  6G20G25G16G12G24G 3
 -12762907.620 9  -9945116.60729  20358255.881
  -4487803.110 6  -3496986.69623  23843037.700
 -12508713.507 7  -9747038.69724  21981939.329
  16308296.320 5  12707744.45822  24227667.826
   4794535.760 8   3736001.89427  21475725.072
  -5682073.419 6  -4427573.92222  22797778.033
 92  5  8  3  0 29.9990000  0  6G20G25G16G12G24G 3
 -12790407.765 9  -9966545.28028  20353022.404
  -4517717.194 6  -3520296.34125  23837348.248
 -12565472.278 7  -9791266.26223  21971142.600
  16419289.280 5  12794232.25121  24248778.017
   4859013.325 8   3786244.15627  21487994.373
  -5750721.678 6  -4481066.00522  22784711.275
 92  5  8  3  0 59.9990000  0  6G20G25G16G12G24G 3
 -12817361.889 9  -9987548.48129  20347891.447
  -4547103.831 6  -3543195.02023  23831754.424
 -12621746.382 7  -9835116.13423  21960431.604
  16530338.389 5  12880763.86124  24269922.080
   4923781.268 8   3836712.68228  21500319.741
  -5819246.991 6  -4534462.24522  22771673.607
 92  5  8  3  1 29.9990000  0  6G20G25G16G12G24G 3
 -12843764.525 9 -10008121.95129  20342866.325
  -4575929.522 6  -3565656.58623  23826265.214
 -12677553.910 7  -9878602.45723  21949812.361
  16641444.280 5  12967339.67223  24291059.843
   4988841.530 8   3887408.97428  21512700.565
  -5887645.675 6  -4587759.88123  22758657.804
 92  5  8  3  1 59.9990000  0  6G20G25G16G12G24G 3
 -12869619.533 9 -10028268.70329  20337946.131
  -4604187.872 6  -3587676.07722  23820890.547
 -12732910.869 7  -9921737.70123  21939278.554
  16752598.895 5  13053953.46322  24312217.097
   5054191.689 8   3938331.17527  21525136.864
  -5955922.762 6  -4640962.75823  22745666.309
 92  5  8  3  2 29.9990000  0  6G20G25G16G12G24G 3
 -12894919.917 9 -10047983.26529  20333132.366
  -4631860.390 6  -3609239.03523  23815621.994
 -12787810.761 7  -9964516.78825  21928831.092
  16863804.280 4  13140607.28322  24333375.260
   5119838.051 8   3989484.19028  21537628.603
  -6024073.195 6  -4694066.92621  22732699.680
 92  5  8  3  2 59.9990000  0  6G20G25G16G12G24G 3
 -12919662.628 8 -10067263.28629  20328422.919
  -4658931.872 6  -3630333.68623  23810470.952
 -12842244.711 7 -10006932.77923  21918469.065
  16975059.252 5  13227299.29921  24354543.595
   5185777.315 8   4040865.42627  21550174.018
  -6092095.063 6  -4747070.87222  22719755.545
 92  5  8  3  3 29.9990000  0  6G20G25G16G12G24G 3
 -12943855.335 9 -10086114.73129  20323819.011
  -4685424.083 6  -3650976.94022  23805434.732
 -12896213.644 7 -10048986.41624  21908206.871
  17086351.667 4  13314020.90622  24375729.032
   5252002.472 8   4092469.45427  21562780.003
  -6159997.336 6  -4799981.68624  22706829.087
 92  5  8  3  3 59.9990000  0  6G20G25G16G12G24G 3
 -12967492.395 9 -10104533.20329  20319323.329
  -4711347.920 6  -3671177.33722  23800493.860
 -12949702.034 7 -10090665.63924  21898025.018
  17197682.820 4  13400772.69621  24396921.065
   5318507.097 8   4144291.24227  21575434.534
  -6227775.938 6  -4852796.12924  22693934.423
 92  5  8  3  4 29.9990000  0  6G20G25G16G12G24G 3
 -12990574.151 8 -10122518.97729  20314930.760
  -4736704.387 6  -3690935.63422  23795673.202
 -13002696.049 7 -10131959.62024  21887940.590
  17309047.627 4  13487550.26422  24418105.298
   5385267.854 8   4196312.61128  21588137.647
  -6295432.708 6  -4905515.61122  22681060.734
 92  5  8  3  4 59.9990000  0  6G20G25G16G12G24G 3
 -13013104.048 9 -10140074.72629  20310643.137
  -4761507.784 6  -3710262.92321  23790954.471
 -13055202.429 7 -10172873.61926  21877948.508
  17420438.462 4  13574348.05022  24439303.020
   5452270.214 8   4248522.24427  21600886.026
  -6362972.261 6  -4958143.75922  22668205.333
 92  5  8  3  5 29.9990000  0  6G20G25G16G12G24G 3
 -13035080.033 9 -10157198.85929  20306461.035
  -4785753.137 6  -3729155.41024  23786342.763
 -13107229.414 7 -10213414.04424  21868052.664
  17531853.315 4  13661164.60622  24460496.553
   5519513.836 8   4300919.86626  21613684.155
  -6430393.582 6  -5010679.81723  22655379.301
 92  5  8  3  5 59.9990000  0  7G20G25G16G12G24G17G 3
 -13056495.368 8 -10173886.11629  20302384.751
  -4809430.406 6  -3747605.24823  23781831.777
 -13158768.339 7 -10253574.18725  21858240.755
  17643294.905 4  13748002.42621  24481718.252
   5587000.613 8   4353506.95327  21626527.568
   -235939.634 5   -183849.14622  24356577.401
  -6497691.113 6  -5063119.40223  22642570.370
 92  5  8  3  6 29.9990000  0  7G20G25G16G12G24G17G 3
 -13077350.423 8 -10190136.79929  20298416.694
  -4832546.225 6  -3765617.57622  23777436.521
 -13209815.222 7 -10293350.95424  21848526.272
  17754758.047 4  13834856.56522  24502924.681
   5654740.087 8   4406290.96127  21639414.152
   -344618.941 4   -268534.04422  24335897.409
  -6564866.953 6  -5115464.16222  22629788.120
 92  5  8  3  6 59.9990000  0  7G20G25G16G12G24G17G 3
 -13097643.300 8 -10205949.42629  20294555.380
  -4855097.926 6  -3783190.36224  23773146.786
 -13260379.543 7 -10332751.66425  21838900.836
  17866240.212 3  13921726.01422  24524140.988
   5722738.159 8   4459276.47227  21652359.178
   -453153.777 4   -353106.75622  24315243.506
  -6631920.226 6  -5167713.39022  22617030.458
 92  5  8  3  7 29.9990000  0  6G20G25G16G24G17G 3
 -13117372.933 8 -10221323.15529  20290798.976
  -4877070.574 6  -3800311.93524  23768959.885
 -13310451.996 7 -10371769.08624  21829375.233
   5790994.012 8   4512462.84127  21665343.797
   -561543.830 5   -437566.68622  24294621.991
  -6698851.186 6  -5219867.33423  22604296.179
 92  5  8  3  7 59.9990000  0  6G20G25G16G24G17G 3
 -13136536.247 9 -10236255.59929  20287153.800
  -4898465.243 6  -3816983.13625  23764894.107
 -13360014.678 7 -10410389.29525  21819946.165
   5859517.192 8   4565857.52027  21678385.375
   -669784.826 5   -521910.44323  24274020.543
  -6765658.009 6  -5271924.54924  22591580.170
 92  5  8  3  8 29.9990000  0  6G20G25G16G24G17G 3
 -13155129.442 8 -10250743.79429  20283618.351
  -4919273.205 6  -3833197.13923  23760934.146
 -13409061.425 7 -10448607.49325  21810610.630
   5928307.086 8   4619460.01527  21691475.202
   -777874.841 4   -606136.63222  24253452.686
  -6832338.413 6  -5323883.25023  22578891.454
 92  5  8  3  8 59.9990000  0  6G20G25G16G24G17G 3
 -13173163.532 8 -10264796.31229  20280186.312
  -4939498.089 6  -3848956.77423  23757080.911
 -13457587.068 7 -10486419.62725  21801377.022
   5997351.511 8   4673260.86127  21704615.111
   -885839.153 4   -690264.83222  24232914.199
  -6898904.265 7  -5375752.65722  22566221.933
 92  5  8  3  9 29.9990000  0  6G20G25G16G24G17G 3
 -13190627.642 8 -10278404.69529  20276861.312
  -4959136.178 6  -3864259.16422  23753348.798
 -13505568.310 7 -10523807.54324  21792248.045
   6066671.354 8   4727276.31726  21717803.881
   -993676.736 4   -774294.30822  24212392.813
  -6965345.462 7  -5427524.95824  22553579.076
 92  5  8  3  9 59.9990000  0  6G20G25G16G24G17G 3
 -13207520.655 8 -10291568.07429  20273645.447
  -4978206.443 6  -3879119.09422  23749721.317
 -13553015.861 7 -10560779.60925  21783218.587
   6136261.716 8   4781502.55727  21731046.904
  -1101390.571 4   -858227.32922  24191887.899
  -7031662.215 7  -5479200.28825  22540960.509
 92  5  8  3 10 29.9990000  0  7G20G25G16G12G24G17G 3
 -13223845.243 8 -10304288.53529  20270536.900
  -4996711.111 6  -3893538.31824  23746195.151
 -13599934.152 8 -10597339.27025  21774288.665
    139413.84315    108614.52522  24672695.040
   6206112.292 8   4835931.56626  21744339.712
  -1208976.959 4   -942061.06322  24171412.372
  -7097858.284 7  -5530781.57123  22528365.029
 92  5  8  3 10 59.9990000  0  6G20G25G16G12G24G 3
 -13239589.789 8 -10316557.01029  20267544.676
  -5014639.191 6  -3907508.25124  23742785.606
 -13646317.748 8 -10633482.27926  21765463.375
    250949.896 5    195525.8682   24693915.866
   6276234.553 8   4890572.29227  21757681.974
  -7163922.841 7  -5582260.34823  22515792.636
 92  5  8  3 11 29.9990000  0  6G20G25G16G12G24G 3
 -13254760.428 8 -10328378.27829  20264659.160
  -5032003.480 6  -3921038.87322  23739479.208
 -13692200.762 8 -10669235.21726  21756730.431
    362479.582 4    282432.31521  24715137.861
   6346607.204 8   4945408.11926  21771073.393
  -7229863.533 7  -5633642.66023  22503242.736
 92  5  8  3 11 59.9990000  0  6G20G25G16G12G24G 3
 -13269359.567 8 -10339754.22329  20261881.295
  -5048808.349 6  -3934133.60022  23736278.611
 -13737575.585 8 -10704592.16426  21748097.599
    473996.192 4    369328.17622  24736351.480
   6417205.382 8   5000419.67326  21784511.596
  -7295683.544 7  -5684930.92925  22490717.703
 92  5  8  3 12 29.9990000  0  6G20G25G16G12G24G 3
 -13283383.608 8 -10350682.04729  20259211.342
  -5065035.004 6  -3946777.73423  23733195.856
 -13782421.355 8 -10739536.87726  21739563.709
    585499.471 4    456213.62821  24757583.090
   6488027.879 8   5055606.03427  21797986.375
  -7361380.700 7  -5736123.47724  22478216.960
 92  5  8  3 12 59.9990000  0  7G20G25G16G12G24G17G 3
 -13296829.335 8 -10361159.23229  20256651.116
  -5080689.117 6  -3958975.73423  23730212.916
 -13826743.615 7 -10774073.64726  21731129.059
    696988.706 5    543088.44922  24778796.988
   6559066.034 7   5110960.43827  21811504.012
     -1780.18814     -1388.36222  24069506.032
  -7426952.497 7  -5787218.29324  22465738.693
 92  5  8  3 13 29.9990000  0  6G20G25G16G12G24G 3
 -13309700.690 8 -10371188.85729  20254202.711
  -5095786.623 6  -3970740.04124  23727342.111
 -13870541.237 7 -10808201.60224  21722794.818
    808456.072 5    629946.28322  24800006.716
   6630312.302 8   5166477.01327  21825061.522
  -7492403.609 7  -5838219.10723  22453281.122
 92  5  8  3 13 59.9990000  0  6G20G25G16G12G24G 3
 -13321992.144 8 -10380766.61129  20251864.033
  -5110314.340 6  -3982060.35825  23724578.310
 -13913788.157 7 -10841900.45527  21714564.021
    919903.260 5    716787.99822  24821220.631
   6701775.147 8   5222162.32927  21838660.110
  -7557729.451 7  -5889122.31624  22440850.826
 92  5  8  3 14 29.9990000  0  6G20G25G16G12G24G 3
 -13333704.332 8 -10389892.98029  20249634.174
  -5124261.899 6  -3992928.58423  23721922.754
 -13956504.439 7 -10875185.81726  21706436.355
   1031325.306 4    803610.50422  24842416.556
   6773475.845 8   5278033.00326  21852305.465
  -7622931.931 7  -5939929.39324  22428439.114
 92  5  8  3 14 59.9990000  0  6G20G25G16G12G24G 3
 -13344838.941 8 -10398569.29929  20247517.340
  -5137635.847 6  -4003349.82922  23719377.814
 -13998697.535 7 -10908063.49526  21698405.207
   1142717.474 3    890409.38222  24863622.671
   6845422.895 8   5334095.63726  21865997.290
  -7688012.930 7  -5990641.76124  22416058.290
 92  5  8  3 15 29.9990000  0  5G20G25G16G24G 3
 -13355393.081 8 -10406793.30929  20245508.733
  -5150423.457 6  -4013314.21122  23716943.508
 -14040347.122 7 -10940517.64725  21690480.190
   6917618.262 8   5390351.75727  21879736.771
  -7752970.824 7  -6041258.23425  22403699.033
 92  5  8  3 15 59.9990000  0  5G20G25G16G24G 3
 -13365366.399 8 -10414564.71329  20243609.539
  -5162610.506 6  -4022810.64322  23714625.509
 -14081460.268 8 -10972553.82026  21682656.211
   6990062.969 8   5446802.17526  21893520.628
  -7817806.249 7  -6091779.27125  22391361.084
 92  5  8  3 16 29.9990000  0  5G20G25G16G24G 3
 -13374755.271 8 -10421880.72229  20241823.683
  -5174200.040 6  -4031841.48122  23712418.737
 -14122036.535 7 -11004171.63625  21674935.955
   7062750.378 8   5503441.70025  21907351.252
  -7882516.195 7  -6142202.56724  22379046.814
 92  5  8  3 16 59.9990000  0  5G20G25G16G24G 3
 -13383560.101 8 -10428741.63129  20240145.740
  -5185206.158 6  -4040417.68624  23710324.082
 -14162069.542 7 -11035366.13225  21667317.330
   7135646.604 8   5560243.95227  21921224.454
  -7947101.838 7  -6192528.97224  22366754.113
 92  5  8  3 17 29.9990000  0  5G20G25G16G24G 3
 -13391781.432 8 -10435147.85529  20238583.213
  -5195643.532 6  -4048550.73023  23708337.654
 -14201565.565 7 -11066142.19725  21659799.741
   7208730.762 8   5617192.62726  21935130.027
  -8011564.630 7  -6242759.66924  22354492.613
 92  5  8  3 17 59.9990000  0  5G20G25G16G24G 3
 -13399412.655 8 -10441094.25729  20237131.931
  -5205510.939 6  -4056239.66424  23706460.953
 -14240531.424 7 -11096505.15326  21652387.063
   7282013.743 8   5674296.24727  21949077.567
  -8075898.107 7  -6292889.59623  22342248.475
 92  5  8  3 18 29.9990000  0  5G20G25G16G24G 3
 -13406459.373 8 -10446585.20629  20235790.061
  -5214827.276 6  -4063499.15324  23704687.086
 -14278966.431 7 -11126454.45025  21645070.326
   7355477.472 8   5731540.70927  21963058.699
  -8140109.420 7  -6342924.33024  22330028.646
 92  5  8  3 18 59.9990000  0  6G20G25G16G24G17G 3
 -13412918.055 8 -10451617.94129  20234560.903
  -5223598.048 6  -4070333.54423  23703019.648
 -14316875.976 8 -11155994.30425  21637856.127
   7429131.613 8   5788933.53126  21977073.091
    -59358.277 5    -46254.24922  23828176.100
  -8204195.484 7  -6392861.47924  22317831.590
 92  5  8  3 19 29.9990000  0  6G20G25G16G24G17G 3
 -13418791.171 8 -10456194.39429  20233443.879
  -5231819.411 6  -4076739.78922  23701453.229
 -14354263.660 8 -11185127.50526  21630743.244
   7502994.963 8   5846489.37127  21991127.357
   -163997.371 5   -127791.00222  23808258.194
  -8268159.188 7  -6442703.26723  22305662.105
 92  5  8  3 19 59.9990000  0  6G20G25G16G24G17G 3
 -13424078.971 8 -10460314.75529  20232438.380
  -5239477.810 6  -4082707.39723  23700001.336
 -14391114.166 8 -11213842.14026  21623730.804
   7577079.016 8   5904217.20227  22005226.906
   -268475.990 4   -209203.15022  23788377.441
  -8332001.036 7  -6492450.09924  22293514.223
 92  5  8  3 20 29.9990000  0  6G20G25G16G24G17G 3
 -13428785.777 8 -10463982.39029  20231540.200
  -5246579.561 6  -4088241.25223  23698647.165
 -14427417.249 8 -11242130.21425  21616822.682
   7651378.457 7   5962112.87226  22019363.607
   -372772.252 4   -290472.77222  23768527.294
  -8395726.298 7  -6542106.10824  22281387.019
 92  5  8  3 20 59.9990000  0  6G20G25G16G24G17G 3
 -13432901.404 8 -10467189.37529  20230760.734
  -5253110.456 6  -4093330.27623  23697405.128
 -14463149.243 8 -11269973.27925  21610023.990
   7725913.507 7   6020192.11626  22033547.388
   -476845.892 3   -371568.91023  23748725.398
  -8459325.004 7  -6591663.49424  22269282.292
 92  5  8  3 21 29.9990000  0  5G20G25G16G24G 3
 -13436422.868 8 -10469933.35729  20230087.993
  -5259053.918 6  -4097961.59222  23696277.006
 -14498291.340 7 -11297356.66725  21603335.025
   7800678.105 7   6078450.24026  22047775.545
  -8522795.020 7  -6641120.57024  22257208.748
 92  5  8  3 21 59.9990000  0  5G20G25G16G24G 3
 -13439351.853 8 -10472215.67729  20229530.982
  -5264419.195 6  -4102142.33623  23695248.421
 -14532840.340 7 -11324277.90626  21596761.475
   7875655.781 7   6136874.37726  22062039.370
  -8586138.433 7  -6690479.01425  22245152.009
 92  5  8  3 22 29.9990000  0  5G20G25G16G24G 3
 -13441688.766 8 -10474036.63929  20229086.403
  -5269218.388 6  -4105881.96222  23694336.455
 -14566820.833 7 -11350756.17826  21590292.243
   7950834.965 7   6195455.56127  22076347.868
  -8649356.323 7  -6739739.66123  22233119.839
 92  5  8  3 22 59.9990000  0  6G20G25G16G24G17G 3
 -13443430.838 8 -10475394.08229  20228753.034
  -5273448.422 6  -4109178.07922  23693534.216
 -14600246.007 7 -11376801.72326  21583934.256
   8026207.855 7   6254187.66027  22090694.129
    -84264.83215    -65661.47022  23669940.841
  -8712446.435 7  -6788900.72724  22221118.836
 92  5  8  3 23 29.9990000  0  6G20G25G16G24G17G 3
 -13444582.562 8 -10476291.52529  20228535.377
  -5277115.321 6  -4112035.37922  23692838.092
 -14633138.606 7 -11402432.26026  21577673.991
   8101762.891 7   6313061.71326  22105071.276
   -187293.883 5   -145943.72721  23650330.810
  -8775413.230 7  -6837965.69824  22209134.044
 92  5  8  3 23 59.9990000  0  6G20G25G16G24G17G 3
 -13445148.051 8 -10476732.16729  20228427.745
  -5280234.310 6  -4114465.78624  23692239.410
 -14665511.021 7 -11427657.45925  21571514.448
   8177506.085 7   6372082.37626  22119483.201
   -290175.210 5   -226110.78722  23630761.856
  -8838261.294 7  -6886938.15225  22197176.509
 92  5  8  3 24 29.9990000  0  6G20G25G16G24G17G 3
 -13445114.142 8 -10476705.73129  20228433.451
  -5282783.400 6  -4116452.08323  23691757.644
 -14697345.562 7 -11452463.55826  21565457.146
   8253456.923 7   6431264.84226  22133938.595
   -392890.271 5   -306148.42123  23611209.393
  -8900978.354 7  -6935808.55323  22185239.670
 92  5  8  3 24 59.9990000  0  6G20G25G16G24G17G 3
 -13444486.593 8 -10476216.73529  20228552.461
  -5284757.822 6  -4117990.59923  23691379.603
 -14728618.627 7 -11476832.13225  21559503.271
   8329610.604 7   6490605.36227  22148429.064
   -495424.569 4   -386045.17321  23591692.616
  -8963569.770 7  -6984581.04223  22173329.216
 92  5  8  3 25 29.9990000  0  6G20G25G16G24G17G 3
 -13443259.214 8 -10475260.33929  20228789.906
  -5286152.486 6  -4119077.32824  23691109.491
 -14759306.065 7 -11500744.36825  21553665.405
   8405968.182 8   6550104.76226  22162960.593
   -597768.771 4   -465793.76923  23572218.086
  -9026030.485 7  -7033251.68324  22161441.848
 92  5  8  3 25 59.9990000  0  6G20G25G16G24G17G 3
 -13441439.704 8 -10473842.52929  20229133.466
  -5286979.938 6  -4119722.10222  23690957.499
 -14789407.783 7 -11524200.21326  21547937.581
   8482516.891 7   6609753.10426  22177523.917
   -699927.357 5   -545397.69223  23552780.149
  -9088367.955 7  -7081826.28723  22149580.569
 92  5  8  3 26 29.9990000  0  6G20G25G16G24G17G 3
 -13439032.743 8 -10471966.97229  20229592.145
  -5287240.737 5  -4119925.40525  23690907.731
 -14818925.966 7 -11547201.34626  21542323.968
   8559232.728 7   6669531.67126  22192121.408
   -801888.892 5   -624848.10022  23533377.287
  -9150587.136 7  -7130308.72825  22137739.654
 92  5  8  3 26 59.9990000  0  6G20G25G16G24G17G 3
 -13436031.419 8 -10469628.27929  20230163.849
  -5286939.141 5  -4119690.37023  23690966.189
 -14847866.286 7 -11569752.20426  21536814.672
   8636114.539 7   6729439.57226  22206752.194
   -903654.302 5   -704145.62021  23514018.486
  -9212681.366 7  -7178693.81024  22125924.234
 92  5  8  3 27 29.9990000  0  6G20G25G16G24G17G 3
 -13432432.995 8 -10466824.30829  20230848.875
  -5286087.233 5  -4119026.57023  23691129.279
 -14876239.297 8 -11591861.00026  21531416.308
   8713161.138 7   6789475.87626  22221416.537
  -1005234.347 4   -783298.80322  23494684.273
  -9274647.822 7  -7226979.29825  22114133.104
 92  5  8  3 27 59.9990000  0  6G20G25G16G24G17G 3
 -13428236.088 8 -10463553.98429  20231644.518
  -5284688.516 5  -4117936.66223  23691396.093
 -14904051.146 8 -11613532.52226  21526121.982
   8790376.366 7   6849643.58626  22236106.060
  -1106620.226 5   -862300.62922  23475383.024
  -9336485.160 7  -7275164.16624  22102367.452
 92  5  8  3 28 29.9990000  0  6G20G25G16G24G17G 3
 -13423433.184 8 -10459811.46129  20232557.984
  -5282728.676 5  -4116409.55222  23691764.834
 -14931292.603 8 -11634759.59925  21520940.070
   8867767.368 7   6909948.25026  22250835.772
  -1207801.570 5   -941143.10922  23456141.750
  -9398186.326 7  -7323242.93824  22090622.478
 92  5  8  3 28 59.9990000  0  6G20G25G16G24G17G 3
 -13418037.925 8 -10455607.36629  20233587.477
  -5280224.121 5  -4114457.99624  23692243.004
 -14957964.467 8 -11655542.83826  21515862.772
   8945328.971 7   6970385.85725  22265595.742
  -1308793.353 5  -1019837.91021  23436925.047
  -9459765.220 7  -7371226.44325  22078907.484
 92  5  8  3 29 29.9990000  0  6G20G25G16G24G17G 3
 -13412046.180 8 -10450938.47729  20234725.790
  -5277160.971 5  -4112071.15522  23692825.789
 -14984047.572 8 -11675867.29425  21510896.422
   9023059.584 7   7030955.15625  22280387.209
  -1409578.720 5  -1098371.78822  23417738.934
  -9521217.896 7  -7419111.60025  22067212.296
 92  5  8  3 29 59.9990000  0  6G20G25G16G24G17G 3
 -13405462.473 8 -10445808.31629  20235978.925
  -5273525.873 5  -4109238.69222  23693522.524
 -15009545.903 8 -11695736.06926  21506046.675
   9100955.544 7   7091653.30326  22295207.156
  -1510146.092 5  -1176735.84722  23398600.478
  -9582548.556 7  -7466901.65525  22055540.159
 92  5  8  3 30 29.9990000  0  6G20G25G16G24G17G 3
 -13398286.436 8 -10440216.59829  20237343.881
  -5269310.991 6  -4105954.37922  23694322.355
 -15034462.940 8 -11715151.92226  21501306.062
   9179014.665 7   7152478.57325  22310064.568
  -1610492.579 5  -1254927.82822  23379509.102
  -9643756.980 7  -7514596.47426  22043893.238
 92  5  8  3 30 59.9990000  0  6G20G25G16G24G17G 3
 -13390510.252 8 -10434157.23629  20238823.659
  -5264511.725 6  -4102214.74322  23695235.228
 -15058786.694 8 -11734105.46426  21496679.364
   9257236.468 7   7213430.61625  22324950.162
  -1710607.504 4  -1332939.37121  23360457.286
  -9704834.890 7  -7562189.61023  22032269.683
 92  5  8  3 31 29.9990000  0  6G20G25G16G24G17G 3
 -13382139.923 8 -10427634.90329  20240417.946
  -5259142.620 6  -4098030.99622  23696258.125
 -15082543.217 8 -11752616.99226  21492157.890
   9335608.918 7   7274500.06225  22339866.329
  -1810501.071 4  -1410778.35222  23341443.563
  -9765788.663 7  -7609685.99624  22020672.809
 92  5  8  3 31 59.9990000  0  6G20G25G16G24G17G 3
 -13373173.467 8 -10420648.05629  20242124.368
  -5253217.648 6  -4093414.16322  23697388.341
 -15105740.275 8 -11770692.57026  21487742.549
   9414142.355 7   7335694.91925  22354811.289
  -1910175.574 4  -1488446.69022  23322468.196
  -9826616.484 7  -7657084.23324  22009096.021
 92  5  8  3 32 29.9990000  0  6G20G25G16G24G17G 3
 -13363615.925 8 -10413200.62029  20243942.314
  -5246750.394 6  -4088374.81621  23698615.388
 -15128379.083 8 -11788333.16227  21483434.823
   9492835.846 7   7397014.48925  22369783.226
  -2009648.693 4  -1565957.95023  23303555.179
  -9887322.929 7  -7704387.88924  21997545.023
 92  5  8  3 32 59.9990000  0  6G20G25G16G24G17G 3
 -13353463.215 8 -10405289.41629  20245876.863
  -5239748.970 6  -4082919.24722  23699950.958
 -15150444.717 7 -11805527.11927  21479235.026
   9571697.520 7   7458465.13725  22384786.941
  -2108921.137 5  -1643312.99822  23284657.466
  -9947904.030 7  -7751593.90325  21986014.705
 92  5  8  3 33 29.9990000  0  6G20G25G16G24G17G 3
 -13342708.920 8 -10396909.45329  20247920.859
  -5232212.017 6  -4077046.23021  23701380.078
 -15171931.077 7 -11822269.69026  21475145.568
   9650752.161 7   7520066.15125  22399833.513
  -2207981.691 5  -1720502.90222  23265806.519
 -10008353.272 7  -7798697.15724  21974512.254
 92  5  8  3 33 59.9990000  0  6G20G25G16G24G17G 3
 -13331357.880 8 -10388064.49029  20250082.051
  -5224125.878 6  -4070745.41122  23702923.114
 -15192829.795 7 -11838554.34626  21471170.914
   9729996.071 7   7581814.61025  22414916.068
  -2306828.766 5  -1797526.42422  23246996.040
 -10068674.466 8  -7845700.62425  21963035.612
 92  5  8  3 34 29.9990000  0  6G20G25G16G24G17G 3
 -13319410.389 8 -10378754.75929  20252354.488
  -5215487.370 6  -4064014.11822  23704565.074
 -15213131.556 7 -11854373.87327  21467304.487
   9809415.780 7   7643700.06826  22430027.119
  -2405459.049 5  -1874381.04522  23228228.435
 -10128868.078 7  -7892604.66325  21951578.445
 92  5  8  3 34 59.9990000  0  6G20G25G16G24G17G 3
 -13306863.253 8 -10368977.76529  20254743.231
  -5206305.018 5  -4056859.13822  23706313.761
 -15232828.627 8 -11869722.18726  21463555.587
   9888998.484 7   7705712.52725  22445170.540
  -2503854.868 5  -1951052.97022  23209504.596
 -10188930.930 8  -7939406.82625  21940151.554
 92  5  8  3 35 29.9990000  0  6G20G25G16G24G17G 3
 -13293712.727 8 -10358730.61229  20257243.795
  -5196565.050 5  -4049269.55322  23708163.187
 -15251925.951 8 -11884603.16726  21459925.697
   9968733.632 7   7767843.79225  22460343.923
  -2602007.214 5  -2027535.18223  23190825.726
 -10248858.933 8  -7986103.92425  21928747.139
 92  5  8  3 35 59.9990000  0  6G20G25G16G24G17G 3
 -13279968.168 8 -10348020.56529  20259862.183
  -5186268.004 5  -4041245.89622  23710126.529
 -15270438.979 8 -11899028.85026  21456401.347
  10048591.389 7   7830070.58826  22475541.615
  -2699940.218 5  -2103846.47622  23172190.324
 -10308661.136 8  -8032703.00225  21917364.920
 92  5  8  3 36 29.9990000  0  6G20G25G16G24G17G 3
 -13265638.180 8 -10336854.34929  20262586.109
  -5175442.116 5  -4032810.19722  23712183.089
 -15288385.490 8 -11913013.11527  21452985.205
  10128560.401 7   7892384.06425  22490757.280
  -2797663.238 6  -2179994.12422  23153594.500
 -10368346.122 7  -8079210.71225  21906007.882
 92  5  8  3 36 59.9990000  0  6G20G25G16G24G17G 3
 -13250715.349 8 -10325226.16629  20265426.342
  -5164071.388 5  -4023949.88621  23714350.301
 -15305757.562 8 -11926549.74726  21449678.493
  10208664.369 7   7954802.72126  22505999.626
  -2895175.039 6  -2255977.24822  23135039.753
 -10427905.523 8  -8125620.58526  21894673.931
 92  5  8  3 37 29.9990000  0  6G20G25G16G24G17G 3
 -13235197.066 8 -10313133.99929  20268379.599
  -5152140.294 5  -4014653.01622  23716616.736
 -15322560.624 8 -11939642.99425  21446482.102
  10288920.768 7   8017340.12925  22521272.842
  -2992483.487 6  -2331801.84323  23116520.674
 -10487336.718 7  -8171930.56526  21883363.956
 92  5  8  3 37 59.9990000  0  6G20G25G16G24G17G 3
 -13219075.025 8 -10300571.37229  20271446.772
  -5139651.045 5  -4004921.12123  23718994.084
 -15338772.031 8 -11952275.22325  21443399.347
  10369348.783 7   8080011.28925  22536574.257
  -3089574.694 6  -2407457.20423  23098045.361
 -10546630.280 7  -8218133.30326  21872079.773
 92  5  8  3 38 29.9990000  0  6G20G25G16G24G17G 3
 -13202358.488 8 -10287545.50029  20274632.065
  -5126625.287 5  -3994771.26522  23721476.063
 -15354379.983 8 -11964437.23526  21440426.301
  10449935.749 7   8142806.28425  22551908.636
  -3186437.280 6  -2482934.42524  23079612.609
 -10605795.388 7  -8264235.92725  21860821.660
 92  5  8  3 38 59.9990000  0  6G20G25G16G24G17G 3
 -13185048.846 8 -10274057.46929  20277919.895
  -5113057.600 5  -3984199.04924  23724055.781
 -15369380.706 8 -11976126.04227  21437573.173
  10530671.732 7   8205717.43325  22567273.902
  -3283075.759 6  -2558236.97124  23061222.156
 -10664833.377 7  -8310239.51525  21849587.541
 92  5  8  3 39 29.9990000  0  6G20G25G16G24G17G 3
 -13167146.938 8 -10260107.93429  20281327.923
  -5098956.673 5  -3973211.33823  23726735.018
 -15383777.466 8 -11987344.25626  21434834.867
  10611534.415 7   8268727.30026  22582664.348
  -3379483.484 6  -2633359.75023  23042878.452
 -10723744.350 7  -8356144.13426  21838377.713
 92  5  8  3 39 59.9990000  0  6G20G25G16G24G17G 3
 -13148645.010 8 -10245690.85129  20284849.289
  -5084322.220 5  -3961807.89124  23729525.499
 -15397554.602 7 -11998079.63926  21432211.087
  10692512.218 7   8331826.85026  22598074.880
  -3475653.082 6  -2708296.98423  23024574.622
 -10782519.612 7  -8401942.99126  21827190.344
 92  5  8  3 40 29.9990000  0  6G20G25G16G24G17G 3
 -13129555.905 8 -10230816.22529  20288482.477
  -5069171.816 6  -3950002.45224  23732401.400
 -15410738.025 8 -12008352.40027  21429704.224
  10773589.265 7   8395003.74525  22613500.401
  -3571609.610 6  -2783068.18624  23006316.354
 -10841171.514 7  -8447645.73825  21816029.970
 92  5  8  3 40 59.9990000  0  6G20G25G16G24G17G 3
 -13109875.948 8 -10215481.19729  20292228.690
  -5053494.981 6  -3937786.76522  23735395.735
 -15423339.854 8 -12018171.95826  21427303.493
  10854784.375 7   8458272.64524  22628951.696
  -3667363.509 6  -2857681.49425  22988093.476
 -10899695.713 7  -8493248.95925  21804895.981
 92  5  8  3 41 29.9990000  0  6G20G25G16G24G17G 3
 -13089601.618 8 -10199683.02329  20296085.205
  -5037292.253 6  -3925161.28223  23738467.706
 -15435354.186 8 -12027533.74525  21425019.364
  10936101.154 7   8521636.35025  22644427.893
  -3762899.213 6  -2932124.78723  22969914.066
 -10958088.244 7  -8538749.57625  21793784.781
 92  5  8  3 41 59.9990000  0  6G20G25G16G24G17G 3
 -13068744.938 8 -10183431.07829  20300055.671
  -5020577.120 6  -3912136.60023  23741653.296
 -15446796.998 8 -12036450.17826  21422841.367
  11017539.491 6   8585094.76926  22659920.860
  -3858218.789 6  -3006399.64423  22951774.216
 -11016360.192 7  -8584156.24525  21782696.058
 92  5  8  3 42 29.9990000  0  6G20G25G16G24G17G 3
 -13047296.234 8 -10166717.80329  20304137.643
  -5003336.907 6  -3898702.69921  23744935.124
 -15457662.029 8 -12044916.40627  21420774.598
  11099121.733 6   8648665.31825  22675443.212
  -3953295.993 6  -3080485.64423  22933676.944
 -11074501.292 7  -8629460.95925  21771631.015
 92  5  8  3 42 59.9990000  0  6G20G25G16G24G17G 3
 -13025253.625 8 -10149541.75129  20308331.436
  -4985556.760 6  -3884848.00422  23748320.972
 -15467940.497 8 -12052925.57027  21418817.556
  11180843.816 6   8712344.82625  22691003.344
  -4048115.121 6  -3154370.52323  22915636.630
 -11132508.985 8  -8674661.71424  21760591.152
 92  5  8  3 43 29.9990000  0  6G20G25G16G24G17G 3
 -13002621.938 8 -10131906.67129  20312638.552
  -4967254.363 6  -3870586.42922  23751800.667
 -15477645.393 8 -12060487.80026  21416972.946
  11262698.674 6   8776127.79125  22706572.760
  -4142673.473 6  -3228052.21723  22897644.583
 -11190387.048 8  -8719761.45325  21749578.284
 92  5  8  3 43 59.9990000  0  6G20G25G16G24G17G 3
 -12979398.273 8 -10113810.32029  20317055.394
  -4948432.221 6  -3855919.87623  23755383.494
 -15486773.478 8 -12067600.55126  21415234.433
  11344698.335 6   8840023.62326  22722180.270
  -4236983.899 5  -3301540.78123  22879696.318
 -11248132.199 8  -8764757.64226  21738591.488
 92  5  8  3 44 29.9990000  0  6G20G25G16G24G17G 3
 -12955581.818 8 -10095252.04929  20321589.152
  -4929091.938 6  -3840849.62621  23759065.542
 -15495315.915 8 -12074256.97526  21413609.260
  11426841.093 6   8904030.92825  22737807.551
  -4331056.404 5  -3374843.90923  22861796.007
 -11305742.517 8  -8809648.75925  21727626.277
 92  5  8  3 44 59.9990000  0  6G20G25G16G24G17G 3
 -12931180.741 8 -10076238.22529  20326229.636
  -4909248.483 6  -3825387.26422  23762838.436
 -15503271.438 8 -12080456.04727  21412091.126
  11509111.991 6   8968138.08825  22753466.608
  -4424907.804 6  -3447974.75424  22843936.477
 -11363225.257 7  -8854440.46925  21716687.154
 92  5  8  3 45 29.9990000  0  6G20G25G16G24G17G 3
 -12906201.613 8 -10056773.97329  20330984.349
  -4888915.470 6  -3809543.40322  23766710.552
 -15510639.765 8 -12086197.56026  21410691.688
  11591497.080 6   9032334.24025  22769142.453
  -4518544.604 6  -3520938.37823  22826121.305
 -11420585.882 7  -8899137.01925  21705773.212
 92  5  8  3 45 59.9990000  0  6G20G25G16G24G17G 3
 -12880633.241 8 -10036850.58329  20335852.088
  -4868073.234 5  -3793302.74821  23770680.093
 -15517387.744 8 -12091455.69426  21409407.684
  11673988.858 6   9096613.51325  22784841.978
  -4611947.294 6  -3593719.56524  22808346.007
 -11477812.815 8  -8943729.38526  21694882.653
 92  5  8  3 46 29.9990000  0  6G20G25G16G24G17G 3
 -12854478.055 8 -10016469.92829  20340828.331
  -4846719.105 5  -3776663.23022  23774737.792
 -15523512.637 8 -12096228.30127  21408239.985
  11756572.512 6   9160964.37925  22800559.808
  -4705111.711 6  -3666315.08024  22790616.883
 -11534907.415 8  -8988218.64225  21684017.572
 92  5  8  3 46 59.9990000  0  6G20G25G16G24G17G 3
 -12827734.788 8  -9995631.02829  20345918.507
  -4824857.177 5  -3759627.94622  23778898.604
 -15529017.753 8 -12100517.97726  21407194.612
  11839235.161 6   9225376.80325  22816286.014
  -4798034.384 6  -3738722.24423  22772937.230
 -11591867.358 8  -9032602.97126  21673178.579
 92  5  8  3 47 29.9990000  0  6G20G25G16G24G17G 3
 -12800403.896 8  -9974334.23429  20351120.505
  -4802489.155 4  -3742198.39923  23783154.765
 -15533906.551 8 -12104327.40526  21406265.545
  11921979.024 6   9289852.50425  22832032.619
  -4890718.634 6  -3810943.63622  22755295.932
 -11648691.757 8  -9076881.66925  21662365.953
 92  5  8  3 47 59.9990000  0  6G20G25G16G24G17G 3
 -12772487.073 8  -9952580.87229  20356431.339
  -4779618.505 5  -3724377.16222  23787512.241
 -15538190.933 8 -12107665.85126  21405447.112
  12004818.146 7   9354402.44424  22847801.089
  -4983163.752 6  -3882978.66224  22737706.514
 -11705381.731 8  -9121055.62126  21651575.820
 92  5  8  3 48 29.9990000  0  6G20G25G16G24G17G 3
 -12743981.662 8  -9930368.88429  20361856.385
  -4756246.811 5  -3706165.56722  23791962.972
 -15541888.145 8 -12110546.76527  21404742.612
  12087772.521 6   9419042.17825  22863580.065
  -5075376.163 6  -3954832.35625  22720156.970
 -11761933.395 8  -9165121.79626  21640816.871
 92  5  8  3 48 59.9990000  0  6G20G25G16G24G17G 3
 -12714886.919 8  -9907697.66529  20367393.251
  -4732367.098 5  -3687558.10021  23796494.636
 -15545004.074 8 -12112974.74426  21404151.120
  12170846.333 7   9483774.99725  22879394.133
  -5167341.409 6  -4026493.46225  22702650.283
 -11818344.345 8  -9209078.33026  21630081.008
 92  5  8  3 49 29.9990000  0  6G20G25G16G24G17G 3
 -12685206.220 8  -9884569.85129  20373040.439
  -4707965.819 5  -3668544.10222  23801146.201
 -15547540.438 8 -12114951.09927  21403669.040
  12254053.726 6   9548611.89724  22895226.768
  -5259055.397 6  -4097958.75926  22685205.353
 -11874617.136 8  -9252927.20826  21619373.014
 92  5  8  3 49 59.9990000  0  6G20G25G16G24G17G 3
 -12654936.229 8  -9860982.84629  20378798.853
  -4683032.928 5  -3649115.92223  23805882.626
 -15549494.180 8 -12116473.47626  21403298.205
  12337395.423 6   9613553.46124  22911082.786
  -5350494.412 6  -4169209.79126  22667803.001
 -11930747.431 8  -9296665.04126  21608692.311
 92  5  8  3 50 29.9990000  0  6G20G25G16G24G17G 3
 -12624078.580 8  -9836937.94229  20384672.091
  -4657569.377 5  -3629274.23022  23810736.265
 -15550857.329 8 -12117535.63326  21403039.192
  12420852.071 7   9678584.59524  22926968.190
  -5441660.278 6  -4240247.97525  22650453.122
 -11986735.604 8  -9340292.14826  21598036.789
 92  5  8  3 50 59.9990000  0  6G20G25G16G24G17G 3
 -12592641.082 8  -9812441.19929  20390654.147
  -4631571.453 5  -3609016.14422  23815683.140
 -15551620.371 8 -12118130.19927  21402892.889
  12504397.748 7   9743685.07824  22942865.879
  -5532555.410 6  -4311075.18626  22633156.291
 -12042588.133 8  -9383813.55126  21587406.448
 92  5  8  3 51 29.9990000  0  6G20G25G16G24G17G 3
 -12560616.458 8  -9787486.95529  20396750.119
  -4605041.769 5  -3588343.80021  23820725.363
 -15551770.625 8 -12118247.31226  21402864.410
  12588038.647 7   9808859.79823  22958779.763
  -5623169.770 6  -4381683.66025  22615918.827
 -12098296.348 8  -9427222.50025  21576808.181
 92  5  8  3 51 59.9990000  0  6G20G25G16G24G17G 3
 -12528018.794 8  -9762086.18329  20402952.537
  -4578012.032 5  -3567281.68622  23825867.087
 -15551319.699 8 -12117895.85827  21402952.237
  12671743.062 6   9874084.00622  22974705.634
  -5713518.084 6  -4452084.80124  22598726.628
 -12153873.011 8  -9470528.94826  21566233.000
 92  5  8  3 52 29.9990000  0  6G20G25G16G24G17G 3
 -12494843.795 8  -9736235.54929  20409265.852
  -4550483.833 5  -3545831.17222  23831117.055
 -15550266.590 7 -12117075.22727  21403148.308
  12755509.075 6   9939356.21423  22990648.607
  -5803612.851 6  -4522288.38825  22581575.804
 -12209312.250 8  -9513728.29826  21555681.516
 92  5  8  3 52 59.9990000  0  6G20G25G16G24G17G 3
 -12461084.901 8  -9709929.93829  20415691.318
  -4522455.403 5  -3523990.81621  23836448.567
 -15548605.347 8 -12115780.74026  21403465.483
  12839349.743 6  10004686.59725  23006604.458
  -5893444.163 6  -4592286.67825  22564488.830
 -12264606.690 8  -9556814.83927  21545161.199
 92  5  8  3 53 29.9990000  0  6G20G25G16G24G17G 3
 -12426741.704 8  -9683169.01929  20422224.680
  -4493946.260 5  -3501775.86622  23841870.315
 -15546335.629 8 -12114012.08826  21403896.591
  12923283.208 6  10070089.30124  23022577.096
  -5983014.251 5  -4662081.41625  22547437.541
 -12319754.487 8  -9599787.11226  21534665.155
 92  5  8  3 53 59.9990000  0  6G20G25G16G24G17G 3
 -12391813.680 8  -9655952.38829  20428871.084
  -4464954.247 5  -3479184.75722  23847385.596
 -15543454.134 8 -12111766.74926  21404446.709
  13007314.993 7  10135568.60325  23038570.133
  -6072339.159 5  -4731685.10425  22530439.302
 -12374753.229 8  -9642643.23626  21524199.404
 92  5  8  3 54 29.9990000  0  6G20G25G16G24G17G 3
 -12356309.535 8  -9628286.83129  20435626.308
  -4435484.586 5  -3456221.43022  23852997.115
 -15539971.072 8 -12109052.65027  21405112.243
  13091441.918 6  10201122.03625  23054572.454
  -6161428.382 5  -4801105.15725  22513486.031
 -12429610.660 8  -9685389.23026  21513761.225
 92  5  8  3 54 59.9990000  0  6G20G25G16G24G17G 3
 -12320227.084 8  -9600170.65729  20442494.260
  -4405543.651 5  -3432890.93922  23858694.367
 -15535884.035 8 -12105867.92926  21405886.910
  13175668.306 6  10266753.00323  23070606.551
  -6250267.457 5  -4870330.25624  22496583.140
 -12484323.080 8  -9728022.24227  21503350.337
 92  5  8  3 55 29.9990000  0  6G20G25G16G24G17G 3
 -12283568.088 8  -9571605.20928  20449470.420
  -4375138.773 5  -3409198.93822  23864475.572
 -15531192.877 8 -12102212.44026  21406779.087
  13259993.675 6  10332461.08125  23086651.137
  -6338855.491 6  -4939359.78322  22479727.311
 -12538890.551 8  -9770542.31526  21492968.226
 92  5  8  3 55 59.9990000  0  6G20G25G16G24G17G 3
 -12246335.565 8  -9542592.87128  20456555.715
  -4344283.379 5  -3385155.78722  23870349.995
 -15525917.899 8 -12098102.05326  21407780.695
  13344402.576 6  10398234.23225  23102710.432
  -6427182.933 6  -5008186.23925  22462913.747
 -12593314.424 8  -9812950.50726  21482610.405
 92  5  8  3 56 29.9990000  0  6G20G25G16G24G17G 3
 -12208524.258 8  -9513129.52629  20463748.939
  -4312975.044 5  -3360759.67622  23876309.873
 -15520058.258 8 -12093536.08127  21408899.830
  13428900.560 6  10464076.83223  23118793.094
  -6515225.248 6  -5076790.51625  22446159.845
 -12647587.903 8  -9855241.50227  21472282.249
 92  5  8  3 56 59.9990000  0  6G20G25G16G24G17G 3
 -12170145.217 8  -9483223.79829  20471052.483
  -4281223.876 5  -3336018.45122  23882349.795
 -15513612.699 8 -12088513.54226  21410124.783
  13513486.821 6  10529988.18623  23134892.839
  -6602987.271 5  -5145176.40924  22429460.807
 -12701720.307 8  -9897422.56127  21461979.885
 92  5  8  3 57 29.9990000  0  6G20G25G16G24G17G 3
 -12131197.228 8  -9452874.73529  20478465.755
  -4249009.862 4  -3310916.78022  23888478.747
 -15506567.299 8 -12083023.59027  21411466.356
  13598169.323 6  10595974.55624  23151003.090
  -6690470.962 6  -5213345.39624  22412814.835
 -12755708.815 8  -9939491.49627  21451706.296
 92  5  8  3 57 59.9990000  0  6G20G25G16G24G17G 3
 -12091681.109 8  -9422082.96129  20485983.954
  -4216309.358 5  -3285435.93321  23894701.844
 -15498928.336 8 -12077071.13427  21412922.140
  13682943.204 6  10662032.10224  23167133.425
  -6777678.134 5  -5281298.93124  22396220.114
 -12809552.660 8  -9981447.69927  21441462.983
 92  5  8  3 58 29.9990000  0  6G20G25G16G24G17G 3
 -12051594.258 8  -9390846.45929  20493611.863
  -4183093.718 5  -3259553.70122  23901023.273
 -15490671.966 8 -12070637.58526  21414492.153
  13767810.287 6  10728162.29625  23183282.939
  -6864617.018 6  -5349043.39824  22379676.366
 -12863247.702 8 -10023287.95926  21431243.350
 92  5  8  3 58 59.9990000  0  6G20G25G16G24G17G 3
 -12010939.832 8  -9359167.70429  20501349.220
  -4149366.839 5  -3233273.06322  23907445.721
 -15481796.456 8 -12063721.57726  21416178.490
  13852763.975 6  10794359.99625  23199448.960
  -6951304.964 6  -5416592.35323  22363175.195
 -12916795.035 8 -10065013.12726  21421052.214
 92  5  8  3 59 29.9990000  0  6G20G25G16G24G17G 3
 -11969720.412 8  -9327048.68429  20509193.285
  -4115135.616 5  -3206599.47021  23913956.013
 -15472325.841 8 -12056341.85226  21417984.134
  13937803.963 6  10860624.91725  23215630.547
  -7037744.493 6  -5483947.74124  22346725.591
 -12970195.765 8 -10106624.06526  21410890.149
 92  5  8  3 59 59.9990000  0  6G20G25G16G24G17G 3
 -11927937.206 8  -9294490.35929  20517144.372
  -4080426.680 5  -3179553.56721  23920560.746
 -15462272.639 8 -12048508.18226  21419898.615
  14022923.524 6  10926951.84925  23231826.548
  -7123933.634 6  -5551108.02622  22330326.330
 -13023449.004 8 -10148120.06327  21400756.860
 92  5  8  4  0 29.9990000  0  6G20G25G16G24G17G 3
 -11885595.198 8  -9261496.59629  20525200.701
  -4045265.736 5  -3152155.42822  23927255.103
 -15451636.183 8 -12040220.00927  21421919.821
  14108124.552 6  10993342.26624  23248042.320
  -7209871.160 6  -5618072.23822  22313969.054
 -13076558.149 8 -10189503.77527  21390652.364
 92  5  8  4  0 59.9990000  0  6G20G25G16G24G17G 3
 -11842693.367 8  -9228066.61329  20533365.239
  -4009663.149 4  -3124413.19821  23934032.820
 -15440427.497 8 -12031485.94726  21424053.739
  14193410.969 6  11059799.20025  23264273.081
  -7295536.000 6  -5684823.95123  22297674.739
 -13129520.100 8 -10230772.78826  21380570.937
 92  5  8  4  1 29.9990000  0  6G20G25G16G24G17G 3
 -11799231.722 8  -9194200.41129  20541637.724
  -3973619.998 4  -3096327.78821  23940882.170
 -15428644.419 8 -12022304.30426  21426293.788
  14278774.091 6  11126315.91225  23280511.032
  -7380919.493 6  -5751356.48923  22281425.096
 -13182333.304 8 -10271925.90627  21370520.990
 92  5  8  4  1 59.9990000  0  6G20G25G16G24G17G 3
 -11755206.044 8  -9159894.69828  20550014.823
  -3937127.393 4  -3067892.06621  23947828.962
 -15416263.093 8 -12012656.49626  21428652.848
  14364197.078 6  11192879.28025  23296766.992
  -7466014.560 6  -5817664.27624  22265233.004
 -13234991.392 8 -10312958.15126  21360500.726
 92  5  8  4  2 29.9990000  0  6G20G25G16G24G17G 3
 -11710622.872 8  -9125154.57329  20558500.149
  -3900174.459 4  -3039097.66022  23954856.706
 -15403278.488 8 -12002538.58427  21431121.949
  14449677.254 6  11259487.22124  23313037.628
  -7550816.531 6  -5883743.63923  22249097.573
 -13287498.535 8 -10353872.77626  21350510.442
 92  5  8  4  2 59.9990000  0  6G20G25G16G24G17G 3
 -11665483.613 8  -9089981.13729  20567086.197
  -3862761.308 5  -3009944.59621  23961981.857
 -15389690.774 8 -11991950.73727  21433707.059
  14535213.608 6  11326138.90723  23329309.450
  -7635333.203 6  -5949600.71124  22233012.800
 -13339855.091 8 -10394670.06227  21340548.950
 92  5  8  4  3 29.9990000  0  6G20G25G16G24G17G 3
 -11619796.231 8  -9054380.59429  20575783.787
  -3824895.896 5  -2980439.03222  23969186.476
 -15375501.508 8 -11980894.16527  21436409.086
  14620799.435 6  11392829.20924  23345608.267
  -7719582.782 6  -6015249.66724  22216977.498
 -13392066.414 8 -10435354.17227  21330611.121
 92  5  8  4  3 59.9990000  0  6G20G25G16G24G17G 3
 -11573558.512 8  -9018351.20629  20584577.894
  -3786572.408 5  -2950576.5712   23976483.424
 -15360705.669 8 -11969364.92526  21439222.044
  14706447.235 6  11459567.76024  23361902.286
  -7803550.198 7  -6080678.74624  22200999.468
 -13444128.279 8 -10475921.82426  21320704.789
 92  5  8  4  4 29.9990000  0  6G20G25G16G24G17G 3
 -11526771.713 8  -8981893.97329  20593484.136
  -3747801.768 5  -2920365.78922  23983862.213
 -15345310.397 8 -11957368.58226  21442152.808
  14792167.978 6  11526363.11524  23378221.188
  -7887242.881 7  -6145893.74824  22185072.096
 -13496039.928 9 -10516372.41327  21310826.622
 92  5  8  4  4 59.9990000  0  6G20G25G16G24G17G 3
 -11479429.500 8  -8945003.95629  20602492.584
  -3708593.434 5  -2889813.99821  23991321.658
 -15329320.003 7 -11944908.51926  21445195.096
  14877952.635 6  11593208.30124  23394541.592
  -7970667.938 7  -6210900.20322  22169193.288
 -13547793.024 8 -10556699.45127  21300978.731
 92  5  8  4  5 29.9990000  0  6G20G25G16G24G17G 3
 -11431539.353 8  -8907686.98329  20611605.681
  -3668954.922 5  -2858926.92022  23998866.225
 -15312740.739 7 -11931989.59127  21448349.816
  14963773.307 6  11660081.55723  23410861.699
  -8053816.900 7  -6275691.55624  22153374.438
 -13599392.609 8 -10596906.88126  21291157.836
 92  5  8  4  5 59.9990000  0  6G20G25G16G24G17G 3
 -11383092.664 8  -8869936.32629  20620826.393
  -3628885.883 5  -2827704.32222  24006486.054
 -15295564.484 7 -11918605.46626  21451616.951
  15049633.100 6  11726985.30223  23427205.782
  -8136673.846 7  -6340255.33724  22137608.359
 -13650828.239 8 -10636986.55626  21281370.515
 92  5  8  4  6 29.9990000  0  6G20G25G16G24G17G 3
 -11334099.574 8  -8831759.90629  20630147.846
  -3588396.343 5  -2796154.16023  24014195.212
 -15277810.949 7 -11904771.50726  21454993.516
  15135520.029 6  11793910.20623  23443547.475
  -8219251.350 7  -6404601.35725  22121892.326
 -13702108.381 8 -10676945.06527  21271612.563
 92  5  8  4  6 59.9990000  0  6G20G25G16G24G17G 3
 -11284568.256 8  -8793164.08229  20639573.616
  -3547482.106 4  -2764272.99721  24021973.035
 -15259490.886 8 -11890496.12326  21458481.011
  15221425.978 6  11860849.88023  23459893.949
  -8301543.917 7  -6468725.35824  22106234.769
 -13753238.132 9 -10716786.37627  21261883.700
 92  5  8  4  7 29.9990000  0  6G20G25G16G24G17G 3
 -11234490.011 8  -8754142.09929  20649102.220
  -3506125.572 4  -2732047.13522  24029853.082
 -15240588.033 8 -11875766.61226  21462080.311
  15307380.863 6  11927827.75922  23476254.522
  -8383529.908 7  -6532610.48424  22090633.280
 -13804206.734 9 -10756502.12527  21252182.426
 92  5  8  4  7 59.9990000  0  6G20G25G16G24G17G 3
 -11183866.374 8  -8714695.12429  20658735.159
  -3464323.501 4  -2699474.08821  24037806.281
 -15221108.318 8 -11860587.57626  21465786.039
  15393411.294 6  11994864.46622  23492629.789
  -8465221.427 7  -6596266.15922  22075087.841
 -13855013.632 9 -10796091.86327  21242513.522
 92  5  8  4  8 29.9990000  0  6G20G25G16G24G17G 3
 -11132701.158 8  -8674826.13728  20668475.417
  -3422071.956 3  -2666550.90824  24045835.021
 -15201049.420 8 -11844957.24627  21469601.808
  15479523.784 6  12061965.15823  23509009.855
  -8546625.102 7  -6659697.50923  22059596.951
 -13905660.466 9 -10835556.88527  21232876.988
 92  5  8  4  8 59.9990000  0  6G20G25G16G24G17G 3
 -11080997.695 8  -8634537.72729  20678311.005
  -3379387.667 4  -2633290.59521  24053964.781
 -15180405.946 8 -11828871.40326  21473529.992
  15565714.161 6  12129126.48921  23525419.586
  -8627742.587 7  -6722905.87523  22044162.443
 -13956148.063 9 -10874897.82027  21223269.230
 92  5  8  4  9 29.9990000  0  6G20G25G16G24G17G 3
 -11028750.674 8  -8593825.77729  20688254.523
  -3336288.892 4  -2599707.18323  24062165.912
 -15159166.427 7 -11812321.10926  21477572.684
  15651986.366 6  12196351.59322  23541832.336
  -8708561.665 6  -6785881.70525  22028780.686
 -14006468.628 9 -10914108.60127  21213694.173
 92  5  8  4  9 59.9990000  0  6G20G25G16G24G17G 3
 -10975967.678 8  -8552696.18329  20698297.560
  -3292785.349 4  -2565808.41321  24070443.476
 -15137348.240 7 -11795319.89227  21481723.916
  15738324.927 6  12263628.44322  23558263.356
  -8789086.583 6  -6848628.29924  22013457.999
 -14056627.518 8 -10953193.40427  21204148.782
 92  5  8  4 10 29.9990000  0  6G20G25G16G24G17G 3
 -10922651.611 8  -8511151.21429  20708442.244
  -3248889.443 4  -2531603.84621  24078791.799
 -15114953.169 7 -11777869.17726  21485989.360
  15824705.424 6  12330937.90022  23574697.971
  -8869320.374 7  -6911148.04923  21998190.769
 -14106625.315 9 -10992152.67327  21194635.464
 92  5  8  4 10 59.9990000  0  6G20G25G16G24G17G 3
 -10868799.588 8  -8469188.61228  20718691.542
  -3204602.757 3  -2497094.78821  24087221.668
 -15091978.456 7 -11759966.77926  21490360.029
  15911125.389 6  12398278.14923  23591137.403
  -8949251.207 6  -6973431.74124  21982981.997
 -14156456.798 9 -11030982.35426  21185152.719
 92  5  8  4 11 29.9990000  0  6G20G25G16G24G17G 3
 -10814422.977 8  -8426817.23628  20729040.080
  -3159913.379 4  -2462272.02821  24095730.080
 -15068443.824 8 -11741628.06427  21494835.643
  15997574.121 6  12465640.84222  23607591.213
  -9028905.801 6  -7035500.18025  21967821.195
 -14206130.156 9 -11069688.81327  21175699.674
 92  5  8  4 11 59.9990000  0  6G20G25G16G24G17G 3
 -10759516.946 8  -8384033.31727  20739487.857
  -3114794.928 3  -2427114.85121  24104317.332
 -15044338.676 8 -11722844.83027  21499426.656
  16084061.820 6  12533033.82422  23624047.711
  -9108297.639 6  -7097363.89425  21952712.849
 -14255638.588 9 -11108266.78227  21166278.982
 92  5  8  4 12 29.9990000  0  5G20G16G24G17G 3
 -10704086.998 8  -8340841.15728  20750033.651
 -15019652.105 8 -11703608.52927  21504122.300
  16170586.387 6  12600455.53522  23640517.104
  -9187431.496 6  -7159026.55425  21937655.771
 -14304985.005 8 -11146718.48527  21156888.584
 92  5  8  4 12 59.9990000  0  5G20G16G24G17G 3
 -10648132.910 8  -8297240.57228  20760681.984
 -14994387.273 7 -11683921.61426  21508931.877
  16257161.269 5  12667916.58423  23656981.105
  -9266294.577 7  -7220478.23125  21922648.462
 -14354166.988 9 -11185042.07326  21147529.369
 92  5  8  4 13 29.9990000  0  6G20G25G16G24G17G 3
 -10591653.754 8  -8253230.86528  20771431.039
     26323.04415     20509.67722  24130548.569
 -14968547.350 7 -11663786.59027  21513846.678
  16343785.324 6  12735415.80123  23673473.899
  -9344888.765 6  -7281720.38124  21907692.421
 -14403180.705 9 -11223234.53327  21138202.228
 92  5  8  4 13 59.9990000  0  6G20G25G16G24G17G 3
 -10534649.946 8  -8208812.32828  20782279.629
     73092.775 5     56953.49023  24139449.699
 -14942120.077 7 -11643193.89126  21518876.599
  16430464.142 6  12802957.72122  23689969.084
  -9423185.637 6  -7342730.86625  21892792.727
 -14452024.100 9 -11261294.27727  21128908.957
 92  5  8  4 14 29.9990000  0  6G20G25G16G24G17G 3
 -10477131.651 8  -8163992.88428  20793224.458
    120237.612 6     93689.72622  24148423.089
 -14915129.136 8 -11622161.96426  21524010.244
  16517182.026 6  12870530.11523  23706467.846
  -9501178.898 6  -7403504.74825  21877953.010
 -14500704.509 8 -11299227.02028  21119645.980
 92  5  8  4 14 59.9990000  0  6G20G25G16G24G17G 3
 -10419092.467 8  -8118767.54627  20804268.213
    167758.475 6    130718.87022  24157467.537
 -14887571.926 8 -11600688.78826  21529255.413
  16603939.313 6  12938133.20425  23722972.035
  -9578864.878 6  -7464039.19026  21863166.341
 -14549212.906 8 -11337025.73127  21110413.262
 92  5  8  4 15 29.9990000  0  6G20G25G16G24G17G 3
 -10360527.720 8  -8073132.70128  20815413.283
    215670.333 5    168052.77922  24166580.617
 -14859437.399 7 -11578765.77326  21534611.198
  16690742.767 6  13005772.21824  23739496.885
  -9656242.699 7  -7524333.51224  21848443.540
 -14597542.007 9 -11374684.73827  21101217.730
 92  5  8  4 15 59.9990000  0  6G20G25G16G24G17G 3
 -10301451.121 8  -8027099.00428  20826652.811
    263961.470 6    205682.13221  24175774.665
 -14830734.404 7 -11556399.79426  21540073.413
  16777583.838 6  13073440.62224  23756024.754
  -9733321.092 6  -7584394.52124  21833774.084
 -14645702.681 9 -11412212.50427  21092053.068
 92  5  8  4 16 29.9990000  0  6G20G25G16G24G17G 3
 -10241862.907 8  -7980666.63628  20837996.063
    312624.230 6    243601.09123  24185037.642
 -14801456.164 7 -11533585.56026  21545643.261
  16864453.577 6  13141131.32623  23772547.510
  -9810104.827 7  -7644225.91924  21819165.198
 -14693692.806 9 -11449607.36828  21082920.793
 92  5  8  4 16 59.9990000  0  6G20G25G16G24G17G 3
 -10181763.274 8  -7933835.76428  20849430.144
    361670.890 6    281819.10822  24194369.582
 -14771588.671 7 -11510312.16227  21551327.320
  16951360.976 6  13208851.34723  23789095.447
  -9886585.861 7  -7703821.47525  21804609.082
 -14741509.685 9 -11486867.23228  21073821.796
 92  5  8  4 17 29.9990000  0  6G20G25G16G24G17G 3
 -10121161.877 8  -7886613.92828  20860963.150
    411105.571 6    320339.59922  24203771.376
 -14741143.619 7 -11486588.73927  21557119.013
  17038292.577 6  13276590.22224  23805635.601
  -9962768.940 7  -7763184.84324  21790115.018
 -14789160.437 9 -11523997.65828  21064752.778
 92  5  8  4 17 59.9990000  0  6G20G25G16G24G17G 3
 -10060054.414 8  -7838997.74327  20872590.614
    460920.176 5    359156.08121  24213247.821
 -14710116.040 7 -11462411.39426  21563025.528
  17125235.873 6  13344338.23423  23822177.553
 -10038652.694 7  -7822314.95525  21775672.520
 -14836637.216 9 -11560992.53228  21055718.521
 92  5  8  4 18 29.9990000  0  6G20G25G16G24G17G 3
  -9998441.933 8  -7790988.03527  20884315.188
    511115.942 6    398269.74422  24222807.295
 -14678507.751 7 -11437781.53626  21569038.768
  17212181.691 6  13412088.20723  23838725.489
 -10114245.567 7  -7881218.39925  21761288.777
 -14883938.607 8 -11597850.72428  21046715.465
 92  5  8  4 18 59.9990000  0  6G20G25G16G24G17G 3
  -9936327.103 8  -7742586.87727  20896134.500
    561689.688 6    437677.73621  24232427.635
 -14646333.000 8 -11412710.28127  21575164.719
  17299124.684 6  13479835.94525  23855272.240
 -10189558.332 7  -7939903.61825  21746956.302
 -14931064.265 8 -11634571.98428  21037748.078
 92  5  8  4 19 29.9990000  0  6G20G25G16G24G17G 3
  -9873712.750 8  -7693796.50828  20908049.753
    612624.621 5    477367.23322  24242120.829
 -14613595.648 8 -11387200.64727  21581388.723
  17386062.960 6  13547580.04923  23871811.486
 -10264598.918 7  -7998376.72725  21732676.579
 -14978014.270 8 -11671156.36728  21028814.561
 92  5  8  4 19 59.9990000  0  6G20G25G16G24G17G 3
  -9810601.880 8  -7644619.22427  20920059.743
    663905.836 5    517326.47623  24251884.470
 -14580292.058 7 -11361249.77927  21587731.424
  17473020.943 6  13615339.49323  23888367.520
 -10339357.841 7  -8056630.36325  21718449.033
 -15024788.599 8 -11707603.86428  21019914.618
 92  5  8  4 20 29.9990000  0  6G20G25G16G24G17G 3
  -9746997.178 8  -7595057.12528  20932164.471
    715536.352 4    557557.97722  24261687.985
 -14546436.070 8 -11334868.47827  21594172.159
  17560022.052 5  13683132.54622  23904915.771
 -10413822.736 7  -8114654.86624  21704279.334
 -15071387.168 9 -11743914.39627  21011047.063
 92  5  8  4 20 59.9990000  0  6G20G25G16G24G17G 3
  -9682899.560 8  -7545110.93027  20944363.918
    767518.818 4    598063.65622  24271591.926
 -14512039.311 7 -11308065.80426  21600718.138
  17647087.629 6  13750975.80123  23921492.500
 -10487977.597 7  -8172437.83525  21690170.501
 -15117808.052 8 -11780086.47028  21002211.878
 92  5  8  4 21 29.9990000  0  6G20G25G16G24G17G 3
  -9618313.946 8  -7494784.50328  20956652.414
    819860.589 4    638849.32323  24281549.840
 -14477116.195 7 -11280852.96426  21607363.041
  17734227.295 5  13818876.85223  23938064.431
 -10561814.877 7  -8229973.32925  21676116.236
 -15164053.109 9 -11816121.55628  20993412.065
 92  5  8  4 21 59.9990000  0  6G20G25G16G24G17G 3
  -9553237.449 8  -7444075.57428  20969034.442
    872574.039 3    679924.74322  24291590.783
 -14441674.509 7 -11253236.04327  21614106.869
  17821423.159 6  13886821.62322  23954659.431
 -10635318.858 7  -8287249.08325  21662128.525
 -15210116.181 8 -11852014.82428  20984647.937
 92  5  8  4 22 29.9990000  0  5G20G16G24G17G 3
  -9487676.183 8  -7392988.88927  20981512.098
 -14405716.879 7 -11225217.12126  21620948.437
  17908634.093 6  13954778.15723  23971258.637
 -10708493.868 7  -8344268.51025  21648207.055
 -15256000.613 8 -11887768.90328  20975913.772
 92  5  8  4 22 59.9990000  0  5G20G16G24G17G 3
  -9421624.936 8  -7341520.40228  20994079.100
 -14369212.077 7 -11196771.81526  21627895.822
  17995851.378 5  14022739.65924  23987849.763
 -10781332.899 7  -8401026.12926  21634344.358
 -15301698.070 8 -11923377.28628  20967219.201
 92  5  8  4 23 29.9990000  0  5G20G16G24G17G 3
  -9355093.204 8  -7289677.50828  21006740.541
 -14332144.562 7 -11167888.02126  21634950.230
  18083046.535 5  14090683.90023  24004443.873
 -10853842.860 7  -8457527.32525  21620547.902
 -15347214.444 8 -11958844.55628  20958557.297
 92  5  8  4 23 59.9990000  0  5G20G16G24G17G 3
  -9288085.826 8  -7237463.97728  21019491.311
 -14294502.585 7 -11138556.59427  21642116.476
  18170205.176 5  14158599.69121  24021030.793
 -10926033.907 7  -8513780.03024  21606809.311
 -15392552.186 9 -11994172.63928  20949931.672
 92  5  8  4 24 29.9990000  0  5G20G16G24G17G 3
  -9220600.331 8  -7184877.90328  21032334.113
 -14256278.132 7 -11108771.30726  21649387.947
  18257364.568 6  14226516.12922  24037622.495
 -10997918.452 7  -8569793.90826  21593131.586
 -15437705.414 9 -12029356.93728  20941339.010
 92  5  8  4 24 59.9990000  0  5G20G16G24G17G 3
  -9152644.265 8  -7131925.13828  21045267.464
 -14217497.456 8 -11078552.57827  21656769.127
  18344541.461 5  14294446.14322  24054207.618
 -11069516.104 7  -8625584.23325  21579501.814
 -15482678.314 8 -12064400.72128  20932780.236
 92  5  8  4 25 29.9990000  0  5G20G16G24G17G 3
  -9084210.533 8  -7078600.18028  21058287.455
 -14178178.942 8 -11047914.75627  21664248.953
  18431756.331 5  14362405.81422  24070799.635
 -11140819.729 7  -8681145.46826  21565935.317
 -15527461.001 8 -12099296.28827  20924258.335
 92  5  8  4 25 59.9990000  0  5G20G16G24G17G 3
  -9015307.400 8  -7024909.44827  21071400.072
 -14138348.194 8 -11016877.80327  21671828.298
  18519010.913 5  14430396.39722  24087408.141
 -11211844.772 7  -8736489.61024  21552418.570
 -15572058.599 8 -12134047.63628  20915771.509
 92  5  8  4 26 29.9990000  0  5G20G16G24G17G 3
  -8945934.528 8  -6970852.69128  21084601.127
 -14098002.031 8 -10985439.21826  21679506.883
  18606307.508 5  14498419.69222  24104023.540
 -11282586.725 7  -8791613.15925  21538959.688
 -15616467.168 8 -12168651.70129  20907320.072
 92  5  8  4 26 59.9990000  0  6G20G25G16G24G17G 3
  -8876088.828 7  -6916427.49928  21097891.527
     25268.87915     19686.92621  24395462.873
 -14057142.934 8 -10953600.95326  21687284.707
  18693621.871 5  14566456.86321  24120636.235
 -11353028.928 7  -8846503.13026  21525557.170
 -15660680.316 8 -12203103.49128  20898906.380
 92  5  8  4 27 29.9990000  0  5G20G16G24G17G 3
  -8805774.252 7  -6861636.94728  21111271.569
 -14015760.364 7 -10921354.77227  21695156.064
  18780945.670 5  14634501.47423  24137248.039
 -11423166.900 7  -8901156.03226  21512207.405
 -15704698.859 8 -12237403.62528  20890532.579
 92  5  8  4 27 59.9990000  0  5G20G16G24G17G 3
  -8734995.488 8  -6806484.69728  21124741.845
 -13973833.482 7 -10888684.48426  21703134.129
  18868264.567 5  14702542.10721  24153865.533
 -11493015.105 7  -8955583.16226  21498916.412
 -15748524.064 9 -12271553.11428  20882191.759
 92  5  8  4 28 29.9990000  0  5G20G16G24G17G 3
  -8663760.055 8  -6750976.59028  21138296.668
 -13931366.678 8 -10855593.46326  21711216.546
  18955576.396 5  14770577.24223  24170488.122
 -11562566.546 7  -9009779.02125  21485678.781
 -15792160.526 9 -12305555.51727  20873887.514
 92  5  8  4 28 59.9990000  0  5G20G16G24G17G 3
  -8592066.932 8  -6695111.84228  21151938.725
 -13888363.332 7 -10822084.35226  21719399.075
  19042901.972 6  14838623.31523  24187103.818
 -11631800.673 7  -9063727.63426  21472505.594
 -15835603.736 8 -12339407.33928  20865619.531
 92  5  8  4 29 29.9990000  0  5G20G16G24G17G 3
  -8519916.650 8  -6638890.88227  21165667.405
 -13844803.018 7 -10788141.23426  21727688.033
  19130266.857 6  14906699.79822  24203729.408
 -11700714.693 7  -9117426.82525  21459392.977
 -15878850.761 8 -12373106.28028  20857391.125
 92  5  8  4 29 59.9990000  0  5G20G16G24G17G 3
  -8447312.535 8  -6582316.27227  21179486.354
 -13800692.115 8 -10753769.10426  21736084.014
  19217656.864 6  14974795.82421  24220360.390
 -11769298.050 7  -9170868.35425  21446339.115
 -15921901.515 8 -12406652.29928  20849197.794
 92  5  8  4 30 29.9990000  0  5G20G16G24G17G 3
  -8374257.062 8  -6525389.94627  21193388.925
 -13756054.955 8 -10718986.89426  21744573.841
  19305058.605 5  15042901.09722  24236985.090
 -11837533.284 7  -9224038.61926  21433356.293
 -15964755.325 8 -12440044.85327  20841043.744
 92  5  8  4 30 59.9990000  0  5G20G16G24G17G 3
  -8300755.308 8  -6468115.85927  21207374.839
 -13710884.729 7 -10683789.29627  21753173.989
  19392452.695 6  15111000.37721  24253622.372
 -11905441.409 7  -9276953.97325  21420431.946
 -16007413.209 8 -12473284.72328  20832927.473
 92  5  8  4 31 29.9990000  0  5G20G16G24G17G 3
  -8226811.839 8  -6410497.57927  21221445.891
 -13665193.810 7 -10648185.98527  21761866.466
  19479812.812 6  15179073.16923  24270242.553
 -11973045.786 7  -9329632.64525  21407569.652
 -16049876.966 8 -12506373.34329  20824845.666
 92  5  8  4 31 59.9990000  0  5G20G16G24G17G 3
  -8152421.010 8  -6352530.73027  21235602.695
 -13618990.054 7 -10612183.03926  21770657.589
  19567124.832 6  15247108.49623  24286860.657
 -12040344.481 7  -9382073.14325  21394764.613
 -16092137.351 9 -12539303.49229  20816804.030
 92  5  8  4 32 29.9990000  0  5G20G16G24G17G 3
  -8077589.936 8  -6294220.83328  21249841.636
 -13572280.360 8 -10575785.84826  21779546.730
  19654403.191 6  15315117.60622  24303470.054
 -12107356.461 7  -9434290.22125  21382011.435
 -16134197.974 8 -12572077.96929  20808799.563
 92  5  8  4 32 59.9990000  0  5G20G16G24G17G 3
  -8002319.750 8  -6235568.77427  21264166.328
 -13525062.543 8 -10538992.74027  21788535.110
  19741669.636 6  15383117.42922  24320075.262
 -12174092.114 7  -9486291.97525  21369308.636
 -16176056.385 8 -12604694.87828  20800833.486
 92  5  8  4 33 29.9990000  0  6G20G16G23G24G17G 3
  -7926608.025 8  -6176572.64328  21278571.046
 -13477350.117 8 -10501814.21926  21797611.335
    -64104.745 5    -49952.10522  24552267.824
  19828947.739 6  15451126.25424  24336684.362
 -12240526.862 7  -9538059.25125  21356667.280
 -16217706.453 9 -12637149.42927  20792909.063
 92  5  8  4 33 59.9990000  0  6G20G16G23G24G17G 3
  -7850465.824 7  -6117241.10627  21293060.922
 -13429150.571 8 -10464256.12526  21806785.874
   -177207.029 5   -138083.95221  24530743.312
  19916237.881 6  15519144.50123  24353288.366
 -12306651.485 7  -9589584.88325  21344084.399
 -16259155.998 9 -12669447.75828  20785022.123
 92  5  8  4 34 29.9990000  0  6G20G16G23G24G17G 3
  -7773898.266 7  -6057578.08827  21307632.325
 -13380462.473 8 -10426317.33726  21816053.057
   -290278.132 5   -226191.16222  24509223.023
  20003556.950 6  15587185.32723  24369901.061
 -12372463.220 7  -9640866.70426  21331560.866
 -16300406.302 9 -12701590.81528  20777169.665
 92  5  8  4 34 59.9990000  0  6G20G16G23G24G17G 3
  -7696903.276 7  -5997582.01126  21322287.088
 -13331274.238 8 -10387988.85327  21825407.787
   -403319.431 5   -314275.51422  24487718.300
  20090905.098 5  15655248.80824  24386525.464
 -12437939.781 7  -9691887.34925  21319102.388
 -16341451.771 9 -12733574.25028  20769362.176
 92  5  8  4 35 29.9990000  0  6G20G16G23G24G17G 3
  -7619482.190 8  -5937253.90826  21337019.486
 -13281576.505 7 -10349263.32026  21834865.944
   -516315.901 5   -402324.52521  24466214.187
  20178269.783 5  15723325.12423  24403153.742
 -12503076.073 7  -9742642.83326  21306708.964
 -16382290.297 9 -12765396.44528  20761587.947
 92  5  8  4 35 59.9990000  0  6G20G16G23G24G17G 3
  -7541639.113 8  -5876596.99427  21351829.835
 -13231359.979 7 -10310133.55127  21844421.823
   -629268.836 5   -490339.95422  24444718.171
  20265634.688 4  15791401.60823  24419766.140
 -12567887.323 7  -9793145.04627  21294374.609
 -16422922.308 9 -12797057.71529  20753857.797
 92  5  8  4 36 29.9990000  0  6G20G16G23G24G17G 3
  -7463375.718 8  -5815612.55526  21366723.526
 -13180615.953 7 -10270592.75626  21854077.831
   -742169.502 5   -578314.69121  24423239.239
  20352997.245 4  15859476.32924  24436403.125
 -12632379.493 7  -9843398.61826  21282099.917
 -16463345.314 8 -12828556.14528  20746166.020
 92  5  8  4 36 59.9990000  0  5G20G16G23G17G 3
  -7384698.676 7  -5754305.80727  21381693.963
 -13129362.844 7 -10230655.27026  21863831.578
   -855019.087 5   -666249.24521  24401759.714
 -12696559.278 8  -9893408.78727  21269890.261
 -16503562.861 9 -12859894.44928  20738509.632
 92  5  8  4 37 29.9990000  0  5G20G16G23G17G 3
  -7305608.662 7  -5692677.25527  21396743.851
 -13077608.093 7 -10190326.86726  21873683.064
   -967809.849 5   -754138.32122  24380299.070
 -12760439.365 8  -9943185.41227  21257731.281
 -16543572.000 9 -12891070.36128  20730897.900
 92  5  8  4 37 59.9990000  0  5G20G16G23G17G 3
  -7226105.381 8  -5630726.68127  21411874.377
 -13025359.952 7 -10149614.00626  21883621.783
  -1080550.587 5   -841988.40522  24358842.020
 -12824010.393 7  -9992721.22126  21245633.446
 -16583368.617 9 -12922080.66928  20723325.133
 92  5  8  4 38 29.9990000  0  5G20G16G23G17G 3
  -7146187.949 8  -5568453.38527  21427083.131
 -12972622.687 7 -10108520.04826  21893659.742
  -1193241.694 5   -929799.45422  24337400.868
 -12887267.683 7 -10042012.55326  21233597.089
 -16622947.870 8 -12952921.60228  20715794.352
 92  5  8  4 38 59.9990000  0  5G20G16G23G17G 3
  -7065865.803 7  -5505864.75527  21442368.649
 -12919405.312 7 -10067051.94426  21903785.824
  -1305894.518 5  -1017581.09022  24315958.215
 -12950226.991 7 -10091071.69026  21221616.485
 -16662315.838 9 -12983597.90129  20708302.241
 92  5  8  4 39 29.9990000  0  6G20G16G23G24G17G 3
  -6985142.734 7  -5442963.72326  21457728.226
 -12865701.895 7 -10025205.11726  21914005.142
  -1418510.287 5  -1105333.85923  24294518.249
     43605.21215     33976.20123  24536056.834
 -13012888.720 7 -10139898.95325  21209695.840
 -16701472.372 9 -13014109.44429  20700849.707
 92  5  8  4 39 59.9990000  0  6G20G16G23G24G17G 3
  -6904023.836 7  -5379754.24626  21473161.548
 -12811513.777 8  -9982980.60026  21924316.511
  -1531088.047 4  -1193056.55823  24273111.282
    130814.122 5    101931.12922  24552653.055
 -13075251.894 7 -10188493.58126  21197825.853
 -16740418.580 9 -13044457.11128  20693439.437
 92  5  8  4 40 29.9990000  0  6G20G16G23G24G17G 3
  -6822506.648 7  -5316234.42426  21488677.898
 -12756829.818 7  -9940369.72326  21934723.210
  -1643618.353 4  -1280742.74522  24251695.292
    218009.054 5    169875.28922  24569253.762
 -13137315.420 7 -10236854.74126  21186014.934
 -16779148.548 9 -13074636.26028  20686069.931
 92  5  8  4 40 59.9990000  0  5G20G16G23G17G 3
  -6740587.613 7  -5252401.46726  21504266.805
 -12701643.593 7  -9897367.43525  21945223.739
  -1756091.826 4  -1368384.18324  24230285.620
 -13199059.293 7 -10284966.77926  21174263.661
 -16817654.779 9 -13104641.08329  20678742.706
 92  5  8  4 41 29.9990000  0  5G20G16G23G17G 3
  -6658272.381 7  -5188259.76526  21519928.864
 -12645961.487 7  -9853978.76726  21955818.098
  -1868512.528 3  -1455984.48224  24208895.126
 -13260472.022 7 -10332820.79826  21162578.646
 -16855938.829 9 -13134472.76329  20671456.542
 92  5  8  4 41 59.9990000  0  4G20G16G17G 3
  -6575561.398 7  -5123809.69126  21535669.467
 -12589785.953 7  -9810205.63125  21966513.493
 -13321547.669 7 -10380412.15126  21150956.592
 -16893997.680 9 -13164128.96429  20664213.271
 92  5  8  4 42 29.9990000  0  4G20G16G17G 3
  -6492457.221 7  -5059053.17026  21551486.222
 -12533119.641 7  -9766050.03526  21977291.638
 -13382290.008 7 -10427743.79927  21139397.201
 -16931830.100 9 -13193608.71829  20657014.952
 92  5  8  4 42 59.9990000  0  4G20G16G17G 3
  -6408969.420 7  -4993997.76326  21567368.922
 -12475979.201 7  -9721524.98726  21988166.317
 -13442708.968 8 -10474823.45626  21127902.865
 -16969441.525 9 -13222916.28829  20649856.506
 92  5  8  4 43 29.9990000  0  4G20G16G17G 3
  -6325094.660 7  -4928640.82426  21583330.775
 -12418371.891 7  -9676636.17626  21999127.025
 -13502810.617 8 -10521655.86026  21116463.078
 -17006824.664 9 -13252045.96629  20642743.029
 92  5  8  4 43 59.9990000  0  5G20G16G23G17G 3
  -6240836.208 7  -4862984.90827  21599365.466
 -12360319.465 7  -9631400.51126  22010177.079
    -55981.21415    -43622.23524  24102157.327
 -13562604.387 8 -10568248.35526  21105083.861
 -17043978.964 9 -13280997.32829  20635674.819
 92  5  8  4 44 29.9990000  0  5G20G16G23G17G 3
  -6156200.484 7  -4797035.01427  21615469.121
 -12301829.644 7  -9585823.99226  22021305.659
   -167867.864 5   -130806.43324  24080866.072
 -13622090.735 8 -10614601.31126  21093764.882
 -17080907.182 9 -13309772.53229  20628645.592
 92  5  8  4 44 59.9990000  0  5G20G16G23G17G 3
  -6071187.397 7  -4730791.09126  21631648.614
 -12242902.144 7  -9539906.44526  22032522.100
   -279656.623 5   -217914.38825  24059591.290
 -13681256.922 8 -10660704.77926  21082507.083
 -17117605.443 9 -13338368.52129  20621663.428
 92  5  8  4 45 29.9990000  0  5G20G16G23G17G 3
  -5985793.852 7  -4664250.67826  21647898.274
 -12183527.272 7  -9493640.29525  22043815.881
   -391348.033 6   -304946.45823  24038339.612
 -13740090.574 8 -10706549.12726  21071310.727
 -17154066.244 9 -13366779.50529  20614724.419
 92  5  8  4 45 59.9990000  0  5G20G16G23G17G 3
  -5900033.631 7  -4597424.54825  21664217.770
 -12123701.066 7  -9447022.43625  22055202.602
   -502953.101 6   -391911.27324  24017096.904
 -13798602.371 8 -10752142.68526  21060175.551
 -17190299.729 9 -13395013.33729  20607829.489
 92  5  8  4 46 29.9990000  0  5G20G16G23G17G 3
  -5813909.763 7  -4530315.08826  21680606.526
 -12063396.046 7  -9400031.51026  22066680.762
   -614481.748 6   -478816.53923  23995872.797
 -13856786.593 7 -10797480.98627  21049101.817
 -17226304.796 9 -13423069.19429  20600978.638
 92  5  8  4 46 59.9990000  0  5G20G16G23G17G 3
  -5727425.440 8  -4462924.75227  21697066.932
 -12002618.745 7  -9352672.56225  22078242.543
   -725940.732 5   -565667.52924  23974663.977
 -13914654.883 8 -10842573.11826  21038090.137
 -17262080.220 9 -13450946.10628  20594170.959
 92  5  8  4 47 29.9990000  0  5G20G16G23G17G 3
  -5640582.136 7  -4395254.69327  21713590.002
 -11941367.416 7  -9304944.23925  22089902.081
   -837325.933 6   -652461.03823  23953465.662
 -13972210.966 8 -10887421.97727  21027141.416
 -17297623.664 8 -13478642.26028  20587406.138
 92  5  8  4 47 59.9990000  0  5G20G16G23G17G 3
  -5553381.802 7  -4327306.43226  21730183.798
 -11879642.921 7  -9256847.21826  22101643.442
   -948631.636 6   -739192.57522  23932293.121
 -14029446.236 8 -10932020.82626  21016249.060
 -17332932.955 9 -13506155.95329  20580685.989
 92  5  8  4 48 29.9990000  0  5G20G16G23G17G 3
  -5465825.421 7  -4259080.74326  21746845.668
 -11817453.470 7  -9208387.88826  22113480.152
  -1059852.748 6   -825858.27822  23911125.378
 -14086350.479 8 -10976361.74826  21005419.647
 -17368005.456 9 -13533485.13129  20574012.014
 92  5  8  4 48 59.9990000  0  5G20G16G23G17G 3
  -5377915.717 7  -4190579.72126  21763574.982
 -11754816.708 7  -9159579.98126  22125397.813
  -1170975.189 6   -912447.01521  23889979.519
 -14142929.699 8 -11020449.41026  20994650.507
 -17402839.655 9 -13560628.60629  20567384.787
 92  5  8  4 49 29.9990000  0  5G20G16G23G17G 3
  -5289652.814 7  -4121803.49627  21780367.274
 -11691725.050 7  -9110417.64026  22137407.489
  -1281981.801 6   -998945.48122  23868850.446
 -14199172.307 8 -11064274.78027  20983949.109
 -17437431.441 9 -13587583.21129  20560801.047
 92  5  8  4 49 59.9990000  0  5G20G16G23G17G 3
  -5201036.406 7  -4052751.81827  21797229.385
 -11628182.913 7  -9060904.28726  22149498.117
  -1392863.718 6  -1085346.87922  23847752.539
 -14255079.773 8 -11107838.99727  20973309.781
 -17471776.720 9 -13614345.72329  20554265.871
 92  5  8  4 50 29.9990000  0  5G20G16G23G17G 3
  -5112073.145 7  -3983429.85025  21814163.774
 -11564204.362 7  -9011050.85925  22161674.198
  -1503631.408 5  -1171659.15322  23826678.034
 -14310672.606 8 -11151158.03927  20962731.302
 -17505877.900 9 -13640918.02329  20547776.868
 92  5  8  4 50 59.9990000  0  5G20G16G23G17G 3
  -5022773.778 7  -3913845.98726  21831153.899
 -11499803.258 7  -8960868.17126  22173926.711
  -1614294.991 5  -1257890.38922  23805613.125
 -14365960.807 8 -11194239.69727  20952211.281
 -17539741.352 9 -13667305.08729  20541332.223
 92  5  8  4 51 29.9990000  0  5G20G16G23G17G 3
  -4933130.687 7  -3843994.29725  21848213.005
 -11434966.488 7  -8910346.01925  22186265.865
  -1724852.287 5  -1344038.85223  23784574.288
 -14420930.830 8 -11237073.44027  20941748.532
 -17573355.842 9 -13693498.14929  20534934.363
 92  5  8  4 51 59.9990000  0  5G20G16G23G17G 3
  -4843151.205 7  -3773880.49826  21865335.037
 -11369705.563 7  -8859493.34125  22198684.470
  -1835315.472 5  -1430113.82923  23763554.628
 -14475592.618 8 -11279666.98127  20931348.132
 -17606724.275 9 -13719499.48029  20528585.659
 92  5  8  4 52 29.9990000  0  5G20G16G23G17G 3
  -4752840.171 7  -3703508.32125  21882520.343
 -11304023.249 7  -8808312.30025  22211181.321
  -1945680.053 5  -1516112.07423  23742555.978
 -14529939.328 8 -11322015.02127  20921003.189
 -17639847.499 9 -13745309.74529  20522283.112
 92  5  8  4 52 59.9990000  0  5G20G16G23G17G 3
  -4662195.291 7  -3632875.99825  21899770.703
 -11237901.823 7  -8756789.10026  22223765.702
  -2055931.078 5  -1602021.75924  23721579.490
 -14583960.728 8 -11364109.56227  20910723.301
 -17672718.964 9 -13770923.83329  20516027.052
 92  5  8  4 53 29.9990000  0  5G20G16G23G17G 3
  -4571221.037 7  -3561987.01825  21917084.617
 -11171345.081 7  -8704926.71025  22236431.646
  -2166059.877 5  -1687836.25724  23700617.695
 -14637662.880 8 -11405955.35327  20900509.078
 -17705338.962 9 -13796341.95829  20509819.555
 92  5  8  4 53 59.9990000  0  5G20G16G23G17G 3
  -4479914.648 7  -3490839.20524  21934459.694
 -11104351.769 7  -8652724.11425  22249180.008
  -2276057.627 5  -1773548.62724  23679686.194
 -14691042.244 8 -11447549.61127  20890347.921
 -17737700.548 9 -13821558.74629  20503662.717
 92  5  8  4 54 29.9990000  0  5G20G16G23G17G 3
  -4388281.136 7  -3419436.50725  21951895.620
 -11036921.291 7  -8600180.88026  22262012.025
  -2385917.163 5  -1859153.26726  23658782.561
 -14744095.507 8 -11488889.75527  20880251.504
 -17769804.277 9 -13846574.59729  20497553.239
 92  5  8  4 54 59.9990000  0  5G20G16G23G17G 3
  -4296325.051 7  -3347782.46624  21969395.711
 -10969059.397 7  -8547301.48625  22274924.384
  -2495643.737 5  -1944654.36824  23637902.014
 -14796827.760 8 -11529979.75827  20870220.752
 -17801650.704 9 -13871389.95829  20491492.639
 92  5  8  4 55 29.9990000  0  5G20G16G23G17G 3
  -4204050.916 7  -3275880.55125  21986955.446
 -10900782.714 7  -8494098.86125  22287920.102
  -2605239.660 5  -2030053.61626  23617045.758
 -14849236.063 8 -11570817.33627  20860244.847
 -17833240.629 9 -13896005.44229  20485483.586
 92  5  8  4 55 59.9990000  0  5G20G16G23G17G 3
  -4111457.358 7  -3203729.77224  22004574.547
 -10832077.214 7  -8440562.11825  22300992.845
  -2714705.787 6  -2115351.76426  23596211.088
 -14901307.148 8 -11611392.14527  20850338.218
 -17864567.625 9 -13920416.04429  20479520.132
 92  5  8  4 56 29.9990000  0  5G20G16G23G17G 3
  -4018546.321 7  -3131331.61625  22022254.811
 -10762949.577 7  -8386696.44426  22314146.540
  -2824030.530 6  -2200539.73624  23575410.882
 -14953029.703 8 -11651695.36727  20840494.219
 -17895630.048 9 -13944620.49529  20473610.022
 92  5  8  4 56 59.9990000  0  5G20G16G23G17G 3
  -3925325.812 7  -3058692.31525  22039993.830
 -10693412.975 7  -8332512.07625  22327375.777
  -2933212.206 6  -2285616.20826  23554633.170
 -15004412.743 8 -11691734.03327  20830717.089
 -17926431.512 9 -13968621.60529  20467748.180
 92  5  8  4 57 29.9990000  0  5G20G16G23G17G 3
  -3831801.606 7  -2985816.35126  22057789.806
 -10623466.166 7  -8278008.06425  22340688.670
  -3042247.729 6  -2370578.82425  23533884.530
 -15055468.322 8 -11731517.55128  20821000.825
 -17956973.122 9 -13992420.23329  20461933.104
 92  5  8  4 57 59.9990000  0  5G20G16G23G17G 3
  -3737974.417 7  -2912704.29225  22075643.054
 -10553113.669 7  -8223187.93625  22354077.995
  -3151130.194 6  -2455422.15325  23513165.572
 -15106201.787 8 -11771050.04629  20811348.412
 -17987251.852 9 -14016014.01629  20456174.986
 92  5  8  4 58 29.9990000  0  5G20G16G23G17G 3
  -3643847.336 7  -2839358.55326  22093555.057
 -10482369.244 7  -8168062.41626  22367541.676
  -3259854.756 6  -2540142.44626  23492475.093
 -15156634.359 8 -11810348.08628  20801750.251
 -18017266.695 9 -14039402.18529  20450462.745
 92  5  8  4 58 59.9990000  0  5G20G16G23G17G 3
  -3549423.315 7  -2765781.45226  22111525.815
 -10411230.475 7  -8112629.60225  22381073.413
  -3368436.283 6  -2624751.30325  23471812.203
 -15206780.907 8 -11849423.25227  20792209.048
 -18047016.062 9 -14062583.47629  20444801.754
 92  5  8  4 59 29.9990000  0  5G20G16G23G17G 3
  -3454705.104 7  -2691975.10826  22129549.935
 -10339711.944 7  -8056900.85125  22394686.973
  -3476887.008 6  -2709258.22924  23451178.088
 -15256629.438 8 -11888266.22728  20782723.319
 -18076498.535 9 -14085556.80329  20439189.049
 92  5  8  4 59 59.9990000  0  5G20G16G23G17G 3
  -3359698.052 7  -2617943.67826  22147630.717
 -10267825.204 7  -8000885.20926  22408367.106
  -3585222.290 6  -2793675.21626  23430554.461
 -15306165.514 8 -11926865.72427  20773294.844
 -18105714.583 9 -14108322.51629  20433631.486
 92  5  8  5  0 29.9990000  0  5G20G16G23G17G 3
  -3264402.258 7  -2543687.26026  22165762.156
 -10195564.427 7  -7944578.10225  22422114.998
  -3693442.955 6  -2878002.89424  23409964.722
 -15355376.924 8 -11965212.23227  20763929.033
 -18134660.726 9 -14130877.89129  20428121.597
 92  5  8  5  0 59.9990000  0  5G20G16G23G17G 3
  -3168816.341 7  -2469204.76727  22183952.368
 -10122920.373 7  -7887972.34926  22435936.618
  -3801535.603 6  -2962230.82223  23389398.350
 -15404231.642 8 -12003280.79128  20754631.574
 -18163330.887 9 -14153218.28329  20422667.183
 92  5  8  5  1 29.9990000  0  5G20G16G23G17G 3
  -3072942.069 7  -2394497.60026  22202195.035
 -10049889.554 7  -7831065.21025  22449834.111
  -3909483.905 5  -3046346.27324  23368851.783
 -15452724.075 8 -12041067.06028  20745404.859
 -18191722.502 9 -14175341.59029  20417264.019
 92  5  8  5  1 59.9990000  0  5G20G16G23G17G 3
  -2976783.070 7  -2319568.53725  22220493.769
  -9976446.697 7  -7773837.00425  22463814.632
  -4017266.164 5  -3130332.35125  23348342.385
 -15500871.264 8 -12078584.27727  20736242.605
 -18219834.598 9 -14197247.08529  20411915.126
 92  5  8  5  2 29.9990000  0  5G20G16G23G17G 3
  -2880345.998 7  -2244422.82025  22238844.662
  -9902581.385 7  -7716279.61025  22477870.992
  -4124857.455 5  -3214169.62923  23327868.655
 -15548674.949 8 -12115833.83628  20727146.295
 -18247669.742 9 -14218936.77829  20406620.783
 92  5  8  5  2 59.9990000  0  5G20G16G23G17G 3
  -2783631.399 7  -2169060.83825  22257251.623
  -9828292.224 7  -7658391.93726  22492003.818
  -4232249.969 5  -3297851.97623  23307432.408
 -15596140.745 8 -12152820.11627  20718114.149
 -18275224.043 9 -14240407.64329  20401375.614
 92  5  8  5  3 29.9990000  0  5G20G16G23G17G 3
  -2686643.718 7  -2093486.07325  22275707.148
  -9753588.936 7  -7600181.59126  22506216.375
  -4339447.379 5  -3381382.33723  23287033.016
 -15643297.838 8 -12189565.85828  20709139.869
 -18302498.102 9 -14261660.13829  20396185.011
 92  5  8  5  3 59.9990000  0  5G20G16G23G17G 3
  -2589387.861 7  -2017702.32425  22294215.739
  -9678485.042 7  -7541659.08026  22520513.182
  -4446440.350 5  -3464753.39525  23266673.219
 -15690143.640 8 -12226069.02027  20700226.123
 -18329491.905 9 -14282694.24129  20391047.475
 92  5  8  5  4 29.9990000  0  5G20G16G23G17G 3
  -2491863.551 7  -1941709.39823  22312772.894
  -9603003.285 7  -7482842.14426  22534874.432
  -4553235.262 5  -3547970.08825  23246356.890
 -15736677.556 8 -12262329.16928  20691372.354
 -18356201.033 9 -14303506.51629  20385965.693
 92  5  8  5  4 59.9990000  0  5G20G16G23G17G 3
  -2394076.697 7  -1865511.90123  22331381.003
  -9527172.007 7  -7423752.83025  22549301.643
  -4659850.267 5  -3631046.62325  23226062.130
 -15782926.423 8 -12298367.19927  20682569.853
 -18382626.784 9 -14324097.99229  20380934.865
 92  5  8  5  5 29.9990000  0  5G20G16G23G17G 3
  -2296031.399 6  -1789112.98423  22350036.490
  -9450998.800 7  -7364397.10125  22563798.708
  -4766292.674 6  -3713988.67525  23205810.245
 -15828879.447 8 -12334174.70428  20673823.403
 -18408769.225 9 -14344468.69829  20375961.308
 92  5  8  5  5 59.9990000  0  5G20G16G23G17G 3
  -2197720.244 6  -1712506.97124  22368743.839
  -9374471.583 6  -7304765.49025  22578360.828
  -4872555.580 6  -3796790.82925  23185587.746
 -15874500.905 8 -12369723.84327  20665144.118
 -18434616.450 9 -14364609.37029  20371043.226
 92  5  8  5  6 29.9990000  0  5G20G16G23G17G 3
  -2099149.450 6  -1635698.60821  22387503.661
  -9297589.530 6  -7244857.38725  22592996.989
  -4978671.183 6  -3879478.20725  23165392.539
 -15919795.369 8 -12405018.16828  20656524.478
 -18460170.498 9 -14384521.60429  20366181.194
 92  5  8  5  6 59.9990000  0  5G20G16G23G17G 3
  -2000326.758 6  -1558693.97523  22406311.436
  -9220347.433 6  -7184668.74525  22607690.124
  -5084650.550 6  -3962059.42726  23145224.293
 -15964749.431 8 -12440047.25527  20647970.207
 -18485434.558 9 -14404207.86729  20361372.508
 92  5  8  5  7 29.9990000  0  5G20G16G23G17G 3
  -1901259.236 6  -1481498.50223  22425158.788
  -9142735.545 6  -7124191.92525  22622461.803
  -5190485.393 6  -4044528.03824  23125088.731
 -16009352.246 8 -12474802.64928  20639482.788
 -18510411.342 9 -14423670.28029  20356618.405
 92  5  8  5  7 59.9990000  0  5G20G16G23G17G 3
  -1801944.357 6  -1404110.34822  22444057.094
  -9064751.842 6  -7063425.40425  22637303.022
  -5296154.279 6  -4126867.34325  23104979.257
 -16053609.382 8 -12509288.67828  20631059.219
 -18535093.716 9 -14442903.28529  20351921.260
 92  5  8  5  8 29.9990000  0  5G20G16G23G17G 3
  -1702385.312 6  -1326531.97222  22463005.483
  -8986404.070 7  -7002375.22925  22652208.701
  -5401641.972 6  -4209065.45126  23084903.061
 -16097529.708 8 -12543512.24727  20622702.205
 -18559480.746 9 -14461906.15229  20347281.963
 92  5  8  5  8 59.9990000  0  5G20G16G23G17G 3
  -1602579.134 5  -1248760.98023  22481996.729
  -8907693.174 7  -6941042.07325  22667189.922
  -5506904.974 6  -4291088.48226  23064872.724
 -16141101.455 8 -12577464.21128  20614412.932
 -18583564.548 9 -14480672.73229  20342697.546
 92  5  8  5  9 29.9990000  0  5G20G16G23G17G 3
  -1502532.917 5  -1170802.94223  22501034.463
  -8828630.552 7  -6879434.82725  22682236.809
  -5611931.810 6  -4372927.50025  23044884.965
 -16184341.778 8 -12611157.91728  20606183.933
 -18607348.230 9 -14499205.45729  20338172.181
 92  5  8  5  9 59.9990000  0  5G20G16G23G17G 3
  -1402250.575 5  -1092660.90622  22520118.946
  -8749225.205 6  -6817560.54425  22697344.562
  -5716729.803 6  -4454588.17425  23024942.158
 -16227246.594 8 -12644590.19528  20598016.394
 -18630831.088 9 -14517503.76629  20333704.367
 92  5  8  5 10 29.9990000  0  5G20G16G23G17G 3
  -1301736.686 5  -1014338.46122  22539246.601
  -8669475.748 6  -6755418.13425  22712520.353
  -5821310.927 6  -4536079.88424  23005042.541
 -16269821.957 8 -12677765.73827  20589916.299
 -18654013.252 9 -14535567.77729  20329293.825
 92  5  8  5 10 59.9990000  0  5G20G16G23G17G 3
  -1200987.731 5   -935832.82621  22558415.630
  -8589377.815 6  -6693004.11624  22727754.899
  -5925677.592 6  -4617404.49424  22985178.888
 -16312071.435 8 -12710687.36129  20581875.256
 -18676886.892 9 -14553391.39129  20324941.130
 92  5  8  5 11 29.9990000  0  5G20G16G23G17G 3
  -1100011.584 5   -857150.23522  22577635.632
  -8508939.414 6  -6630324.82224  22743073.102
  -6029852.090 6  -4698579.36124  22965359.908
 -16354004.660 8 -12743362.54928  20573896.580
 -18699455.207 9 -14570977.07029  20320645.113
 92  5  8  5 11 59.9990000  0  5G20G16G23G17G 3
   -998812.095 5   -778293.45223  22596891.895
  -8428172.254 6  -6567389.38625  22758438.367
  -6133842.017 6  -4779610.41625  22945569.721
 -16395620.173 8 -12775790.18729  20565977.567
 -18721717.682 9 -14588324.43829  20316410.242
 92  5  8  5 12 29.9990000  0  5G20G16G23G17G 3
   -897388.565 5   -699262.17322  22616189.235
  -8347072.898 6  -6504195.06724  22773875.877
  -6237626.230 5  -4860481.13425  22925824.189
 -16436919.206 8 -12807971.19728  20558117.919
 -18743669.334 9 -14605429.61129  20312232.328
 92  5  8  5 12 59.9990000  0  5G20G16G23G17G 3
   -795745.888 5   -620060.15922  22635536.641
  -8265642.748 7  -6440742.98425  22789371.548
  -6341194.254 5  -4941183.43424  22906111.934
 -16477887.864 8 -12839894.76629  20550321.511
 -18765310.404 9 -14622292.76829  20308113.187
 92  5  8  5 13 29.9990000  0  5G20G16G23G17G 3
   -693889.004 5   -540691.22523  22654918.824
  -8183875.896 7  -6377028.58823  22804924.473
  -6444537.776 5  -5021710.77924  22886448.244
 -16518522.884 8 -12871558.37328  20542585.969
 -18786641.699 9 -14638914.54029  20304054.301
 92  5  8  5 13 59.9990000  0  5G20G16G23G17G 3
   -591820.392 5   -461157.19422  22674339.381
  -8101770.457 6  -6313050.31523  22820549.067
  -6547640.880 5  -5102050.75924  22866824.130
 -16558828.537 8 -12902965.33228  20534919.966
 -18807660.827 9 -14655293.07229  20300052.966
 92  5  8  5 14 29.9990000  0  5G20G16G23G17G 3
   -489544.089 5   -381461.48622  22693802.499
  -8019320.900 6  -6248803.88422  22836238.401
  -6650501.796 5  -5182202.00722  22847248.877
 -16598800.968 8 -12934112.63629  20527313.643
 -18828367.772 9 -14671428.34529  20296114.295
 92  5  8  5 14 59.9990000  0  5G20G16G23G17G 3
   -387060.453 5   -301604.13524  22713299.802
  -7936533.173 7  -6184293.96924  22851994.900
  -6753130.627 5  -5262172.44623  22827724.893
 -16638440.257 8 -12965000.34528  20519770.560
 -18848758.502 9 -14687317.21529  20292232.284
 92  5  8  5 15 29.9990000  0  5G20G16G23G17G 3
   -284376.067 5   -221590.40022  22732847.780
  -7853415.755 6  -6119527.19024  22867810.748
  -6855545.220 5  -5341975.94822  22808234.186
 -16677764.369 8 -12995642.46728  20512284.434
 -18868834.802 9 -14702961.07628  20288413.217
 92  5  8  5 15 59.9990000  0  5G20G16G23G17G 3
   -181495.132 5   -141423.48522  22752417.623
  -7769984.152 6  -6054515.52323  22883687.759
  -6957763.135 6  -5421626.14121  22788781.853
 -16716770.026 8 -13026036.44029  20504864.584
 -18888596.817 9 -14718360.03029  20284652.032
 92  5  8  5 16 29.9990000  0  5G20G16G23G17G 3
    -78415.174 5    -61101.41922  22772036.955
  -7686240.573 6  -5989260.78924  22899624.118
  -7059794.312 6  -5501130.87023  22769366.688
 -16755452.881 8 -13056178.88528  20497500.784
 -18908037.713 9 -14733508.76429  20280954.087
 92  5  8  5 16 59.9990000  0  5G20G16G23G17G 3
     24853.069 5     19367.25322  22791691.642
  -7602190.450 6  -5923767.19823  22915615.044
  -7161647.643 6  -5580497.04023  22749984.522
 -16793830.197 8 -13086083.23229  20490200.834
 -18927163.415 9 -14748411.89029  20277314.006
 92  5  8  5 17 29.9990000  0  5G20G16G23G17G 3
    128307.904 5     99981.35824  22811372.713
  -7517834.375 6  -5858035.18125  22931670.431
  -7263324.200 6  -5659725.44222  22730637.710
 -16831892.825 8 -13115742.38129  20482957.249
 -18945970.931 9 -14763067.08829  20273738.387
 92  5  8  5 17 59.9990000  0  5G20G16G23G17G 3
    231951.275 5    180742.42123  22831093.361
  -7433181.785 7  -5792072.12724  22947780.681
  -7364795.946 6  -5738794.23323  22711326.583
 -16869627.650 8 -13145146.09729  20475776.013
 -18964454.460 9 -14777469.81429  20270217.317
 92  5  8  5 18 29.9990000  0  5G20G16G23G17G 3
    335779.767 5    261647.70022  22850858.978
  -7348226.163 6  -5725872.94025  22963941.886
  -7466030.814 6  -5817678.45023  22692064.614
 -16907033.241 8 -13174293.26529  20468657.441
 -18982612.484 9 -14791618.90529  20266762.505
 92  5  8  5 18 59.9990000  0  5G20G16G23G17G 3
    439790.748 6    342695.19522  22870650.370
  -7262962.446 6  -5659433.68323  22980167.256
  -7567009.008 6  -5896362.69123  22672849.708
 -16944098.161 8 -13203174.97229  20461606.628
 -19000442.934 9 -14805512.75029  20263369.764
 92  5  8  5 19 29.9990000  0  5G20G16G23G17G 3
    543974.877 5    423877.54722  22890470.850
  -7177412.807 6  -5592771.60824  22996451.694
  -7667712.644 6  -5974832.95523  22653682.773
 -16980834.997 8 -13231801.03629  20454612.162
 -19017951.103 9 -14819155.45829  20260037.872
 92  5  8  5 19 59.9990000  0  5G20G16G23G17G 3
    648337.795 5    505199.2212   22910330.612
  -7091566.200 7  -5525878.16024  23012790.979
  -7768112.948 6  -6053066.85624  22634577.908
 -17017250.074 8 -13260176.38129  20447684.862
 -19035126.718 9 -14832539.04029  20256770.126
 92  5  8  5 20 29.9990000  0  5G20G16G23G17G 3
    752874.133 6    586656.17021  22930232.027
  -7005410.794 6  -5458744.13224  23029182.125
  -7868226.494 6  -6131077.32523  22615525.796
 -17053349.127 8 -13288305.47129  20440815.112
 -19051970.787 9 -14845664.26229  20253565.045
 92  5  8  5 20 59.9990000  0  5G20G16G23G17G 3
    857581.262 6    668246.03622  22950151.433
  -6918953.660 6  -5391374.91724  23045631.747
  -7968080.802 6  -6208885.78124  22596523.451
 -17089137.182 8 -13316192.21829  20434005.933
 -19068481.475 9 -14858529.71529  20250423.220
 92  5  8  5 21 29.9990000  0  5G20G16G23G17G 3
    962454.907 5    749965.74522  22970110.416
  -6832211.404 6  -5323783.55124  23062143.405
  -8067685.536 6  -6286499.77124  22577570.281
 -17124624.976 9 -13343845.00729  20427251.617
 -19084658.547 9 -14871135.21429  20247343.763
 92  5  8  5 21 59.9990000  0  5G20G16G23G17G 3
   1067490.111 5    831811.25323  22990090.985
  -6745179.602 6  -5255966.60025  23078704.552
  -8167060.627 6  -6363934.80426  22558659.061
 -17159793.687 9 -13371249.15529  20420562.041
 -19100502.893 9 -14883481.43928  20244325.451
 92  5  8  5 22 29.9990000  0  5G20G16G23G17G 3
   1172683.405 5    913780.03722  23010114.429
  -6657856.179 6  -5187922.39524  23095325.343
  -8266218.957 6  -6441200.96025  22539792.234
 -17194634.293 9 -13398397.63429  20413927.625
 -19116012.944 9 -14895567.17629  20241380.291
 92  5  8  5 22 59.9990000  0  5G20G16G23G17G 3
   1278031.435 5    995869.37022  23030161.553
  -6570259.860 6  -5119665.53724  23111985.712
  -8365144.760 6  -6518285.90725  22520967.952
 -17229151.428 9 -13425294.04929  20407362.783
 -19131188.290 9 -14907392.10429  20238490.587
 92  5  8  5 23 29.9990000  0  5G20G16G23G17G 3
   1383533.043 5   1078078.37922  23050235.359
  -6482390.540 6  -5051195.93624  23128711.135
  -8463814.063 6  -6595170.98525  22502191.360
 -17263342.124 9 -13451936.10629  20400854.585
 -19146025.128 9 -14918953.25329  20235669.829
 92  5  8  5 23 59.9990000  0  5G20G16G23G17G 3
   1489191.447 5   1160409.53123  23070343.926
  -6394228.706 6  -4982498.43225  23145488.106
  -8562222.380 6  -6671852.72226  22483463.019
 -17297194.013 9 -13478314.15929  20394413.238
 -19160516.084 9 -14930244.89129  20232906.046
 92  5  8  5 24 29.9990000  0  5G20G16G23G17G 3
   1594998.350 5   1242856.40323  23090476.189
  -6305793.185 6  -4913587.64724  23162312.768
  -8660374.411 6  -6748334.75925  22464784.149
 -17330720.701 9 -13504438.81629  20388033.666
 -19174665.180 9 -14941270.14529  20230213.914
 92  5  8  5 24 59.9990000  0  5G20G16G23G17G 3
   1700950.667 5   1325416.61123  23110646.826
  -6217106.960 6  -4844481.50525  23179189.886
  -8758262.913 6  -6824611.43725  22446155.047
 -17363917.798 9 -13530306.64629  20381714.924
 -19188470.979 9 -14952027.90529  20227589.227
 92  5  8  5 25 29.9990000  0  5G20G16G23G17G 3
   1807044.251 5   1408086.87122  23130829.766
  -6128162.644 6  -4775174.25524  23196116.754
  -8855896.485 6  -6900689.44325  22427575.713
 -17396782.442 9 -13555915.41229  20375462.459
 -19201932.699 9 -14962517.54029  20225025.999
 92  5  8  5 25 59.9990000  0  5G20G16G23G17G 3
   1913275.213 5   1490864.18123  23151045.372
  -6038965.049 6  -4705669.68125  23213087.719
  -8953281.464 6  -6976573.75826  22409048.834
 -17429309.073 9 -13581260.79229  20369270.843
 -19215049.962 9 -14972738.75629  20222534.125
 92  5  8  5 26 29.9990000  0  5G20G16G23G17G 3
   2019643.854 5   1573748.76524  23171282.250
  -5949518.016 6  -4635970.68523  23230108.434
  -9050404.020 6  -7052253.58726  22390567.238
 -17461497.362 9 -13606342.52929  20363147.282
 -19227818.012 9 -14982687.86729  20220101.321
 92  5  8  5 26 59.9990000  0  5G20G16G23G17G 3
   2126159.422 5   1656747.83822  23191552.126
  -5859792.412 6  -4566054.63024  23247184.310
  -9147242.475 6  -7127712.04825  22372137.784
 -17493340.653 9 -13631155.44429  20357088.182
 -19240223.436 9 -14992354.41729  20217737.759
 92  5  8  5 27 29.9990000  0  5G20G16G23G17G 3
   2232821.298 5   1739860.90222  23211847.479
  -5769767.355 6  -4495905.27825  23264320.738
  -9243788.539 6  -7202942.64226  22353762.618
 -17524843.839 8 -13655703.33429  20351090.525
 -19252262.297 9 -15001735.34129  20215450.035
 92  5  8  5 27 59.9990000  0  5G20G16G23G17G 3
   2339611.389 5   1823073.97421  23232172.202
  -5679464.722 6  -4425539.64425  23281502.449
  -9340046.102 6  -7277948.44926  22335444.985
 -17556032.984 8 -13680006.52229  20345157.643
 -19263948.135 9 -15010841.17328  20213224.382
 92  5  8  5 28 29.9990000  0  5G20G16G23G17G 3
   2446529.389 5   1906386.66622  23252520.621
  -5588882.141 6  -4354955.80523  23298740.210
  -9436009.121 6  -7352724.73225  22317187.624
 -17586919.441 9 -13704073.84829  20339277.216
 -19275277.087 9 -15019668.91029  20211071.863
 92  5  8  5 28 59.9990000  0  5G20G16G23G17G 3
   2553567.951 6   1989793.27423  23272884.624
  -5498036.417 6  -4284166.93424  23316024.756
  -9531676.067 6  -7427270.30425  22298983.627
 -17617516.983 9 -13727916.05529  20333456.138
 -19286252.036 9 -15028220.79129  20208984.119
 92  5  8  5 29 29.9990000  0  5G20G16G23G17G 3
   2660723.302 6   2073290.86423  23293279.200
  -5406946.434 6  -4213187.77724  23333360.849
  -9627044.200 6  -7501583.04626  22280832.992
 -17647819.447 9 -13751528.31829  20327688.440
 -19296872.349 9 -15036496.34328  20206961.115
 92  5  8  5 29 59.9990000  0  5G20G16G23G17G 3
   2767999.303 6   2156882.49622  23313694.768
  -5315614.350 6  -4142019.98224  23350738.317
  -9722116.146 6  -7575664.99625  22262742.020
 -17677811.323 9 -13774898.57329  20321983.684
 -19307129.699 9 -15044489.06928  20205008.558
 92  5  8  5 30 29.9990000  0  5G20G16G23G17G 3
   2875390.109 6   2240563.62821  23334127.123
  -5224048.871 6  -4070670.17223  23368159.567
  -9816910.034 6  -7649530.28226  22244702.613
 -17707474.335 9 -13798012.55829  20316340.092
 -19317025.455 9 -15052200.02828  20203123.463
 92  5  8  5 30 59.9990000  0  5G20G16G23G17G 3
   2982895.498 6   2324334.02323  23354587.660
  -5132256.473 6  -3999143.63524  23385634.756
  -9911423.751 6  -7723177.22324  22226718.070
 -17736795.986 8 -13820860.56229  20310757.662
 -19326555.558 9 -15059626.06728  20201311.816
 92  5  8  5 31 29.9990000  0  5G20G16G23G17G 3
   3090506.038 6   2408186.30522  23375067.969
  -5040234.998 6  -3927438.59823  23403139.349
 -10005680.963 7  -7796624.31425  22208781.776
 -17765766.913 8 -13843435.27229  20305244.179
 -19335725.120 9 -15066771.17729  20199564.631
 92  5  8  5 31 59.9990000  0  5G20G16G23G17G 3
   3198213.181 6   2492113.89524  23395559.986
  -4947991.015 6  -3855560.15522  23420695.490
 -10099694.100 7  -7869881.23426  22190891.359
 -17794401.456 8 -13865747.85929  20299795.750
 -19344538.339 9 -15073638.60229  20197891.486
 92  5  8  5 32 29.9990000  0  5G20G16G23G17G 3
   3306018.879 6   2576118.29023  23416077.778
  -4855530.684 6  -3783513.17325  23438295.099
 -10193448.788 7  -7942936.74824  22173049.821
 -17822707.160 8 -13887804.20829  20294410.578
 -19352989.048 9 -15080223.55828  20196284.304
 92  5  8  5 32 59.9990000  0  5G20G16G23G17G 3
   3413921.780 6   2660198.43324  23436603.684
  -4762853.655 6  -3711297.34224  23455929.503
 -10286925.015 7  -8015775.27425  22155264.925
 -17850694.145 8 -13909612.21329  20289083.864
 -19361073.973 9 -15086523.47728  20194744.566
 92  5  8  5 33 29.9990000  0  5G20G16G23G17G 3
   3521913.391 6   2744347.67023  23457157.754
  -4669956.385 6  -3638909.88923  23473603.764
 -10380126.084 7  -8088399.41626  22137524.702
 -17878372.697 8 -13931179.87229  20283819.203
 -19368797.052 9 -15092541.44929  20193273.496
 92  5  8  5 33 59.9990000  0  5G20G16G23G17G 3
   3630015.797 6   2828583.23423  23477732.207
  -4576820.679 6  -3566336.62122  23491326.293
 -10473006.617 7  -8160773.77625  22119854.647
 -17905734.582 8 -13952500.79129  20278610.610
 -19376132.140 9 -15098257.09928  20191878.246
 92  5  8  5 34 29.9990000  0  5G20G16G23G17G 3
   3738231.847 6   2912907.34022  23498323.446
  -4483432.938 6  -3493566.94624  23509097.996
 -10565550.698 7  -8232885.96425  22102243.032
 -17932768.659 8 -13973566.27829  20273465.867
 -19383071.829 9 -15103664.63929  20190557.073
 92  5  8  5 34 59.9990000  0  5G20G16G23G17G 3
   3846536.054 5   2997300.17323  23518930.286
  -4389796.530 6  -3420603.57623  23526918.246
 -10657787.159 7  -8304758.43625  22084690.189
 -17959496.537 8 -13994393.16829  20268377.191
 -19389637.320 9 -15108780.59628  20189311.127
 92  5  8  5 35 29.9990000  0  5G20G16G23G17G 3
   3954922.830 5   3081757.34122  23539552.709
  -4295913.187 6  -3347447.73322  23544781.684
 -10749720.820 6  -8376394.96825  22067192.804
 -17985917.711 8 -14014981.06929  20263351.476
 -19395830.325 9 -15113606.29528  20188131.143
 92  5  8  5 35 59.9990000  0  5G20G16G23G17G 3
   4063390.721 5   3166277.71024  23560197.311
  -4201796.598 6  -3274110.13323  23562696.689
 -10841341.878 6  -8447787.90825  22049761.066
 -18012022.648 8 -14035322.55129  20258384.219
 -19401647.602 9 -15118139.22729  20187023.421
 92  5  8  5 36 29.9990000  0  5G20G16G23G17G 3
   4171935.014 5   3250857.58922  23580855.420
  -4107457.818 5  -3200599.42223  23580634.169
 -10932648.514 6  -8518935.83724  22032385.099
 -18037797.170 9 -14055406.56129  20253482.313
 -19407089.590 9 -15122379.73129  20185984.627
 92  5  8  5 36 59.9990000  0  5G20G16G23G17G 3
   4280539.794 4   3335484.57823  23601518.014
  -4012925.272 5  -3126937.73824  23598627.403
 -11023652.139 6  -8589847.66125  22015066.386
 -18063254.220 9 -14075243.19229  20248636.754
 -19412167.816 9 -15126336.77928  20185020.502
 92  5  8  5 37 29.9990000  0  5G20G16G23G17G 3
   4389215.405 4   3420166.78023  23622194.393
  -3918212.135 6  -3053135.32923  23616652.727
 -11114321.206 7  -8660498.78925  21997816.636
 -18088381.104 9 -14094822.54929  20243854.470
 -19416867.825 9 -15129999.12229  20184127.121
 92  5  8  5 37 59.9990000  0  5G20G16G23G17G 3
   4497960.600 5   3504903.23721  23642896.860
  -3823321.443 6  -2979194.53222  23634717.332
 -11204651.683 6  -8730886.09825  21980625.327
 -18113186.620 9 -14114151.49829  20239133.645
 -19421186.938 9 -15133364.65728  20183305.094
 92  5  8  5 38 29.9990000  0  5G20G16G23G17G 3
   4606770.285 5   3589689.99322  23663598.140
  -3728248.558 6  -2905111.78023  23652807.397
 -11294656.604 7  -8801019.70126  21963499.090
 -18137683.535 8 -14133239.96529  20234473.372
 -19425125.567 9 -15136433.70129  20182552.902
 92  5  8  5 38 59.9990000  0  5G20G16G23G17G 3
   4715684.451 5   3674558.10522  23684327.586
  -3632940.950 6  -2830846.16922  23670940.948
 -11384305.365 7  -8870875.78626  21946438.798
 -18161840.300 8 -14152063.39829  20229873.949
 -19428639.690 9 -15139171.97429  20181886.164
 92  5  8  5 39 29.9990000  0  5G20G16G23G17G 3
   4824647.229 5   3759464.07222  23705060.032
  -3537444.558 6  -2756433.36823  23689111.074
 -11473650.553 7  -8940495.32625  21929436.963
 -18185706.569 9 -14170660.45429  20225333.891
 -19431780.704 9 -15141619.49529  20181285.388
 92  5  8  5 39 59.9990000  0  5G20G16G23G17G 3
   4933671.343 6   3844417.86422  23725808.673
  -3441734.382 6  -2681854.01223  23707330.951
 -11562692.317 7  -9009878.40826  21912490.603
 -18209250.853 9 -14189006.63829  20220851.994
 -19434531.569 9 -15143763.02729  20180765.546
 92  5  8  5 40 29.9990000  0  5G20G16G23G17G 3
   5042740.061 6   3929406.51822  23746566.597
  -3345830.273 6  -2607123.61623  23725575.119
 -11651454.206 7  -9079043.40426  21895600.886
 -18232474.460 8 -14207102.93129  20216435.745
 -19436904.489 9 -15145612.05628  20180311.369
 92  5  8  5 40 59.9990000  0  5G20G16G23G17G 3
   5151857.675 6   4014433.17922  23767330.820
  -3249724.248 6  -2532235.81322  23743863.366
 -11739917.948 7  -9147976.07727  21878765.754
 -18255362.662 8 -14224937.85529  20212076.472
 -19438891.027 9 -15147159.99329  20179937.219
 92  5  8  5 41 29.9990000  0  5G20G16G23G17G 3
   5261027.754 6   4099500.68123  23788101.640
  -3153425.592 5  -2457197.89123  23762186.077
 -11828073.843 7  -9216668.85726  21861991.453
 -18277903.816 8 -14242502.36629  20207790.035
 -19440483.582 9 -15148400.94229  20179632.329
 92  5  8  5 41 59.9990000  0  5G20G16G23G17G 3
   5370241.933 6   4184602.57821  23808882.057
  -3056956.974 5  -2382027.52023  23780534.876
 -11915931.108 7  -9285128.97927  21845271.736
 -18300114.805 8 -14259809.60229  20203563.872
 -19441686.498 9 -15149338.25929  20179402.387
 92  5  8  5 42 29.9990000  0  5G20G16G23G17G 3
   5479497.820 6   4269737.04721  23829675.056
  -2960318.091 5  -2306724.48624  23798937.946
 -12003482.576 7  -9353350.81026  21828610.164
 -18322018.582 9 -14276877.44929  20199393.147
 -19442497.502 9 -15149970.21028  20179250.693
 92  5  8  5 42 59.9990000  0  5G20G16G23G17G 3
   5588794.878 6   4354903.54922  23850476.152
  -2863504.049 5  -2231284.91823  23817360.490
 -12090709.346 7  -9421319.65025  21812011.865
 -18343620.395 8 -14293710.01029  20195282.696
 -19442913.465 9 -15150294.32928  20179168.258
 92  5  8  5 43 29.9990000  0  5G20G16G23G17G 3
   5698129.137 6   4440098.99523  23871280.860
  -2766527.952 6  -2155719.15723  23835805.213
 -12177609.377 7  -9489033.87326  21795475.899
 -18364918.243 8 -14310305.70729  20191231.000
 -19442933.962 9 -15150310.32529  20179165.256
 92  5  8  5 43 59.9990000  0  5G20G16G23G17G 3
   5807501.347 6   4525324.03224  23892091.257
  -2669370.963 6  -2080012.45723  23854303.613
 -12264166.369 7  -9556480.82226  21779004.115
 -18385911.244 8 -14326663.85829  20187236.261
 -19442554.302 9 -15150014.47428  20179236.610
 92  5  8  5 44 29.9990000  0  5G20G16G23G17G 3
   5916904.932 6   4610573.52723  23912910.640
  -2572015.101 6  -2004150.68523  23872829.287
 -12350374.938 7  -9623656.26826  21762600.666
 -18406597.824 9 -14342783.24729  20183298.794
 -19441776.755 9 -15149408.58028  20179386.508
 92  5  8  5 44 59.9990000  0  5G20G16G23G17G 3
   6026338.400 6   4695846.31722  23933735.713
  -2474472.027 6  -1928143.10923  23891390.334
 -12436221.488 7  -9690549.60725  21746263.773
 -18426961.671 9 -14358651.15529  20179425.177
 -19440598.419 9 -15148490.39429  20179608.352
 92  5  8  5 45 29.9990000  0  5G20G16G23G17G 3
   6135797.603 6   4781139.11524  23954570.103
  -2376752.854 6  -1851998.31724  23909993.051
 -12521712.569 7  -9757165.96125  21729997.029
 -18447011.649 8 -14374274.46529  20175610.019
 -19439019.544 9 -15147260.09328  20179907.833
 92  5  8  5 45 59.9990000  0  5G20G16G23G17G 3
   6245277.301 6   4866447.88724  23975399.085
  -2278855.648 6  -1775714.77523  23928614.667
 -12606846.142 7  -9823503.74426  21713792.058
 -18466763.585 8 -14389665.55329  20171850.614
 -19437041.271 9 -15145718.57728  20180285.874
 92  5  8  5 46 29.9990000  0  5G20G16G23G17G 3
   6354772.308 5   4951768.57824  23996230.457
  -2180804.155 5  -1699310.92222  23947263.854
 -12691622.811 7  -9889563.41525  21697663.520
 -18486219.365 9 -14404825.86629  20168146.089
 -19434664.823 9 -15143866.78928  20180737.957
 92  5  8  5 46 59.9990000  0  5G20G16G23G17G 3
   6464278.784 5   5037098.17624  24017073.520
  -2082614.370 5  -1622799.40123  23965962.810
 -12776040.145 7  -9955343.10226  21681599.740
 -18505380.573 9 -14419756.65729  20164498.209
 -19431889.684 9 -15141704.34728  20181267.397
 92  5  8  5 47 29.9990000  0  5G20G16G23G17G 3
   6573799.652 5   5122439.01624  24037912.692
  -1984267.430 5  -1546165.40622  23984676.458
 -12860096.008 7 -10020841.10025  21665603.718
 -18524247.252 8 -14434457.94329  20160911.491
 -19428708.900 9 -15139225.82329  20181872.972
 92  5  8  5 47 59.9990000  0  5G20G16G23G17G 3
   6683333.817 5   5207790.20224  24058758.164
  -1885753.781 5  -1469401.47523  24003410.192
 -12943782.322 7 -10086051.14626  21649677.236
 -18542808.588 8 -14448921.29429  20157376.932
 -19425119.497 9 -15136428.87429  20182554.106
 92  5  8  5 48 29.9990000  0  5G20G16G23G17G 3
   6792879.253 4   5293150.19324  24079606.934
  -1787083.180 5  -1392515.18922  24022194.287
 -13027107.636 7 -10150979.90626  21633822.108
 -18561048.476 8 -14463134.15729  20153906.834
 -19421119.276 9 -15133311.81427  20183317.082
 92  5  8  5 48 59.9990000  0  5G20G16G23G17G 3
   6902429.089 4   5378513.60524  24100456.297
  -1688249.880 5  -1315502.13123  24041005.360
 -13110085.878 7 -10215638.20526  21618030.254
 -18578964.659 9 -14477094.78929  20150500.900
 -19416711.322 9 -15129877.04428  20184154.099
 92  5  8  5 49 29.9990000  0  5G20G16G23G17G 3
   7011967.375 5   5463867.99525  24121299.378
  -1589275.982 5  -1238379.58222  24059828.421
 -13192743.511 7 -10280046.68425  21602300.436
 -18596569.638 9 -14490812.92829  20147149.220
 -19411907.519 9 -15126133.82728  20185069.660
 92  5  8  5 49 59.9990000  0  5G20G16G23G17G 3
   7121504.216 5   5549221.26224  24142143.349
  -1490164.403 5  -1161149.76322  24078696.172
 -13275080.904 7 -10344205.62026  21586635.079
 -18613846.852 8 -14504275.67129  20143858.999
 -19406693.823 9 -15122071.20629  20186061.076
 92  5  8  5 50 29.9990000  0  5G20G16G23G17G 3
   7231047.171 5   5634579.31226  24162984.912
  -1390913.598 5  -1083811.50724  24097589.994
 -13357092.064 7 -10408110.36426  21571027.883
 -18630791.692 8 -14517479.42029  20140635.926
 -19401058.020 9 -15117679.66928  20187134.631
 92  5  8  5 50 59.9990000  0  5G20G16G23G17G 3
   7340577.091 5   5719927.20425  24183823.194
  -1291535.131 5  -1006373.60421  24116494.897
 -13438785.355 7 -10471767.42027  21555481.554
 -18647439.029 9 -14530451.34429  20137466.530
 -19395015.685 9 -15112971.34028  20188284.950
 92  5  8  5 51 29.9990000  0  5G20G16G23G17G 3
   7450089.254 5   5805261.25325  24204664.460
  -1192040.662 5   -928845.41223  24135424.090
 -13520156.197 7 -10535173.21827  21539997.278
 -18663799.248 9 -14543199.54629  20134355.278
 -19388567.885 9 -15107947.08729  20189511.700
 92  5  8  5 51 59.9990000  0  5G20G16G23G17G 3
   7559612.696 6   5890604.08224  24225513.230
  -1092395.606 5   -851199.86621  24154389.563
 -13601160.589 7 -10598293.47326  21524583.745
 -18679833.746 9 -14555693.93829  20131303.689
 -19381681.498 8 -15102581.07228  20190821.182
 92  5  8  5 52 29.9990000  0  5G20G16G23G17G 3
   7669122.298 6   5975936.12924  24246348.197
   -992613.831 5   -773447.74822  24173385.608
 -13681797.622 7 -10661127.47927  21509239.472
 -18695568.453 9 -14567954.72229  20128307.871
 -19374377.604 8 -15096889.72428  20192211.929
 92  5  8  5 52 59.9990000  0  5G20G16G23G17G 3
   7778615.965 6   6061255.78523  24267184.071
   -892695.115 5   -695588.94523  24192401.756
 -13762065.344 7 -10723673.69926  21493963.830
 -18710992.729 9 -14579973.61329  20125371.104
 -19366654.772 8 -15090871.91828  20193679.702
 92  5  8  5 53 29.9990000  0  5G20G16G23G17G 3
   7888089.285 6   6146559.55623  24288016.054
   -792645.115 5   -617627.77923  24211435.267
 -13841967.125 7 -10785934.77126  21478760.171
 -18726094.556 9 -14591741.23429  20122499.688
 -19358512.895 9 -15084527.60228  20195232.038
 92  5  8  5 53 59.9990000  0  5G20G16G23G17G 3
   7997539.969 6   6231845.65522  24308848.036
   -692459.117 5   -539560.78024  24230504.778
 -13921495.618 7 -10847904.96026  21463622.735
 -18740882.542 9 -14603264.32129  20119686.730
 -19349950.662 9 -15077855.73928  20196862.604
 92  5  8  5 54 29.9990000  0  6G20G16G21G23G17G 3
   8106966.022 6   6317112.59922  24329668.921
   -592138.003 5   -461388.26824  24249588.667
   -260117.070 5   -202688.51722  24617427.705
 -14000649.959 7 -10909583.58426  21448562.674
 -18755374.202 9 -14614556.50429  20116930.137
 -19340966.089 9 -15070854.77828  20198571.417
 92  5  8  5 54 59.9990000  0  6G20G16G21G23G17G 3
   8216367.012 6   6402360.00723  24350487.711
   -491696.948 5   -383122.38821  24268691.438
   -371485.562 5   -289468.99622  24596232.077
 -14079446.809 7 -10970983.66627  21433568.557
 -18769569.367 9 -14625617.65829  20114227.517
 -19331555.665 9 -15063521.97727  20200360.273
 92  5  8  5 55 29.9990000  0  6G20G16G21G23G17G 3
   8325735.791 6   6487582.32923  24371298.108
   -391144.990 5   -304770.11423  24287830.785
   -482777.680 5   -376189.94722  24575055.052
 -14157876.622 7 -11032097.73527  21418643.979
 -18783480.846 8 -14636457.74929  20111580.336
 -19321722.836 8 -15055860.03229  20202233.083
 92  5  8  5 55 59.9990000  0  6G20G16G21G23G17G 3
   8435077.702 6   6572783.63921  24392103.392
   -290472.844 5   -226324.18421  24306978.228
   -593980.013 5   -462840.93322  24553891.497
 -14235912.653 7 -11092904.96427  21403792.867
 -18797095.535 8 -14647066.57629  20108987.740
 -19311458.461 9 -15047861.82728  20204183.843
 92  5  8  5 56 29.9990000  0  6G20G16G21G23G17G 3
   8544387.068 6   6657959.70621  24412907.803
   -189700.289 5   -147799.98321  24326157.745
   -705083.475 5   -549414.88822  24532746.528
 -14313561.718 7 -11153410.67126  21389016.685
 -18810400.090 8 -14657433.74029  20106457.197
 -19300764.238 8 -15039528.67027  20206220.318
 92  5  8  5 56 59.9990000  0  6G20G16G21G23G17G 3
   8653663.859 6   6743110.28721  24433702.006
    -88831.161 5    -69200.56022  24345371.150
   -816078.196 5   -635904.07522  24511629.757
 -14390804.637 7 -11213599.91227  21374318.472
 -18823369.146 9 -14667539.48129  20103990.800
 -19289636.438 8 -15030857.66228  20208338.652
 92  5  8  5 57 29.9990000  0  6G20G16G21G23G17G 3
   8762899.992 5   6828229.18222  24454491.707
     12134.257 5      9473.87923  24364571.066
   -926981.170 6   -722321.81422  24490526.755
 -14467634.004 7 -11273466.88327  21359699.081
 -18836007.250 8 -14677387.34529  20101585.864
 -19278079.499 8 -15021852.25028  20210535.530
 92  5  8  5 57 59.9990000  0  6G20G16G21G23G17G 3
   8872093.675 5   6913315.05423  24475267.918
    113193.770 5     88221.64022  24383806.651
  -1037801.980 6   -808675.56924  24469437.260
 -14544069.962 7 -11333027.30426  21345153.452
 -18848316.519 8 -14686978.96229  20099244.481
 -19266091.326 8 -15012510.82627  20212816.361
 92  5  8  5 58 29.9990000  0  6G20G16G21G23G17G 3
   8981246.977 5   6998369.43122  24496036.347
    214343.792 5    167040.03123  24403053.909
  -1148538.470 5   -894963.56123  24448368.146
 -14620127.761 7 -11392293.05027  21330680.381
 -18860310.552 8 -14696324.93729  20096958.572
 -19253666.257 8 -15002828.95428  20215181.424
 92  5  8  5 58 59.9990000  0  6G20G16G21G23G17G 3
   9090358.124 5   7083390.98321  24516800.274
    315603.474 5    245943.77223  24422322.178
  -1259188.532 5   -981184.24424  24427307.129
 -14695806.701 7 -11451263.60527  21316280.740
 -18871991.110 9 -14705426.66429  20094737.997
 -19240801.735 8 -14992804.65527  20217631.626
 92  5  8  5 59 29.9990000  0  6G20G16G21G23G17G 3
   9199417.869 5   7168372.45822  24537546.210
    416972.475 5    324932.69124  24441609.921
  -1369762.794 5  -1067345.88224  24406267.088
 -14771133.722 7 -11509959.91427  21301942.577
 -18883385.299 9 -14714305.24129  20092568.097
 -19227503.799 8 -14982442.62627  20220161.576
 92  5  8  5 59 59.9990000  0  5G16G21G23G17G 3
    518448.517 5    404005.05324  24460922.862
  -1480254.748 6  -1153443.36725  24385238.755
 -14846101.461 7 -11568376.26827  21287677.251
 -18894491.755 9 -14722959.60029  20090458.470
 -19213771.294 8 -14971741.97728  20222774.258
 92  5  8  6  0 29.9990000  0  4G21G23G17G 3
  -1590652.328 6  -1239467.29724  24364232.288
 -14920693.288 7 -11626499.70028  21273482.371
 -18905291.884 9 -14731375.26329  20088401.893
 -19199596.880 8 -14960696.99728  20225468.798
 92  5  8  6  0 59.9990000  0  4G21G23G17G 3
  -1700968.169 5  -1325427.55524  24343243.218
 -14994904.816 7 -11684326.81828  21259361.847
 -18915774.704 9 -14739543.67629  20086404.663
 -19184982.469 8 -14949309.15327  20228253.277
 92  5  8  6  1 29.9990000  0  4G21G23G17G 3
  -1811207.618 5  -1411328.27523  24322260.745
 -15068743.588 7 -11741863.46927  21245309.082
 -18925950.016 9 -14747472.48729  20084468.613
 -19169935.793 9 -14937584.47028  20231118.987
 92  5  8  6  1 59.9990000  0  4G21G23G17G 3
  -1921352.738 5  -1497155.50824  24301302.562
 -15142201.809 7 -11799103.59027  21231330.358
 -18935799.831 9 -14755147.67129  20082594.617
 -19154451.206 8 -14925518.54627  20234061.146
 92  5  8  6  2 29.9990000  0  4G21G23G17G 3
  -2031396.803 5  -1582904.00225  24280359.055
 -15215282.434 8 -11856049.48027  21217425.989
 -18945325.227 9 -14762570.05329  20080782.656
 -19138524.772 8 -14913108.35227  20237093.854
 92  5  8  6  2 59.9990000  0  4G21G23G17G 3
  -2141334.860 5  -1668569.86824  24259439.542
 -15287973.319 8 -11912691.68127  21203591.160
 -18954535.546 8 -14769746.91629  20079028.578
 -19122156.636 8 -14900353.96627  20240206.903
 92  5  8  6  3 29.9990000  0  4G21G23G17G 3
  -2251155.770 4  -1754144.46024  24238543.412
 -15360271.140 7 -11969027.60127  21189834.874
 -18963442.289 8 -14776687.22229  20077333.551
 -19105352.206 8 -14887259.60927  20243405.389
 92  5  8  6  3 59.9990000  0  4G21G23G17G 3
  -2360854.644 4  -1839623.94622  24217667.665
 -15432165.614 7 -12025049.21728  21176154.148
 -18972048.931 8 -14783393.68529  20075699.076
 -19088104.012 8 -14873819.45027  20246688.403
 92  5  8  6  4 29.9990000  0  4G21G23G17G 3
  -2470444.764 4  -1925018.72922  24196811.095
 -15503642.750 8 -12080745.63327  21162549.871
 -18980354.773 8 -14789865.75929  20074114.980
 -19070408.759 8 -14860030.96127  20250055.981
 92  5  8  6  4 59.9990000  0  4G21G23G17G 3
  -2579921.851 4  -2010325.46424  24175980.316
 -15574695.565 8 -12136111.40227  21149031.327
 -18988357.387 8 -14796101.55929  20072594.438
 -19052266.613 8 -14845894.22527  20253507.791
 92  5  8  6  5 29.9990000  0  4G21G23G17G 3
  -2689282.476 5  -2095541.43423  24155162.433
 -15645332.464 8 -12191153.09727  21135587.138
 -18996061.946 8 -14802105.11429  20071125.741
 -19033673.224 8 -14831405.86927  20257046.835
 92  5  8  6  5 59.9990000  0  4G21G23G17G 3
  -2798524.092 5  -2180664.67622  24134385.907
 -15715564.228 8 -12245879.10927  21122226.292
 -19003476.888 8 -14807882.98029  20069716.130
 -19014626.410 8 -14816564.20227  20260670.425
 92  5  8  6  6 29.9990000  0  4G21G23G17G 3
  -2907648.785 5  -2265696.80822  24113606.694
 -15785388.232 7 -12300287.38027  21108936.188
 -19010597.739 9 -14813431.69029  20068361.661
 -18995131.294 8 -14801373.21428  20264379.154
 92  5  8  6  6 59.9990000  0  4G21G23G17G 3
  -3016635.831 5  -2350621.68521  24092875.155
 -15854813.811 7 -12354385.17427  21095723.128
 -19017437.660 9 -14818761.49329  20067059.962
 -18975184.123 8 -14785829.96827  20268176.339
 92  5  8  6  7 29.9990000  0  4G21G23G17G 3
  -3125486.135 5  -2435440.00421  24072155.900
 -15923855.085 8 -12408183.51427  21082585.923
 -19024002.174 8 -14823876.68429  20065812.830
 -18954786.050 8 -14769935.36927  20272056.255
 92  5  8  6  7 59.9990000  0  4G21G23G17G 3
  -3234204.964 5  -2520155.89121  24051468.720
 -15992498.939 8 -12461672.19927  21069524.575
 -19030264.479 8 -14828756.38929  20064617.560
 -18933933.829 8 -14753686.89927  20276024.592
 92  5  8  6  8 29.9990000  0  4G21G23G17G 3
  -3342805.076 5  -2604779.27322  24030811.222
 -16060741.586 8 -12514848.26028  21056537.268
 -19036209.474 8 -14833388.83829  20063487.344
 -18912629.873 8 -14737086.40627  20280079.586
 92  5  8  6  8 59.9990000  0  4G21G23G17G 3
  -3451298.121 5  -2689319.26421  24010163.304
 -16128590.377 8 -12567717.40627  21043627.597
 -19041836.697 8 -14837773.67729  20062417.681
 -18890875.104 8 -14720134.65727  20284213.735
 92  5  8  6  9 29.9990000  0  4G21G23G17G 3
  -3559692.845 5  -2773782.63122  23989535.489
 -16196026.954 7 -12620265.34027  21030794.393
 -19047120.905 8 -14841891.23629  20061412.775
 -18868666.527 8 -14702829.29027  20288444.104
 92  5  8  6  9 59.9990000  0  4G21G23G17G 3
  -3667988.019 5  -2858168.41222  23968923.257
 -16263034.681 7 -12672479.08527  21018041.808
 -19052057.867 8 -14845738.19929  20060472.627
 -18845997.678 8 -14685165.25327  20292759.316
 92  5  8  6 10 29.9990000  0  4G21G23G17G 3
  -3776178.225 5  -2942472.43121  23948340.114
 -16329626.098 8 -12724368.46227  21005372.881
 -19056684.284 8 -14849343.19629  20059590.030
 -18822873.527 8 -14667146.43227  20297159.964
 92  5  8  6 10 59.9990000  0  4G21G23G17G 3
  -3884247.388 5  -3026682.15924  23927772.554
 -16395796.307 8 -12775929.63127  20992779.809
 -19061017.443 8 -14852719.67929  20058767.113
 -18799292.438 8 -14648771.57427  20301646.066
 92  5  8  6 11 29.9990000  0  4G21G23G17G 3
  -3992177.186 5  -3110783.2102   23907240.367
 -16461553.424 8 -12827168.90528  20980267.671
 -19065077.685 8 -14855883.49129  20057992.445
 -18775255.055 8 -14630041.15527  20306219.698
 92  5  8  6 11 59.9990000  0  4G21G23G17G 3
  -4099958.946 4  -3194768.96421  23886717.165
 -16526906.868 7 -12878093.62627  20967830.779
 -19068884.681 9 -14858849.97729  20057269.936
 -18750761.367 8 -14610955.17826  20310882.065
 92  5  8  6 12 29.9990000  0  4G21G23G17G 3
  -4207583.391 4  -3278632.11022  23866243.750
 -16591860.983 7 -12928707.16328  20955468.538
 -19072430.856 9 -14861613.21929  20056596.009
 -18725809.838 8 -14591512.44227  20315629.589
 92  5  8  6 12 59.9990000  0  4G21G23G17G 3
  -4315043.850 4  -3362367.46322  23845799.092
 -16656406.276 8 -12979002.15828  20943189.030
 -19075687.801 8 -14864151.09229  20055976.927
 -18700390.034 8 -14571704.79727  20320464.939
 92  5  8  6 13 29.9990000  0  4G21G23G17G 3
  -4422358.558 4  -3445989.21923  23825375.130
 -16720550.840 8 -13028984.89527  20930977.594
 -19078658.262 8 -14866465.73129  20055409.132
 -18674512.916 8 -14551540.82926  20325392.916
 92  5  8  6 13 59.9990000  0  4G21G23G17G 3
  -4529524.425 4  -3529494.99322  23804985.354
 -16784273.657 7 -13078638.99828  20918855.783
 -19081308.342 9 -14868530.70729  20054903.983
 -18648167.811 8 -14531012.18726  20330405.456
 92  5  8  6 14 29.9990000  0  4G21G23G17G 3
  -4636551.720 4  -3612892.77324  23784616.552
 -16847565.700 7 -13127957.42526  20906811.014
 -19083639.073 8 -14870346.85329  20054462.388
 -18621364.216 8 -14510126.28127  20335505.526
 92  5  8  6 14 59.9990000  0  4G21G23G17G 3
  -4743434.234 4  -3696177.74622  23764270.837
 -16910412.208 7 -13176928.69128  20894850.792
 -19085658.362 8 -14871920.31229  20054075.953
 -18594097.445 8 -14488879.44027  20340696.722
 92  5  8  6 15 29.9990000  0  4G21G23G17G 3
  -4850165.484 4  -3779344.87022  23743965.589
 -16972806.631 8 -13225547.68528  20882975.710
 -19087367.455 8 -14873252.06029  20053753.072
 -18566362.073 8 -14467267.49627  20345973.371
 92  5  8  6 15 59.9990000  0  4G21G23G17G 3
  -4956742.209 5  -3862391.57024  23723682.242
 -17034756.258 8 -13273820.08228  20871189.379
 -19088764.516 8 -14874340.67129  20053485.961
 -18538160.018 8 -14445291.89027  20351338.755
 92  5  8  6 16 29.9990000  0  4G21G23G17G 3
  -5063174.316 5  -3945325.59024  23703432.450
 -17096270.418 8 -13321753.15727  20859483.075
 -19089869.100 8 -14875201.36829  20053277.309
 -18509494.480 8 -14422955.12026  20356790.185
 92  5  8  6 16 59.9990000  0  4G21G23G17G 3
  -5169459.184 5  -4028144.86824  23683207.858
 -17157367.911 7 -13369361.55327  20847856.222
 -19090680.270 8 -14875833.43429  20053123.503
 -18480360.670 8 -14400253.44627  20362335.742
 92  5  8  6 17 29.9990000  0  4G21G23G17G 3
  -5275595.479 4  -4110848.41823  23663007.834
 -17218045.502 8 -13416642.74228  20836310.320
 -19091185.368 8 -14876227.00229  20053023.077
 -18450758.515 8 -14377186.85127  20367971.255
 92  5  8  6 17 59.9990000  0  4G21G23G17G 3
  -5381581.735 4  -4193435.00822  23642838.402
 -17278304.652 8 -13463597.89928  20824839.960
 -19091392.435 8 -14876388.34529  20052988.298
 -18420691.743 8 -14353758.22026  20373694.577
 92  5  8  6 18 29.9990000  0  4G21G23G17G 3
  -5487411.925 5  -4275899.99121  23622695.057
 -17338143.862 8 -13510225.81828  20813455.944
 -19091304.495 9 -14876319.81629  20053002.398
 -18390155.150 8 -14329963.48226  20379501.260
 92  5  8  6 18 59.9990000  0  5G21G23G28G17G 3
  -5593072.933 4  -4358233.16823  23602590.661
 -17397558.708 8 -13556523.06427  20802150.175
  -2572429.351 5  -2004490.79623  24460463.573
 -19090915.666 9 -14876016.83329  20053076.440
 -18359151.178 8 -14305804.56026  20385404.476
 92  5  8  6 19 29.9990000  0  5G21G23G28G17G 3
  -5698562.331 4  -4440432.59624  23582523.452
 -17456538.068 7 -13602480.96228  20790926.544
  -2683250.793 5  -2090845.41222  24439369.278
 -19090228.118 9 -14875481.07729  20053208.346
 -18327676.444 8 -14281278.79427  20391393.426
 92  5  8  6 19 59.9990000  0  5G21G23G28G17G 3
  -5803891.179 4  -4522506.98122  23562469.435
 -17515092.177 8 -13648107.49228  20779783.847
  -2794067.492 5  -2177195.85323  24418284.878
 -19089254.936 8 -14874722.74529  20053393.929
 -18295731.300 8 -14256386.50527  20397472.331
 92  5  8  6 20 29.9990000  0  5G21G23G28G17G 3
  -5909065.467 4  -4604460.85522  23542463.388
 -17573214.390 8 -13693397.49428  20768724.806
  -2904867.692 5  -2263533.49822  24397202.275
 -19087993.861 8 -14873740.07829  20053630.763
 -18263315.707 8 -14231127.60926  20403640.547
 92  5  8  6 20 59.9990000  0  5G21G23G28G17G 3
  -6014088.605 5  -4686297.01222  23522478.334
 -17630910.666 8 -13738355.58928  20757745.810
  -3015637.430 5  -2349847.37322  24376116.968
 -19086449.138 8 -14872536.39229  20053927.556
 -18230435.977 8 -14205507.05226  20409895.124
 92  5  8  6 21 29.9990000  0  5G21G23G28G17G 3
  -6118959.265 5  -4768014.29522  23502522.335
 -17688192.038 8 -13782990.38728  20746843.856
  -3126348.785 6  -2436115.78623  24355048.447
 -19084623.358 8 -14871113.69429  20054272.320
 -18197086.022 8 -14179520.07826  20416243.531
 92  5  8  6 21 59.9990000  0  5G21G23G28G17G 3
  -6223670.831 4  -4849607.64422  23482596.333
 -17745053.922 8 -13827298.29328  20736024.355
  -3236983.731 6  -2522324.72922  24333994.620
 -19082501.492 8 -14869460.27829  20054679.137
 -18163264.115 8 -14153165.36927  20422676.484
 92  5  8  6 22 29.9990000  0  5G21G23G28G17G 3
  -6328207.375 4  -4931064.63622  23462709.000
 -17801489.993 8 -13871274.41029  20725281.879
  -3347537.305 6  -2608470.20122  24312959.395
 -19080068.658 8 -14867564.55129  20055142.318
 -18128969.418 8 -14126442.25027  20429207.751
 92  5  8  6 22 59.9990000  0  5G21G23G28G17G 3
  -6432561.342 4  -5012379.31621  23442843.864
 -17857493.240 8 -13914913.26928  20714626.671
  -3458014.341 6  -2694556.02822  24291936.734
 -19077317.047 8 -14865420.42629  20055664.551
 -18094196.997 8 -14099346.87427  20435823.268
 92  5  8  6 23 29.9990000  0  5G21G23G28G17G 3
  -6536744.396 5  -5093560.84722  23423019.789
 -17913046.108 8 -13958201.17429  20704055.975
  -3568442.502 6  -2780603.84822  24270923.687
 -19074242.016 8 -14863024.29329  20056247.650
 -18058953.674 8 -14071884.57026  20442528.724
 92  5  8  6 23 59.9990000  0  5G21G23G28G17G 3
  -6640745.041 5  -5174600.22622  23403229.881
 -17968122.316 8 -14001117.66028  20693574.641
  -3678838.729 6  -2866626.66222  24249913.643
 -19070830.822 9 -14860366.22229  20056899.992
 -18023237.320 8 -14044053.64626  20449324.729
 92  5  8  6 24 29.9990000  0  5G21G23G28G17G 3
  -6744551.450 4  -5255488.22622  23383464.263
 -18022718.095 8 -14043659.78728  20683184.136
  -3789204.831 6  -2952626.05322  24228912.271
 -19067088.376 8 -14857450.01729  20057610.809
 -17987039.266 8 -14015847.39727  20456216.361
 92  5  8  6 24 59.9990000  0  5G21G23G28G17G 3
  -6848181.231 3  -5336238.60823  23363752.916
 -18076850.647 8 -14085840.96029  20672882.365
  -3899540.450 6  -3038601.75524  24207917.512
 -19063035.567 8 -14854291.97229  20058382.178
 -17950369.922 8 -13987273.91826  20463192.521
 92  5  8  6 25 29.9990000  0  5G21G23G28G17G 3
  -6951627.848 3  -5416846.31922  23344065.842
 -18130536.667 8 -14127674.17528  20662669.625
  -4009826.851 6  -3124539.06523  24186934.428
 -19058684.092 8 -14850901.20729  20059209.301
 -17913224.143 8 -13958329.16726  20470259.528
 92  5  8  6 25 59.9990000  0  5G21G23G28G17G 3
  -7054889.114 4  -5497309.57821  23324414.437
 -18183802.543 8 -14169180.00928  20652531.851
  -4120048.186 5  -3210425.73223  24165954.660
 -19054064.277 8 -14847301.34229  20060089.490
 -17875602.900 8 -13929013.93526  20477418.584
 92  5  8  6 26 29.9990000  0  5G21G23G28G17G 3
    -17167.56014    -13371.28722  23304807.110
 -18236659.328 8 -14210367.07328  20642474.715
  -4230190.101 5  -3296250.47122  24144997.070
 -19049194.505 9 -14843506.70629  20061016.742
 -17837504.420 8 -13899326.81926  20484669.063
 92  5  8  6 26 59.9990000  0  5G21G23G28G17G 3
   -120062.062 5    -93548.76722  23285224.371
 -18289107.028 8 -14251235.37728  20632491.620
  -4340248.311 5  -3382010.01822  24124055.361
 -19044076.060 8 -14839518.29029  20061990.168
 -17798929.906 8 -13869268.79526  20492011.277
 92  5  8  6 27 29.9990000  0  5G21G23G28G17G 3
   -222760.694 5   -173573.59222  23265684.804
 -18341136.922 8 -14291778.12829  20622591.570
  -4450230.511 5  -3467710.32223  24103128.048
 -19038708.789 9 -14835335.98829  20063012.768
 -17759879.880 8 -13838840.22226  20499443.726
 92  5  8  6 27 59.9990000  0  5G21G23G28G17G 3
   -325267.620 4   -253449.06423  23246170.714
 -18392731.272 8 -14331981.49729  20612774.880
  -4560139.754 4  -3553353.72022  24082216.335
 -19033074.087 8 -14830945.30929  20064083.321
 -17720359.115 8 -13808044.82826  20506962.833
 92  5  8  6 28 29.9990000  0  5G21G23G28G17G 3
   -427586.678 4   -333178.09021  23226705.188
 -18443883.471 8 -14371840.33929  20603041.515
  -4669980.587 4  -3638943.85423  24061306.699
 -19027145.398 8 -14826325.53629  20065210.239
 -17680370.981 8 -13776885.24826  20514569.766
 92  5  8  6 28 59.9990000  0  5G21G23G28G17G 3
   -529719.432 5   -412761.98622  23207267.844
 -18494580.071 8 -14411344.13628  20593393.883
  -4779743.535 4  -3724473.28922  24040418.962
 -19020894.470 9 -14821454.67029  20066401.914
 -17639907.137 8 -13745355.01427  20522271.420
 92  5  8  6 29 29.9990000  0  5G21G23G28G17G 3
   -631680.569 5   -492212.12623  23187864.668
 -18544816.275 8 -14450489.19228  20583835.003
  -4889431.581 4  -3809944.34222  24019543.215
 -19014319.988 8 -14816331.67929  20067649.954
 -17598972.320 8 -13713457.77326  20530060.028
 92  5  8  6 29 59.9990000  0  5G21G23G28G17G 3
   -733475.264 5   -571532.55523  23168495.991
 -18594595.685 8 -14489278.33328  20574360.669
  -4999041.717 4  -3895354.72523  23998687.849
 -19007411.230 9 -14810948.22329  20068963.641
 -17557563.113 8 -13681190.87727  20537941.576
 92  5  8  6 30 29.9990000  0  5G21G23G28G17G 3
   -835100.124 5   -650720.63024  23149154.571
 -18643924.531 8 -14527716.35129  20564972.365
  -5108572.622 5  -3980703.36722  23977845.082
 -19000176.700 8 -14805310.90729  20070345.681
 -17515676.922 8 -13648552.29626  20545910.358
 92  5  8  6 30 59.9990000  0  5G21G23G28G17G 3
   -936555.995 5   -729777.05425  23129851.245
 -18692806.073 8 -14565805.80928  20555670.997
  -5218026.239 5  -4065991.74821  23957024.791
 -18992633.090 9 -14799432.76229  20071778.396
 -17473317.283 8 -13615544.80326  20553973.283
 92  5  8  6 31 29.9990000  0  5G21G23G28G17G 3
  -1037823.611 5   -808686.79422  23110577.880
 -18741237.555 8 -14603544.58827  20546454.490
  -5327406.243 5  -4151222.84023  23936208.112
 -18984793.420 8 -14793323.91829  20073270.163
 -17430483.022 8 -13582167.49526  20562123.442
 92  5  8  6 31 59.9990000  0  5G21G23G28G17G 3
  -1138884.697 5   -887435.59924  23091345.298
 -18789217.896 8 -14640931.81528  20537325.514
  -5436706.573 6  -4236391.78423  23915409.407
 -18976671.551 9 -14786995.18729  20074817.090
 -17387167.720 8 -13548415.32426  20570365.930
 92  5  8  6 32 29.9990000  0  5G21G23G28G17G 3
  -1239730.174 5   -966016.34924  23072154.386
 -18836749.265 8 -14677969.21829  20528278.361
  -5545929.058 6  -4321500.12322  23894619.392
 -18968295.272 8 -14780468.20529  20076410.783
 -17343377.369 8 -13514292.98926  20578698.357
 92  5  8  6 32 59.9990000  0  5G21G23G28G17G 3
  -1340344.922 5  -1044417.32623  23053008.129
 -18883836.688 8 -14714660.67829  20519319.070
  -5655071.796 6  -4406546.28024  23873854.575
 -18959674.029 8 -14773750.34329  20078049.149
 -17299108.638 8 -13479797.88126  20587121.926
 92  5  8  6 33 29.9990000  0  5G21G23G28G17G 3
  -1440723.147 5  -1122634.02624  23033905.951
 -18930491.357 8 -14751014.93528  20510439.823
  -5764141.807 6  -4491535.79822  23853096.337
 -18950810.940 8 -14766844.02429  20079736.690
 -17254364.681 8 -13444932.48525  20595639.028
 92  5  8  6 33 59.9990000  0  5G21G23G28G17G 3
  -1540868.490 5  -1200669.25722  23014851.448
 -18976722.459 8 -14787039.13228  20501643.012
  -5873122.454 6  -4576455.67723  23832360.906
 -18941688.732 9 -14759735.80129  20081475.186
 -17209143.043 8 -13409694.85326  20604242.771
 92  5  8  6 34 29.9990000  0  5G21G23G28G17G 3
  -1640791.712 5  -1278531.42123  22995829.315
 -19022532.634 8 -14822735.33529  20492926.837
  -5982005.423 6  -4661299.45523  23811640.448
 -18932287.618 9 -14752410.23929  20083265.246
 -17163445.261 8 -13374086.20926  20612937.953
 92  5  8  6 34 59.9990000  0  5G21G23G28G17G 3
  -1740508.460 5  -1356232.70922  22976857.857
 -19067902.286 8 -14858088.26129  20484294.319
  -6090788.067 6  -4746065.07122  23790934.072
 -18922583.085 9 -14744848.25329  20085107.466
 -17117268.062 8 -13338103.98225  20621726.982
 92  5  8  6 35 29.9990000  0  5G21G23G28G17G 3
  -1840037.224 5  -1433787.45121  22957924.754
 -19112809.848 8 -14893081.12828  20475745.143
  -6199456.746 6  -4830741.87724  23770254.691
 -18912566.120 9 -14737042.81829  20087014.757
 -17070615.474 8 -13301751.34626  20630604.134
 92  5  8  6 35 59.9990000  0  5G21G23G28G17G 3
  -1939391.454 5  -1511206.25023  22939007.863
 -19157233.143 8 -14927696.66228  20467292.782
  -6307993.970 6  -4915316.19924  23749601.696
 -18902239.169 9 -14728995.83829  20088982.287
 -17023484.159 8 -13265025.65526  20639571.819
 92  5  8  6 36 29.9990000  0  5G21G23G28G17G 3
  -2038567.205 5  -1588485.93022  22920141.613
 -19201162.289 8 -14961927.13428  20458934.878
  -6416418.729 6  -4999802.93923  23728968.174
 -18891613.455 8 -14720716.05529  20091005.884
 -16975874.945 8 -13227927.58626  20648631.256
 92  5  8  6 36 59.9990000  0  5G21G23G28G17G 3
  -2137548.848 5  -1665614.38622  22901313.753
 -19244599.655 8 -14995774.41229  20450668.692
  -6524724.717 6  -5084197.11722  23708362.538
 -18880697.454 9 -14712210.07729  20093078.656
 -16927788.718 8 -13190457.81225  20657784.210
 92  5  8  6 37 29.9990000  0  5G21G23G28G17G 3
  -2236323.363 5  -1742581.42323  22882508.072
 -19287577.186 8 -15029263.36329  20442490.351
  -6632912.364 5  -5168499.08122  23687770.095
 -18869506.319 8 -14703489.71129  20095207.477
 -16879228.220 8 -13152618.48126  20667024.711
 92  5  8  6 37 59.9990000  0  5G21G23G28G17G 3
  -2334869.223 5  -1819370.33522  22863754.846
 -19330119.036 8 -15062412.82429  20434394.759
  -6740998.226 5  -5252721.74123  23667201.331
 -18858038.300 9 -14694553.58029  20097390.569
 -16830185.297 8 -13114403.23626  20676356.057
 92  5  8  6 38 29.9990000  0  5G21G23G28G17G 3
  -2433183.746 5  -1895978.98322  22845050.499
 -19372252.758 8 -15095244.26329  20426375.912
  -6848991.618 5  -5336872.34923  23646653.264
 -18846289.262 9 -14685398.48329  20099624.616
 -16780667.875 8 -13075818.24826  20685780.623
 92  5  8  6 38 59.9990000  0  5G21G23G28G17G 3
  -2531262.243 5  -1972403.65622  22826387.822
 -19413970.611 8 -15127751.63029  20418437.110
  -6956874.582 5  -5420936.92622  23626118.074
 -18834253.925 9 -14676020.29329  20101916.824
 -16730672.078 8 -13036860.49126  20695290.346
 92  5  8  6 39 29.9990000  0  5G21G23G28G17G 3
  -2629107.970 5  -2048647.00723  22807765.020
 -19455271.360 8 -15159934.00029  20410580.743
  -7064658.639 5  -5504924.40122  23605612.568
 -18821925.597 9 -14666413.80529  20104264.804
 -16680193.845 8 -12997526.81426  20704898.995
 92  5  8  6 39 59.9990000  0  5G21G23G28G17G 3
  -2726731.210 6  -2124716.98822  22789191.968
 -19496138.387 8 -15191778.41629  20402801.436
  -7172336.569 5  -5588829.19822  23585127.460
 -18809296.801 9 -14656573.18729  20106667.646
 -16629238.247 8 -12957821.18526  20714595.191
 92  5  8  6 40 29.9990000  0  5G21G23G28G17G 3
  -2824127.210 6  -2200609.91423  22770655.509
 -19536537.615 8 -15223258.30529  20395112.050
  -7279882.687 5  -5672631.30823  23564654.935
 -18796366.371 9 -14646497.52829  20109128.040
 -16577803.349 8 -12917742.05525  20724382.808
 92  5  8  6 40 59.9990000  0  5G21G23G28G17G 3
  -2921283.547 6  -2276316.04823  22752164.909
 -19576469.894 8 -15254374.34829  20387515.918
  -7387294.780 5  -5756328.96022  23544214.779
 -18783155.811 8 -14636203.59329  20111642.092
 -16525892.360 8 -12877291.94325  20734260.365
 92  5  8  6 41 29.9990000  0  5G21G23G28G17G 3
  -3018202.895 6  -2351837.53023  22733724.078
 -19615943.313 8 -15285132.82829  20380004.018
  -7494570.234 5  -5839920.15023  23523800.712
 -18769662.529 8 -14625689.35129  20114207.432
 -16473507.387 8 -12836472.49626  20744229.063
 92  5  8  6 41 59.9990000  0  5G21G23G28G17G 3
  -3114882.427 5  -2427172.15022  22715322.806
 -19654939.379 8 -15315519.35929  20372582.056
  -7601688.986 5  -5923389.24023  23503423.220
 -18755891.224 9 -14614958.46629  20116830.007
 -16420647.729 8 -12795283.18926  20754289.498
 92  5  8  6 42 29.9990000  0  5G21G23G28G17G 3
  -3211322.382 5  -2502320.08524  22696973.413
 -19693463.628 8 -15345538.23229  20365252.721
  -7708653.211 5  -6006737.91422  23483065.220
 -18741842.372 9 -14604011.30429  20119504.148
 -16367311.073 8 -12753722.16524  20764435.979
 92  5  8  6 42 59.9990000  0  5G21G23G28G17G 3
  -3307535.885 5  -2577291.57824  22678661.189
 -19731529.447 8 -15375199.88329  20358009.135
  -7815468.418 6  -6089970.48323  23462738.980
 -18727501.925 9 -14592836.92429  20122232.560
 -16313500.341 8 -12711791.75725  20774678.681
 92  5  8  6 43 29.9990000  0  5G21G23G28G17G 3
  -3403540.858 5  -2652100.57724  22660397.530
 -19769117.595 8 -15404489.32729  20350855.802
  -7922135.569 6  -6173087.68721  23442441.829
 -18712850.902 9 -14581420.54929  20125020.930
 -16259211.521 8 -12669488.78125  20785008.634
 92  5  8  6 43 59.9990000  0  5G21G23G28G17G 3
  -3499334.644 5  -2726744.99922  22642167.462
 -19806230.108 8 -15433408.14529  20343794.484
  -8028657.462 6  -6256091.69523  23422170.173
 -18697892.928 9 -14569764.99129  20127865.071
 -16204444.252 8 -12626813.01625  20795430.620
 92  5  8  6 44 29.9990000  0  5G21G23G28G17G 3
  -3594911.506 5  -2801220.35823  22623982.642
 -19842895.690 8 -15461978.70229  20336816.823
  -8135052.234 5  -6338996.66323  23401923.994
 -18682630.892 9 -14557872.50229  20130770.358
 -16149203.725 8 -12583768.47425  20805944.044
 92  5  8  6 44 59.9990000  0  5G21G23G28G17G 3
  -3690261.247 5  -2875518.77323  22605835.306
 -19879110.718 8 -15490198.17129  20329923.987
  -8241325.849 5  -6421807.21524  23381697.586
 -18667078.928 9 -14545754.09329  20133728.118
 -16093492.759 8 -12540357.33725  20816543.813
 92  5  8  6 45 29.9990000  0  5G21G23G28G17G 3
  -3785368.098 6  -2949627.92424  22587738.034
 -19914879.037 8 -15518069.55129  20323118.699
  -8347473.946 6  -6504519.96222  23361502.065
 -18651253.052 8 -14533422.24029  20136736.535
 -16037310.350 8 -12496578.85725  20827238.301
 92  5  8  6 45 59.9990000  0  5G21G23G28G17G 3
  -3880217.026 6  -3023536.11723  22569688.436
 -19950212.005 8 -15545601.72129  20316395.845
  -8453482.802 6  -6587124.20522  23341329.927
 -18635157.848 8 -14520880.53129  20139804.912
 -15980655.699 8 -12452432.40625  20838015.241
 92  5  8  6 46 29.9990000  0  5G21G23G28G17G 3
  -3974809.185 6  -3097244.20922  22551687.699
 -19985099.634 8 -15572786.85628  20309756.055
  -8559345.944 6  -6669614.89423  23321187.769
 -18618790.294 8 -14508126.60629  20142916.757
 -15923531.008 8 -12407919.69526  20848884.511
 92  5  8  6 46 59.9990000  0  5G21G23G28G17G 3
  -4069149.940 6  -3170756.40624  22533727.132
 -20019531.713 8 -15599617.02529  20303206.482
  -8665043.291 6  -6751976.42323  23301074.701
 -18602149.969 9 -14495160.11229  20146087.356
 -15865936.787 8 -12363041.09026  20859847.034
 92  5  8  6 47 29.9990000  0  5G21G23G28G17G 3
  -4163244.129 6  -3244076.48024  22515829.508
 -20053515.090 8 -15626097.56529  20296736.953
  -8770558.924 6  -6834196.33822  23280992.798
 -18585230.107 9 -14481975.81829  20149304.723
 -15807869.938 8 -12317794.22825  20870895.273
 92  5  8  6 47 59.9990000  0  5G21G23G28G17G 3
  -4257094.823 6  -3317206.80324  22497969.088
 -20087046.351 8 -15652225.81429  20290357.677
  -8875900.824 6  -6916280.88622  23260946.285
 -18568025.648 9 -14468569.74329  20152579.658
 -15749331.342 8 -12272179.74126  20882037.062
 92  5  8  6 48 29.9990000  0  5G21G23G28G17G 3
  -4350701.533 6  -3390147.00824  22480159.309
 -20120116.838 8 -15677994.99329  20284064.431
  -8981064.794 6  -6998226.81123  23240928.547
 -18550536.955 9 -14454942.19929  20155906.751
 -15690315.861 7 -12226193.69926  20893266.400
 92  5  8  6 48 59.9990000  0  5G21G23G28G17G 3
  -4444070.908 6  -3462902.29623  22462390.310
 -20152739.049 8 -15703414.86629  20277853.026
  -9086055.814 6  -7080037.96022  23220952.462
 -18532780.025 9 -14441105.63429  20159288.115
 -15630827.910 8 -12179839.47926  20904588.659
 92  5  8  6 49 29.9990000  0  5G21G23G28G17G 3
  -4537213.414 6  -3535480.77923  22444662.687
 -20184917.930 8 -15728489.28729  20271731.873
  -9190887.219 6  -7161724.72823  23201005.171
 -18514743.091 9 -14427050.89529  20162720.136
 -15570866.292 7 -12133116.17025  20915996.355
 92  5  8  6 49 59.9990000  0  5G21G23G28G17G 3
  -4630127.807 6  -3607881.54022  22426982.423
 -20216651.882 8 -15753217.03229  20265694.656
  -9295552.641 6  -7243282.16822  23181091.157
 -18496423.322 9 -14412775.75129  20166206.131
 -15510432.045 7 -12086024.55825  20927496.694
 92  5  8  6 50 29.9990000  0  5G21G23G28G17G 3
  -4722819.294 6  -3680108.57522  22409346.238
 -20247939.137 8 -15777596.69629  20259738.967
  -9400038.741 6  -7324699.86121  23161204.731
 -18477823.517 9 -14398282.40929  20169744.285
 -15449527.022 7 -12038566.14826  20939087.565
 92  5  8  6 50 59.9990000  0  5G21G23G28G17G 3
  -4815270.981 6  -3752148.79424  22391748.409
 -20278771.354 8 -15801621.78329  20253869.638
  -9504354.957 6  -7405985.18022  23141353.067
 -18458934.627 9 -14383563.79529  20173341.787
 -15388152.331 8 -11990741.75126  20950767.188
 92  5  8  6 51 29.9990000  0  5G21G23G28G17G 3
  -4907471.600 6  -3823993.36523  22374206.961
 -20309146.182 8 -15825290.45829  20248091.732
  -9608502.390 6  -7487139.01524  23121537.996
 -18439755.406 9 -14368618.95329  20176990.854
 -15326309.560 8 -11942552.59625  20962533.748
 92  5  8  6 51 59.9990000  0  5G21G23G28G17G 3
  -4999402.007 6  -3895627.38522  22356711.076
 -20339050.141 8 -15848592.22329  20242401.076
  -9712473.041 6  -7568155.05722  23101752.590
 -18420310.135 9 -14353466.79929  20180689.393
 -15263998.464 8 -11893998.53825  20974391.136
 92  5  8  6 52 29.9990000  0  5G21G23G28G17G 3
  -5091055.900 6  -3967045.91023  22339270.037
 -20368481.391 8 -15871525.65629  20236799.155
  -9816275.090 6  -7649039.73522  23081997.460
 -18400605.095 9 -14338112.23029  20184435.309
 -15201220.004 8 -11845080.27225  20986338.759
 92  5  8  6 52 59.9990000  0  5G21G23G28G17G 3
  -5182432.492 6  -4038248.38723  22321881.175
 -20397453.141 8 -15894101.03129  20231286.875
  -9919904.013 6  -7729789.52624  23062276.219
 -18380623.852 9 -14322542.43429  20188239.370
 -15137973.263 8 -11795797.14426  20998374.820
 92  5  8  6 53 29.9990000  0  5G21G23G28G17G 3
  -5273541.478 6  -4109242.35024  22304545.378
 -20425980.153 8 -15916329.84329  20225860.032
 -10023336.590 6  -7810386.31522  23042595.148
 -18360367.298 9 -14306758.11129  20192095.309
 -15074257.836 8 -11746148.79325  21010497.242
 92  5  8  6 53 59.9990000  0  5G21G23G28G17G 3
  -5364377.948 6  -4180023.95724  22287258.459
 -20454055.854 8 -15938207.01329  20220516.828
 -10126553.685 6  -7890815.19123  23022952.450
 -18339818.309 9 -14290745.91329  20196005.798
 -15010071.104 8 -11696133.19125  21022715.273
 92  5  8  6 54 29.9990000  0  5G21G23G28G17G 3
  -5454941.320 6  -4250592.76024  22270023.682
 -20481687.130 8 -15959737.86429  20215260.561
 -10229555.090 6  -7971076.00323  23003353.814
 -18318953.762 9 -14274487.83829  20199976.246
 -14945419.874 8 -11645755.62925  21035014.571
 92  5  8  6 54 59.9990000  0  5G21G23G28G17G 3
  -5545221.209 6  -4320940.66225  22252845.880
 -20508861.968 8 -15980913.04429  20210084.948
 -10332332.382 6  -8051162.19924  22983792.643
 -18297769.088 9 -14257980.31229  20204008.154
 -14880296.302 8 -11595010.02625  21047407.680
 92  5  8  6 55 29.9990000  0  5G21G23G28G17G 3
  -5635214.948 6  -4391065.58624  22235720.829
 -20535567.456 8 -16001722.51229  20205007.371
 -10434894.054 6  -8131080.36722  22964278.553
 -18276291.574 9 -14241244.58329  20208096.426
 -14814706.785 8 -11543901.35223  21059889.839
 92  5  8  6 55 59.9990000  0  5G21G23G28G17G 3
  -5724928.488 6  -4460972.17423  22218650.642
 -20561793.860 8 -16022158.65129  20200015.823
 -10537250.483 6  -8210838.56923  22944802.836
 -18254522.775 9 -14224281.89229  20212236.857
 -14748653.288 8 -11492431.12824  21072458.934
 92  5  8  6 56 29.9990000  0  5G21G23G28G17G 3
  -5814377.436 6  -4530672.60524  22201626.332
 -20587547.657 8 -16042226.53629  20195116.919
 -10639412.253 6  -8290445.11624  22925363.102
 -18232481.506 9 -14207106.87829  20216430.964
 -14682133.968 8 -11440597.92825  21085118.282
 92  5  8  6 56 59.9990000  0  5G21G23G28G17G 3
  -5903577.080 6  -4600178.75023  22184654.477
 -20612839.973 8 -16061934.82329  20190301.654
 -10741378.159 6  -8369899.02823  22905956.645
 -18210195.419 9 -14189741.11629  20220671.524
 -14615153.132 8 -11388405.07424  21097863.659
 92  5  8  6 57 29.9990000  0  5G21G23G28G17G 3
  -5992532.805 6  -4669494.85124  22167726.108
 -20637672.431 8 -16081284.77229  20185575.716
 -10843136.558 6  -8449191.28624  22886588.840
 -18187655.604 9 -14172177.63429  20224960.945
 -14547713.738 8 -11335854.94323  21110698.660
 92  5  8  6 57 59.9990000  0  5G21G23G28G17G 3
  -6081244.133 6  -4738620.50223  22150846.896
 -20662047.667 8 -16100278.45029  20180935.232
 -10944673.630 6  -8528311.05321  22867271.117
 -18164848.988 9 -14154406.25129  20229301.948
 -14479811.169 7 -11282943.90624  21123618.819
 92  5  8  6 58 29.9990000  0  5G21G23G28G17G 3
  -6169706.996 6  -4807552.53724  22134005.744
 -20685981.590 8 -16118928.25529  20176383.186
 -11045989.933 6  -8607258.81424  22847989.360
 -18141786.678 9 -14136435.62829  20233689.404
 -14411453.625 7 -11229678.30724  21136628.009
 92  5  8  6 58 59.9990000  0  5G21G23G28G17G 3
  -6257900.766 6  -4876274.89623  22117225.161
 -20709470.094 8 -16137230.96629  20171911.777
 -11147079.588 6  -8686029.93623  22828750.181
 -18118444.928 9 -14118247.26229  20238134.131
 -14342637.551 7 -11176055.41324  21149721.448
 92  5  8  6 59 29.9990000  0  5G21G23G28G17G 3
  -6345823.756 6  -4944786.27225  22100498.237
 -20732514.345 8 -16155187.51029  20167527.008
 -11247935.142 6  -8764618.65224  22809559.565
 -18094799.390 9 -14099822.17829  20242631.611
 -14273360.932 7 -11122073.65724  21162903.918
 92  5  8  6 59 59.9990000  0  5G21G23G28G17G 3
  -6433472.039 6  -5013083.58023  22083815.096
 -20755135.950 8 -16172814.72028  20163221.394
 -11348571.342 6  -8843036.43722  22790409.435
 -18070866.744 9 -14081173.37129  20247185.472
 -14203629.402 7 -11067737.46224  21176173.937
 92  5  8  7  0 29.9990000  0  5G21G23G28G17G 3
  -6520839.092 6  -5081161.73324  22067193.694
 -20777332.428 8 -16190110.66529  20159000.012
 -11448998.546 6  -8921291.39023  22771296.455
 -18046643.663 9 -14062298.25629  20251795.366
 -14133441.635 7 -11013045.73824  21189532.096
 92  5  8  7  0 59.9990000  0  5G21G23G28G17G 3
  -6607926.962 6  -5149022.34325  22050621.780
 -20799104.068 8 -16207075.57629  20154857.487
 -11549205.930 6  -8999375.03822  22752229.667
 -18022124.493 9 -14043192.41129  20256462.235
 -14062797.593 7 -10957998.46524  21202972.690
 92  5  8  7  1 29.9990000  0  5G21G23G28G17G 3
  -6694735.993 6  -5216665.67924  22034098.710
 -20820445.285 8 -16223705.08129  20150792.598
 -11649188.654 6  -9077283.64324  22733204.236
 -17997329.126 9 -14023871.35729  20261180.076
 -13991702.128 7 -10902599.44024  21216500.517
 92  5  8  7  1 59.9990000  0  5G21G23G28G17G 3
  -6781264.128 6  -5284090.15124  22017631.707
 -20841333.167 8 -16239981.34429  20146820.946
 -11748946.230 6  -9155016.80023  22714224.367
 -17972267.323 9 -14004342.70429  20265950.075
 -13920151.718 7 -10846845.90024  21230119.801
 92  5  8  7  2 29.9990000  0  5G21G23G28G17G 3
  -6867521.120 6  -5351303.34324  22001221.069
 -20861743.590 8 -16255885.55929  20142934.137
 -11848464.132 6  -9232563.18922  22695282.574
 -17946929.586 9 -13984599.00529  20270771.937
 -13848146.789 7 -10790738.23723  21243821.800
 92  5  8  7  2 59.9990000  0  5G21G23G28G17G 3
  -6953500.065 6  -5418299.84425  21984858.994
 -20881666.049 8 -16271409.54229  20139145.660
 -11947728.499 6  -9309912.03423  22676397.757
 -17921321.001 9 -13964644.27829  20275644.160
 -13775689.379 7 -10734277.96625  21257611.956
 92  5  8  7  3 29.9990000  0  5G21G23G28G17G 3
  -7039203.474 6  -5485081.64225  21968547.299
 -20901086.022 8 -16286541.98029  20135448.325
 -12046756.053 6  -9387076.31424  22657548.607
 -17895445.360 9 -13944481.45529  20280567.948
 -13702780.701 7 -10677466.03822  21271486.049
 92  5  8  7  3 59.9990000  0  5G21G23G28G17G 3
  -7124631.996 6  -5551649.26525  21952291.653
 -20920015.189 8 -16301291.96929  20131848.415
 -12145538.644 6  -9464049.73824  22638752.210
 -17869289.679 9 -13924100.41729  20285545.710
 -13629418.265 7 -10620300.54422  21285443.797
 92  5  8  7  4 29.9990000  0  5G21G23G28G17G 3
  -7209767.904 6  -5617988.89025  21936089.963
 -20938479.383 8 -16315679.64029  20128333.645
 -12244073.315 6  -9540829.98623  22620002.893
 -17842863.369 9 -13903508.49029  20290575.020
 -13555603.847 7 -10562782.85225  21299488.169
 92  5  8  7  4 59.9990000  0  5G21G23G28G17G 3
  -7294602.253 6  -5684093.51424  21919948.529
 -20956512.140 7 -16329731.12929  20124903.124
 -12342360.857 6  -9617417.64323  22601299.750
 -17816167.376 9 -13882706.43229  20295652.911
 -13481341.861 7 -10504916.42125  21313622.182
 92  5  8  7  5 29.9990000  0  5G21G23G28G17G 3
  -7379136.629 6  -5749964.39125  21903862.866
 -20974140.878 8 -16343467.78629  20121546.051
 -12440388.866 6  -9693803.07324  22582646.357
 -17789186.755 9 -13861682.57829  20300788.353
 -13406630.890 7 -10446700.13322  21327838.037
 92  5  8  7  5 59.9990000  0  5G21G23G28G17G 3
  -7463372.971 7  -5815603.05324  21887832.660
 -20991378.511 8 -16356899.70229  20118268.411
 -12538136.479 6  -9769970.03524  22564045.437
 -17761930.397 9 -13840443.87529  20305974.767
 -13331474.294 6 -10388136.55522  21342137.251
 92  5  8  7  6 29.9990000  0  5G21G23G28G17G 3
  -7547306.166 7  -5881005.48825  21871862.134
 -21008206.940 8 -16370012.76529  20115064.831
 -12635600.478 7  -9845915.99724  22545497.880
 -17734390.634 9 -13818984.32729  20311214.544
 -13255868.572 6 -10329223.06223  21356526.387
 92  5  8  7  6 59.9990000  0  5G21G23G28G17G 3
  -7630939.821 7  -5946174.51425  21855945.249
 -21024609.388 8 -16382793.88029  20111942.498
 -12732784.770 6  -9921644.01125  22527001.888
 -17706544.285 9 -13797285.89229  20316513.966
 -13179811.963 6 -10269958.22725  21371000.662
 92  5  8  7  7 29.9990000  0  5G21G23G28G17G 3
  -7714302.957 7  -6011132.74425  21840081.134
 -21040566.771 8 -16395228.20129  20108907.696
 -12829707.075 6  -9997167.87924  22508561.039
 -17678415.505 9 -13775367.37429  20321867.658
 -13103317.147 6 -10210351.94223  21385555.592
 92  5  8  7  7 59.9990000  0  5G21G23G28G17G 3
  -7797390.729 7  -6075876.40125  21824271.272
 -21056049.928 8 -16407293.00029  20105960.738
 -12926373.191 7 -10072492.10625  22490166.380
 -17650014.129 8 -13753236.44729  20327272.025
 -13026381.009 6 -10150401.75923  21400198.645
 92  5  8  7  8 29.9990000  0  5G21G23G28G17G 3
  -7880189.736 7  -6140395.07424  21808515.976
 -21071065.271 8 -16418993.25829  20103103.404
 -13022799.494 7 -10147629.46925  22471814.580
 -17621334.630 8 -13730888.79429  20332729.738
 -12949003.054 6 -10090107.27822  21414922.650
 92  5  8  7  8 59.9990000  0  5G21G23G28G17G 3
  -7962701.918 7  -6204690.24823  21792814.340
 -21085618.838 8 -16430333.70129  20100333.322
 -13118977.460 7 -10222573.32424  22453511.954
 -17592388.911 9 -13708333.70029  20338237.532
 -12871187.788 6 -10029472.05122  21429727.014
 92  5  8  7  9 29.9990000  0  5G21G23G28G17G 3
  -8044925.508 7  -6268760.55025  21777166.677
 -21099704.523 8 -16441309.56929  20097654.382
 -13214875.345 7 -10297298.93024  22435264.488
 -17563179.936 9 -13685573.46829  20343795.078
 -12792927.000 6  -9968489.67223  21444624.003
 92  5  8  7  9 59.9990000  0  5G21G23G28G17G 3
  -8126839.902 7  -6332589.89325  21761580.178
 -21113344.408 7 -16451938.04529  20095056.987
 -13310493.289 6 -10371806.39724  22417069.181
 -17533701.293 9 -13662603.10929  20349404.503
 -12714223.230 6  -9907162.11823  21459599.221
 92  5  8  7 10 29.9990000  0  5G21G23G28G17G 3
  -8208451.310 7  -6396183.15723  21746047.931
 -21126557.026 8 -16462233.58929  20092542.323
 -13405838.171 6 -10446101.08925  22398924.252
 -17503950.748 9 -13639420.88529  20355064.882
 -12635087.777 6  -9845498.18821  21474661.394
 92  5  8  7 10 59.9990000  0  5G21G23G28G17G 3
  -8289753.689 7  -6459535.60525  21730576.533
 -21139328.750 7 -16472185.57129  20090112.799
 -13500882.322 6 -10520161.44723  22380840.173
 -17473916.901 8 -13616017.89329  20360782.830
 -12555512.780 6  -9783491.70221  21489799.127
 92  5  8  7 11 29.9990000  0  5G21G23G28G17G 3
  -8370738.141 7  -6522640.30225  21715171.097
 -21151664.459 8 -16481797.80529  20087765.727
 -13595634.509 6 -10593994.31624  22362811.550
 -17443595.012 8 -13592390.46829  20366551.732
 -12475501.927 6  -9721145.59523  21505026.483
 92  5  8  7 11 59.9990000  0  5G21G23G28G17G 3
  -8451396.492 7  -6585490.91325  21699817.523
 -21163566.758 8 -16491072.32629  20085501.998
 -13690110.490 6 -10667611.94924  22344830.898
 -17412983.165 8 -13568537.08229  20372376.999
 -12395057.389 6  -9658461.59524  21520336.589
 92  5  8  7 12 29.9990000  0  5G21G23G28G17G 3
  -8531745.374 7  -6648100.36725  21684526.019
 -21175040.866 8 -16500013.18329  20083315.311
 -13784298.206 6 -10741004.94224  22326906.907
 -17382083.293 8 -13544459.28229  20378257.722
 -12314183.777 6  -9595443.27223  21535721.626
 92  5  8  7 12 59.9990000  0  5G21G23G28G17G 3
  -8611790.048 7  -6710472.77524  21669296.254
 -21186078.867 8 -16508614.21729  20081217.359
 -13878182.153 6 -10814161.23924  22309038.669
 -17350898.629 8 -13520159.55429  20384190.622
 -12232877.936 6  -9532088.09122  21551196.025
 92  5  8  7 13 29.9990000  0  5G21G23G28G17G 3
  -8691540.923 7  -6772616.24825  21654119.870
 -21196676.837 8 -16516872.37529  20079199.764
 -13971769.095 7 -10887086.10924  22291234.299
 -17319433.376 8 -13495641.18529  20390181.072
 -12151138.822 6  -9468395.30422  21566748.043
 92  5  8  7 13 59.9990000  0  5G21G23G28G17G 3
  -8771010.549 7  -6834540.57224  21638998.035
 -21206836.071 8 -16524788.65429  20077266.699
 -14065051.799 7 -10959773.89524  22273479.383
 -17287702.359 8 -13470915.73229  20396218.289
 -12068974.226 6  -9404371.00623  21582386.422
 92  5  8  7 14 29.9990000  0  5G21G23G28G17G 3
  -8850192.597 7  -6896240.80124  21623927.468
 -21216545.931 8 -16532354.77129  20075418.477
 -14158013.262 6 -11032211.38322  22255791.337
 -17255709.914 8 -13445986.56429  20402305.571
 -11986382.736 6  -9340014.03922  21598103.641
 92  5  8  7 14 59.9990000  0  5G21G23G28G17G 3
  -8929074.037 7  -6957706.79526  21608917.454
 -21225791.449 8 -16539559.07529  20073658.099
 -14250651.944 6 -11104397.34123  22238160.841
 -17223461.436 9 -13420857.89429  20408443.231
 -11903362.736 6  -9275323.17122  21613900.015
 92  5  8  7 15 29.9990000  0  5G21G23G28G17G 3
  -9007649.823 7  -7018934.62825  21593965.008
 -21234583.748 8 -16546410.20629  20071987.345
 -14342968.751 7 -11176332.51424  22220595.103
 -17190963.037 8 -13395534.47029  20414626.140
 -11819919.277 6  -9210302.32921  21629774.617
 92  5  8  7 15 59.9990000  0  5G21G23G28G17G 3
  -9085899.931 7  -7079908.68825  21579075.819
 -21242924.325 8 -16552909.35629  20070397.561
 -14434945.509 7 -11248002.70423  22203093.826
 -17158196.844 8 -13370002.37829  20420859.427
 -11736047.724 6  -9144947.92322  21645740.362
 92  5  8  7 16 29.9990000  0  5G21G23G28G17G 3
  -9163827.743 7  -7140631.60925  21564244.181
 -21250829.927 8 -16559069.55329  20068894.695
 -14526585.546 7 -11319410.50424  22185653.991
 -17125157.226 8 -13344257.23529  20427148.172
 -11651749.750 6  -9079261.24623  21661777.758
 92  5  8  7 16 59.9990000  0  5G21G23G28G17G 3
  -9241452.925 7  -7201118.69926  21549476.707
 -21258328.221 8 -16564912.37429  20067467.686
 -14617904.750 7 -11390568.30325  22168275.615
 -17091852.433 8 -13318305.46929  20433483.997
 -11567040.216 6  -9013253.88922  21677903.906
 92  5  8  7 17 29.9990000  0  5G21G23G28G17G 3
  -9318770.567 7  -7261366.17426  21534759.595
 -21265419.962 8 -16570438.40929  20066119.518
 -14708906.085 7 -11461478.42224  22150962.609
 -17058260.560 8 -13292129.98429  20439878.263
 -11481916.030 6  -8946923.40322  21694102.280
 92  5  8  7 17 59.9990000  0  5G21G23G28G17G 3
  -9395774.638 7  -7321369.28026  21520105.740
 -21272089.713 8 -16575635.60829  20064851.393
 -14799590.563 7 -11532141.62424  22133703.558
 -17024368.290 8 -13265720.44129  20446327.095
 -11396376.422 6  -8880269.16922  21710375.917
 92  5  8  7 18 29.9990000  0  5G21G23G28G17G 3
  -9472465.664 7  -7381128.46926  21505514.548
 -21278322.634 8 -16580492.42129  20063664.516
 -14889962.884 7 -11602561.59225  22116505.653
 -16990176.963 8 -13239077.86029  20452834.090
 -11310414.796 6  -8813286.14422  21726733.192
 92  5  8  7 18 59.9990000  0  5G21G23G28G17G 3
  -9548846.522 7  -7440645.97526  21490979.704
 -21284106.923 8 -16584999.65929  20062562.779
 -14980029.845 7 -11672743.63424  22099365.927
 -16955687.686 8 -13212203.11829  20459398.355
 -11224036.012 6  -8745978.06522  21743171.123
 92  5  8  7 19 29.9990000  0  5G21G23G28G17G 3
  -9624918.021 7  -7499922.41925  21476505.725
 -21289442.172 8 -16589156.99329  20061545.885
 -15069789.220 7 -11742685.98523  22082287.957
 -16920898.935 8 -13185095.00529  20466018.078
 -11137242.468 6  -8678346.79923  21759687.579
 92  5  8  7 19 59.9990000  0  5G21G23G28G17G 3
  -9700685.465 7  -7558961.93126  21462086.314
 -21294338.885 8 -16592972.61429  20060615.021
 -15159237.419 7 -11812385.86524  22065265.427
 -16885832.220 8 -13157770.30229  20472690.256
 -11050036.451 6  -8610394.10921  21776284.098
 92  5  8  7 20 29.9990000  0  5G21G23G28G17G 3
  -9776159.496 7  -7617772.79926  21447721.748
 -21298825.345 8 -16596468.56229  20059760.309
 -15248385.330 7 -11881851.76623  22048301.687
 -16850517.858 8 -13130252.62029  20479409.794
 -10962429.583 6  -8542129.04023  21792961.847
 92  5  8  7 20 59.9990000  0  5G21G23G28G17G 3
  -9851325.036 7  -7676343.30226  21433419.550
 -21302911.674 8 -16599652.70829  20058983.862
 -15337212.463 7 -11951067.69725  22031398.777
 -16814956.576 8 -13102542.55029  20486174.912
 -10874421.281 6  -8473551.15322  21809704.650
 92  5  8  7 21 29.9990000  0  5G21G23G28G17G 3
  -9926162.064 7  -7734657.81326  21419181.202
 -21306597.392 8 -16602524.69729  20058283.235
 -15425701.545 7 -12020020.22224  22014557.031
 -16779144.600 8 -13074637.12329  20492994.003
 -10786005.992 6  -8404656.18622  21826527.218
 92  5  8  7 21 59.9990000  0  5G21G23G28G17G 3
 -10000668.093 7  -7792714.40125  21405000.718
 -21309873.497 8 -16605077.49329  20057659.669
 -15513841.574 7 -12088700.74924  21997786.953
 -16743091.456 8 -13046543.77229  20499851.747
 -10697189.280 6  -8335448.41121  21843431.000
 92  5  8  7 22 29.9990000  0  5G21G23G28G17G 3
 -10074841.600 7  -7850511.88825  21390884.400
 -21312731.608 8 -16607304.58729  20057114.647
 -15601618.951 7 -12157098.68925  21981083.710
 -16706789.193 8 -13018256.30629  20506759.573
 -10607974.643 6  -8265930.54624  21860407.357
 92  5  8  7 22 59.9990000  0  5G21G23G28G17G 3
 -10148680.650 7  -7908048.76625  21376834.619
 -21315165.744 8 -16609201.32029  20056652.076
 -15689023.774 7 -12225206.33625  21964450.319
 -16670215.472 8 -12989757.32029  20513722.244
 -10518364.289 6  -8196104.34422  21877460.443
 92  5  8  7 23 29.9990000  0  5G21G23G28G17G 3
 -10222197.595 7  -7965334.64726  21362845.704
 -21317161.802 8 -16610756.68629  20056273.127
 -15776059.766 7 -12293026.59625  21947889.487
 -16633364.421 8 -12961042.23229  20520732.293
 -10428357.846 6  -8125969.48224  21894583.399
 92  5  8  7 23 59.9990000  0  5G21G23G28G17G 3
 -10295404.856 7  -8022379.21325  21348913.747
 -21318719.962 8 -16611970.82829  20055976.631
 -15862732.350 7 -12360563.67024  21931393.115
 -16596233.059 8 -12932108.70329  20527799.300
 -10337953.506 6  -8055524.64123  21911787.289
 92  5  8  7 24 29.9990000  0  5G21G23G28G17G 3
 -10368307.401 7  -8079186.33825  21335038.154
 -21319862.451 8 -16612861.08029  20055759.882
 -15949058.014 7 -12427830.41124  21914967.487
 -16558818.183 8 -12902954.27329  20534919.966
 -10247155.597 6  -7984773.07421  21929070.020
 92  5  8  7 24 59.9990000  0  5G21G23G28G17G 3
 -10440901.553 7  -8135753.17326  21321225.818
 -21320589.548 8 -16613427.62929  20055621.990
 -16035038.155 7 -12494827.91824  21898606.006
 -16521122.309 8 -12873580.86129  20542093.105
 -10155962.723 7  -7913713.71321  21946421.417
 92  5  8  7 25 29.9990000  0  5G21G23G28G17G 3
 -10513184.556 7  -8192077.56326  21307472.237
 -21320894.821 8 -16613665.50529  20055564.422
 -16120662.787 7 -12561548.40024  21882312.598
 -16483155.594 8 -12843996.42929  20549316.308
 -10064373.047 6  -7842345.18822  21963850.136
 92  5  8  7 25 59.9990000  0  5G21G23G28G17G 3
 -10585144.387 7  -8248150.12025  21293778.929
 -21320800.129 8 -16613591.71629  20055580.616
 -16205924.999 7 -12627986.47824  21866084.820
 -16444940.135 8 -12814218.15629  20556590.170
  -9972399.895 7  -7770677.84723  21981352.321
 92  5  8  7 26 29.9990000  0  5G21G23G28G17G 3
 -10656761.655 7  -8303955.74125  21280150.658
 -21320298.594 8 -16613200.91329  20055674.149
 -16290800.351 7 -12694123.11323  21849935.900
 -16406478.621 8 -12784248.15729  20563909.001
  -9880043.036 7  -7698711.53322  21998926.452
 92  5  8  7 26 59.9990000  0  5G21G23G28G17G 3
 -10728023.841 7  -8359484.68526  21266589.238
 -21319374.739 8 -16612481.02229  20055853.118
 -16375273.689 7 -12759946.46724  21833859.835
 -16367763.523 8 -12754080.55329  20571276.099
  -9787294.350 7  -7626439.86723  22016574.940
 92  5  8  7 27 29.9990000  0  5G21G23G28G17G 3
 -10798936.809 7  -8414741.50226  21253092.594
 -21318040.001 8 -16611440.95829  20056104.646
 -16459345.839 7 -12825457.22625  21817861.109
 -16328793.428 8 -12723714.26729  20578690.574
  -9694156.494 7  -7553864.99623  22034297.468
 92  5  8  7 27 59.9990000  0  5G21G23G28G17G 3
 -10869511.811 7  -8469734.97526  21239663.395
 -21316303.721 8 -16610088.00629  20056435.921
 -16543022.926 7 -12890660.14825  21801936.441
 -16289565.141 8 -12693146.77929  20586158.098
  -9600632.611 7  -7480989.27023  22052093.758
 92  5  8  7 28 29.9990000  0  5G21G23G28G17G 3
 -10939784.911 7  -8524493.19226  21226292.951
 -21314171.746 8 -16608426.72329  20056843.034
 -16626341.142 7 -12955583.42825  21786085.204
 -16250069.555 8 -12662371.00429  20593671.795
  -9506733.546 7  -7407821.24723  22069965.277
 92  5  8  7 28 59.9990000  0  5G21G23G28G17G 3
 -11009762.434 7  -8579021.09826  21212973.462
 -21311641.661 8 -16606455.21529  20057323.596
 -16709304.691 7 -13020230.32925  21770296.038
 -16210284.474 8 -12631369.65529  20601245.155
  -9412452.124 7  -7334355.27224  22087905.758
 92  5  8  7 29 29.9990000  0  5G21G23G28G17G 3
 -11079447.133 7  -8633320.83225  21199713.338
 -21308707.314 8 -16604168.69829  20057883.311
 -16791904.229 7 -13084593.60426  21754580.023
 -16170214.834 8 -12600146.58129  20608868.579
  -9317790.674 7  -7260593.14323  22105920.281
 92  5  8  7 29 59.9990000  0  5G21G23G28G17G 3
 -11148827.892 7  -8687383.72526  21186511.986
 -21305353.644 8 -16601555.44429  20058518.569
 -16874136.179 7 -13148670.44426  21738930.860
 -16129858.228 8 -12568699.88928  20616549.851
  -9222750.260 7  -7186535.72723  22124007.066
 92  5  8  7 30 29.9990000  0  5G21G23G28G17G 3
 -11217888.571 7  -8741197.19727  21173370.280
 -21301576.401 8 -16598612.13829  20059238.670
 -16955987.831 7 -13212450.93925  21723354.830
 -16089212.138 8 -12537027.62328  20624280.612
  -9127332.488 7  -7112184.26623  22142164.593
 92  5  8  7 30 59.9990000  0  5G21G23G28G17G 3
 -11286620.882 7  -8794754.81026  21160292.738
 -21297378.588 8 -16595341.10329  20060036.424
 -17037435.814 7 -13275916.89325  21707856.472
 -16048293.455 8 -12505142.94729  20632069.516
  -9031543.764 7  -7037543.75223  22160390.176
 92  5  8  7 31 29.9990000  0  5G21G23G28G17G 3
 -11355005.309 7  -8848041.34326  21147273.654
 -21292754.442 8 -16591737.87429  20060916.910
 -17118470.050 7 -13339060.44824  21692435.138
 -16007112.495 8 -12473053.89828  20639904.594
  -8935382.077 7  -6962612.64124  22178688.317
 92  5  8  7 31 59.9990000  0  5G21G23G28G17G 3
 -11423033.410 7  -8901050.22927  21134331.909
 -21287714.267 8 -16587810.45429  20061874.455
 -17199097.690 7 -13401887.18525  21677093.256
 -15965672.829 8 -12440763.26328  20647793.628
  -8838850.489 7  -6887393.30824  22197060.500
 92  5  8  7 32 29.9990000  0  5G21G23G28G17G 3
 -11490708.220 7  -8953783.80626  21121454.626
 -21282271.125 8 -16583569.04329  20062910.545
 -17279315.443 7 -13464394.52325  21661826.933
 -15923972.890 8 -12408269.81028  20655727.335
  -8741948.456 7  -6811885.27924  22215500.721
 92  5  8  7 32 59.9990000  0  5G21G23G28G17G 3
 -11558032.864 7  -9006244.54227  21108643.287
 -21276427.500 8 -16579015.56029  20064023.362
 -17359134.583 7 -13526591.24325  21646637.338
 -15882026.101 8 -12375584.01628  20663710.216
  -8644680.470 7  -6736092.11925  22234012.313
 92  5  8  7 33 29.9990000  0  5G21G23G28G17G 3
 -11625006.344 7  -9058431.64426  21095897.316
 -21270186.208 8 -16574152.21629  20065213.537
 -17438559.442 7 -13588480.73126  21631526.305
 -15839833.906 8 -12342706.99928  20671739.253
  -8547050.739 7  -6660017.05424  22252587.163
 92  5  8  7 33 59.9980000  0  5G21G23G28G17G 3
 -11691636.414 7  -9110351.14826  21083219.398
 -21263544.178 8 -16568976.59629  20066474.469
 -17517568.549 7 -13650046.26926  21616488.716
 -15797382.253 8 -12309627.80328  20679813.571
  -8449058.782 6  -6583659.75124  22271233.642
 92  5  8  7 34 29.9980000  0  5G21G23G28G17G 3
 -11757946.976 7  -9162021.69526  21070602.018
 -21256496.881 8 -16563485.19329  20067815.745
 -17596154.335 7 -13711281.94826  21601534.770
 -15754665.324 8 -12276341.89128  20687946.035
  -8350702.734 6  -6507018.74524  22289948.791
 92  5  8  7 34 59.9980000  0  5G21G23G28G17G 3
 -11823929.862 7  -9213436.91626  21058044.318
 -21249034.321 8 -16557670.21029  20069233.750
 -17674308.985 7 -13772181.68025  21586660.570
 -15711682.766 8 -12242849.01129  20696126.470
  -8251985.285 6  -6430096.10324  22308735.591
 92  5  8  7 35 29.9980000  0  5G21G23G28G17G 3
 -11889585.944 7  -9264597.46426  21045550.765
 -21241166.695 8 -16551539.59329  20070732.113
 -17752019.910 7 -13832735.65426  21571874.495
 -15668430.172 8 -12209145.69929  20704354.580
  -8152910.653 6  -6352895.12721  22327591.633
 92  5  8  7 35 59.9980000  0  5G21G23G28G17G 3
 -11954924.247 7  -9315510.40126  21033115.984
 -21232910.860 8 -16545106.46829  20072301.533
 -17829300.137 7 -13892954.01125  21557169.982
 -15624907.070 8 -12175231.61129  20712636.942
  -8053486.085 6  -6275421.48324  22346506.430
 92  5  8  7 36 29.9980000  0  5G21G23G28G17G 3
 -12019934.712 7  -9366167.88426  21020746.240
 -21224272.788 8 -16538375.50029  20073948.589
 -17906166.807 7 -13952850.11825  21542540.103
 -15581107.041 8 -12141101.72928  20720970.572
  -7953711.850 6  -6197675.39025  22365494.989
 92  5  8  7 36 59.9980000  0  5G21G23G28G17G 3
 -12084612.459 7  -9416566.10326  21008438.252
 -21215267.810 8 -16531358.63829  20075662.812
 -17982633.868 7 -14012434.83626  21527987.581
 -15537032.452 8 -12106757.90028  20729358.159
  -7853594.901 6  -6119662.25925  22384551.604
 92  5  8  7 37 29.9980000  0  5G21G23G28G17G 3
 -12148961.369 7  -9466708.08627  20996190.834
 -21205891.200 8 -16524052.18529  20077444.479
 -18058692.001 7 -14071700.92025  21513516.308
 -15492672.511 8 -12072191.71928  20737802.110
  -7753129.252 6  -6041377.41624  22403668.161
 92  5  8  7 37 59.9980000  0  5G21G23G28G17G 3
 -12212991.332 7  -9516601.53926  20984008.471
 -21196135.705 8 -16516450.49429  20079304.689
 -18134345.650 7 -14130651.81125  21499119.965
 -15448022.828 8 -12037399.77228  20746297.033
  -7652313.201 7  -5962819.49325  22422850.086
 92  5  8  7 38 29.9980000  0  5G21G23G28G17G 3
 -12276702.443 7  -9566246.53527  20971884.269
 -21185996.363 8 -16508549.70829  20081232.956
 -18209585.664 7 -14189280.39326  21484800.683
 -15403099.421 8 -12002394.53528  20754846.820
  -7551151.611 7  -5883992.31623  22442100.363
 92  5  8  7 38 59.9980000  0  5G21G23G28G17G 3
 -12340088.900 7  -9615638.55226  20959821.213
 -21175467.299 8 -16500345.25729  20083234.060
 -18284399.747 7 -14247577.09026  21470565.930
 -15357911.888 8 -11967183.47628  20763443.076
  -7449646.883 7  -5804897.76823  22461413.584
 92  5  8  7 39 29.9980000  0  5G21G23G28G17G 3
 -12403147.205 7  -9664774.88426  20947822.618
 -21164551.437 8 -16491839.38429  20085314.928
 -18358778.146 7 -14305534.29426  21456414.239
 -15312471.695 8 -11931775.54327  20772091.474
  -7347800.409 7  -5725536.96823  22480797.565
 92  5  8  7 39 59.9980000  0  5G21G23G28G17G 3
 -12465872.523 7  -9713651.72427  20935886.093
 -21153263.260 8 -16483043.40729  20087461.148
 -18432712.677 7 -14363145.61925  21442343.780
 -15266786.525 8 -11896176.72428  20780784.265
  -7245615.756 7  -5645912.58122  22500243.913
 92  5  8  7 40 29.9980000  0  6G11G21G23G28G17G 3
   -219073.815 5   -170707.27122  24744745.677
 -12528254.258 7  -9762260.85426  20924015.809
 -21141600.704 8 -16473955.69529  20089681.409
 -18506192.094 7 -14420402.30826  21428360.257
 -15220853.630 8 -11860384.86428  20789525.306
  -7143094.365 7  -5566025.86723  22519758.003
 92  5  8  7 40 59.9980000  0  6G11G21G23G28G17G 3
   -330513.085 5   -257543.10523  24723534.449
 -12590288.367 7  -9810599.09526  20912211.470
 -21129566.079 8 -16464578.07829  20091969.115
 -18579212.177 7 -14477301.08026  21414464.579
 -15174665.388 8 -11824394.02928  20798317.022
  -7040235.734 6  -5485876.34722  22539329.050
 92  5  8  7 41 29.9980000  0  6G11G21G23G28G17G 3
   -441983.655 5   -344403.28823  24702319.347
 -12651986.285 7  -9858675.37527  20900469.811
 -21117161.702 8 -16454912.33029  20094329.990
 -18651767.872 7 -14533837.97926  21400658.228
 -15128229.516 8 -11788210.25627  20807154.004
  -6937046.726 6  -5405469.39322  22558959.463
 92  5  8  7 41 59.9980000  0  6G11G21G23G28G17G 3
   -553472.260 5   -431277.5402   24681104.524
 -12713329.917 7  -9906475.58727  20888795.284
 -21104366.177 8 -16444941.79529  20096766.389
 -18723848.720 7 -14590004.87725  21386938.832
 -15081520.363 8 -11751813.52928  20816038.364
  -6833518.414 6  -5324798.08622  22578664.807
 92  5  8  7 42 29.9980000  0  6G11G21G23G28G17G 3
   -664985.337 5   -518170.86922  24659884.919
 -12774312.100 8  -9953994.14126  20877193.018
 -21091163.925 8 -16434654.32129  20099277.755
 -18795469.896 7 -14645813.58925  21373311.469
 -15034545.557 8 -11715209.78727  20824980.868
  -6729661.317 6  -5243870.55723  22598430.425
 92  5  8  7 42 59.9980000  0  6G11G21G23G28G17G 3
   -776517.130 5   -605078.81922  24638667.706
 -12834923.412 8 -10001223.71527  20865657.308
 -21077550.288 8 -16424046.30229  20101870.072
 -18866623.456 7 -14701257.92926  21359771.932
 -14987301.357 8 -11678396.13427  20833970.434
  -6625473.563 6  -5162685.30121  22618255.704
 92  5  8  7 43 29.9980000  0  6G11G21G23G28G17G 3
   -888062.650 5   -691997.3492   24617444.803
 -12895164.184 7 -10048164.56527  20854193.544
 -21063523.376 8 -16413116.25029  20104535.523
 -18937303.851 7 -14756333.56626  21346322.055
 -14939772.914 8 -11641360.99927  20843014.586
  -6520954.611 5  -5081242.06222  22638137.645
 92  5  8  7 43 59.9980000  0  6G11G21G23G28G17G 3
   -999631.844 5   -778934.33922  24596212.896
 -12955047.119 7 -10094826.56826  20842799.634
 -21049097.543 8 -16401875.33929  20107284.316
 -19007527.202 7 -14811053.06326  21332958.503
 -14891969.380 8 -11604111.51628  20852108.784
  -6416118.644 5  -4999551.69122  22658092.737
 92  5  8  7 44 29.9980000  0  6G11G21G23G28G17G 3
  -1111218.910 5   -865885.26021  24574975.894
 -13014571.768 7 -10141209.39526  20831472.279
 -21034271.432 8 -16390322.53929  20110106.854
 -19077285.362 7 -14865410.07225  21319686.095
 -14843904.845 8 -11566658.64827  20861257.846
  -6310964.127 5  -4917613.20622  22678102.081
 92  5  8  7 44 59.9980000  0  6G11G21G23G28G17G 3
  -1222820.063 4   -952847.21322  24553738.299
 -13073750.981 7 -10187323.06427  20820211.165
 -21019070.200 8 -16378477.42729  20112999.559
 -19146574.311 8 -14919401.46026  21306501.513
 -14795573.068 8 -11528997.53227  20870454.285
  -6205491.055 5  -4835426.45322  22698171.978
 92  5  8  7 45 29.9980000  0  6G11G21G23G28G17G 3
  -1334433.354 4  -1039818.63421  24532501.611
 -13132588.521 7 -10233170.47826  20809016.920
 -21003511.907 8 -16366354.09529  20115956.115
 -19215411.510 7 -14973040.84825  21293399.680
 -14746985.095 8 -11491136.79027  20879701.382
  -6099702.006 5  -4752993.47522  22718304.538
 92  5  8  7 45 59.9980000  0  6G11G21G23G28G17G 3
  -1446055.597 4  -1126797.00521  24511255.307
 -13191084.613 7 -10278751.81226  20797880.522
 -20987608.327 8 -16353961.69029  20118984.914
 -19283800.788 8 -15026331.20526  21280387.785
 -14698155.569 8 -11453087.81827  20888990.744
  -5993597.846 5  -4670314.94622  22738497.965
 92  5  8  7 46 29.9980000  0  6G11G21G23G28G17G 3
  -1557689.445 3  -1213784.48223  24490016.211
 -13249249.655 7 -10324075.19727  20786813.681
 -20971382.129 8 -16341317.91429  20122073.986
 -19351743.523 8 -15079273.60426  21267459.251
 -14649082.400 8 -11414849.00427  20898329.891
  -5887185.848 5  -4587396.55422  22758749.850
 92  5  8  7 46 59.9980000  0  5G21G23G28G17G 3
 -13307084.026 8 -10369140.92527  20775810.098
 -20954843.032 8 -16328430.29629  20125219.109
 -19419235.161 7 -15131864.49626  21254613.744
 -14599743.477 8 -11376403.10427  20907719.382
  -5780464.382 5  -4504237.07822  22779048.799
 92  5  8  7 47 29.9980000  0  5G21G23G28G17G 3
 -13364587.917 8 -10413949.14227  20764868.584
 -20937987.604 8 -16315296.21329  20128428.379
 -19486264.288 8 -15184094.98827  21241859.659
 -14550149.326 8 -11337758.33628  20917158.048
  -5673436.488 6  -4420838.78523  22799417.897
 92  5  8  7 47 59.9980000  0  5G21G23G28G17G 3
 -13421768.366 7 -10458505.31527  20753986.419
 -20920797.109 8 -16301901.03329  20131697.921
 -19552808.789 8 -15235947.82726  21229196.437
 -14500292.847 8 -11298909.15027  20926642.590
  -5566106.929 6  -4337205.34821  22819841.545
 92  5  8  7 48 29.9980000  0  5G21G23G28G17G 3
 -13478608.355 7 -10502796.20827  20743168.698
 -20903241.365 8 -16288221.23929  20135039.394
 -19618857.823 7 -15287414.63426  21216627.342
 -14450161.873 8 -11259846.07628  20936183.479
  -5458473.001 6  -4253334.87121  22840328.467
 92  5  8  7 48 59.9980000  0  5G21G23G28G17G 3
 -13535096.666 8 -10546813.06527  20732419.939
 -20885305.641 8 -16274245.35429  20138453.145
 -19684407.408 7 -15338492.23626  21204154.764
 -14399763.331 8 -11220574.49927  20945774.451
  -5350533.022 6  -4169225.86522  22860867.251
 92  5  8  7 49 29.9980000  0  6G11G21G23G28G17G 3
    -40932.75415    -31896.13022  24362544.761
 -13591239.401 8 -10590560.63327  20721738.644
 -20866972.068 8 -16259959.45729  20141940.920
 -19749451.382 7 -15389175.85126  21191775.440
 -14349109.687 8 -11181104.14426  20955412.764
  -5242294.008 6  -4084883.88322  22881464.196
 92  5  8  7 49 59.9980000  0  6G11G21G23G28G17G 3
   -152559.324 5   -118877.8762   24341305.072
 -13647032.209 8 -10634035.54627  20711116.993
 -20848235.990 8 -16245359.93829  20145506.348
 -19813984.182 7 -15439461.15826  21179496.245
 -14298199.823 7 -11141434.13327  20965099.956
  -5133759.770 6  -4000311.84122  22902118.693
 92  5  8  7 50 29.9980000  0  6G11G21G23G28G17G 3
   -264175.156 5   -205851.24622  24320072.257
 -13702467.182 7 -10677231.61327  20700569.401
 -20829105.407 8 -16230452.98829  20149146.429
 -19877998.057 7 -15489342.10426  21167313.271
 -14247034.050 7 -11101564.73027  20974837.527
  -5024930.653 6  -3915510.10121  22922824.162
 92  5  8  7 50 59.9980000  0  6G11G21G23G28G17G 3
   -375776.039 6   -292812.97522  24298834.365
 -13757556.239 8 -10720158.12727  20690087.159
 -20809589.772 8 -16215246.00929  20152859.067
 -19941484.305 7 -15538811.91427  21155232.241
 -14195618.740 7 -11061500.88326  20984621.846
  -4915806.481 6  -3830478.39121  22943591.980
 92  5  8  7 51 29.9980000  0  6G11G21G23G28G17G 3
   -487359.154 6   -379760.86422  24277595.862
 -13812292.888 8 -10762810.06328  20679671.753
 -20789697.796 8 -16199745.77929  20156646.951
 -20004436.152 7 -15587865.30426  21143252.527
 -14143955.462 8 -11021243.79326  20994454.747
  -4806389.321 6  -3745218.05623  22964413.161
 92  5  8  7 51 59.9980000  0  6G11G21G23G28G17G 3
   -598921.533 6   -466692.54222  24256366.660
 -13866665.648 8 -10805178.44827  20669322.325
 -20769452.732 8 -16183970.42029  20160497.778
 -20066866.924 7 -15636512.65726  21131374.757
 -14092048.252 8 -10980796.63626  21004331.099
  -4696680.267 6  -3659730.63922  22985291.613
 92  5  8  7 52 29.9980000  0  6G11G21G23G28G17G 3
   -710462.637 6   -553607.70521  24235141.664
 -13920681.094 8 -10847268.40327  20659045.735
 -20748853.030 8 -16167918.71529  20164417.865
 -20128800.860 7 -15684772.87527  21119589.316
 -14039887.055 8 -10940151.57027  21014257.237
  -4586683.673 6  -3574019.10222  23006221.928
 92  5  8  7 52 59.9980000  0  6G11G21G23G28G17G 3
   -821981.906 6   -640505.81622  24213925.043
 -13974338.489 8 -10889079.34927  20648833.606
 -20727913.085 8 -16151601.88329  20168402.709
 -20190247.964 7 -15732653.74126  21107895.908
 -13987479.609 8 -10899314.62127  21024229.827
  -4476403.469 6  -3488086.63022  23027207.403
 92  5  8  7 53 29.9980000  0  6G11G21G23G28G17G 3
   -933478.395 6   -727386.17622  24192703.938
 -14027633.069 8 -10930607.60328  20638692.237
 -20706638.949 8 -16135024.63729  20172454.702
 -20251210.593 7 -15780157.10026  21096294.532
 -13934814.560 8 -10858276.93927  21034249.201
  -4365843.121 6  -3401935.73421  23048248.335
 92  5  8  7 53 59.9980000  0  6G11G21G23G28G17G 3
  -1044945.690 6   -814243.76122  24171493.321
 -14080576.519 7 -10971862.23927  20628619.500
 -20685006.713 8 -16118168.36929  20176567.247
 -20311686.928 8 -15827281.52926  21084787.597
 -13881874.932 8 -10817025.29627  21044327.312
  -4255001.124 6  -3315565.48522  23069337.533
 92  5  8  7 54 29.9980000  0  6G11G21G23G28G17G 3
  -1156386.828 5   -901080.98121  24150285.705
 -14133182.254 8 -11012853.73928  20618608.834
 -20663012.106 8 -16101029.72829  20180751.757
 -20371675.794 8 -15874026.10727  21073372.101
 -13828663.207 7 -10775561.65027  21054451.301
  -4143884.990 6  -3228981.54021  23090482.486
 92  5  8  7 54 59.9980000  0  6G11G21G23G28G17G 3
  -1267799.334 5   -987895.91822  24129075.995
 -14185450.150 7 -11053581.98428  20608660.517
 -20640667.690 8 -16083618.49829  20185005.509
 -20431162.092 8 -15920379.07727  21062051.638
 -13775186.717 7 -10733891.67927  21064626.261
  -4032496.832 6  -3142185.63922  23111677.817
 92  5  8  7 55 29.9980000  0  6G11G21G23G28G17G 3
  -1379176.409 5  -1074683.23523  24107894.746
 -14237382.367 8 -11094048.64228  20598778.756
 -20617961.267 8 -16065925.18529  20189326.428
 -20490141.917 8 -15966337.38126  21050827.711
 -13721433.968 7 -10692006.44026  21074853.676
  -3920834.718 6  -3055176.27922  23132931.310
 92  5  8  7 55 59.9980000  0  6G11G21G23G28G17G 3
  -1490512.348 5  -1161438.52222  24086696.431
 -14288961.697 7 -11134240.30328  20588962.956
 -20594894.159 8 -16047950.82429  20193715.978
 -20548607.363 8 -16011894.87227  21039703.912
 -13667410.848 7 -10649910.53327  21085136.270
  -3808897.241 6  -2967952.37923  23154231.551
 92  5  8  7 56 29.9980000  0  6G11G21G23G28G17G 3
  -1601806.996 5  -1248161.60523  24065525.076
 -14340175.466 7 -11174147.11127  20579217.009
 -20571490.670 8 -16029714.35429  20198168.802
 -20606549.835 8 -16057044.85927  21028675.444
 -13613123.504 8 -10607608.71927  21095468.020
  -3696689.162 6  -2880517.62022  23175579.485
 92  5  8  7 56 59.9980000  0  6G11G21G23G28G17G 3
  -1713063.408 5  -1334854.87522  24044352.535
 -14391023.568 8 -11213768.99128  20569541.509
 -20547766.872 8 -16011228.28329  20202685.773
 -20663970.251 7 -16101788.04927  21017747.717
 -13558572.643 7 -10565101.57227  21105849.224
  -3584218.429 6  -2792878.13121  23196978.058
 92  5  8  7 57 29.9980000  0  6G11G21G23G28G17G 3
  -1824272.698 5  -1421511.43922  24023193.797
 -14441488.757 8 -11253092.49427  20559939.143
 -20523709.355 8 -15992482.17229  20207262.704
 -20720849.797 7 -16146109.78127  21006927.308
 -13503747.464 7 -10522380.67726  21116280.807
  -3471480.625 6  -2705030.58822  23218439.907
 92  5  8  7 57 59.9980000  0  6G11G21G23G28G17G 3
  -1935430.902 5  -1508128.18322  24002041.934
 -14491566.666 8 -11292114.20628  20550407.851
 -20499319.158 8 -15973476.82929  20211904.689
 -20777182.588 7 -16190005.46926  20996206.121
 -13448651.090 7 -10479448.46527  21126766.347
  -3358476.657 6  -2616975.64422  23239948.522
 92  5  8  7 58 29.9980000  0  6G11G21G23G28G17G 3
  -2046540.302 5  -1594706.89622  23980890.368
 -14541290.786 8 -11330860.26227  20540946.692
 -20474598.451 8 -15954213.95329  20216608.430
 -20832976.773 8 -16233481.45927  20985589.880
 -13393288.067 7 -10436308.47427  21137299.246
  -3245213.759 6  -2528718.95022  23261501.198
 92  5  8  7 58 59.9980000  0  6G11G21G23G28G17G 3
  -2157598.843 5  -1681246.00022  23959757.701
 -14590669.238 8 -11369336.97427  20531552.106
 -20449537.382 8 -15934685.85329  20221376.335
 -20888227.579 8 -16276534.04027  20975074.658
 -13337664.016 7 -10392965.06826  21147888.230
  -3131694.395 5  -2440262.39321  23283103.346
 92  5  8  7 59 29.9980000  0  6G11G21G23G28G17G 3
  -2268606.409 5  -1767745.41421  23938641.524
 -14639707.989 8 -11407548.99927  20522220.462
 -20424130.220 8 -15914888.06029  20226209.592
 -20942935.086 8 -16319163.27127  20964663.474
 -13281797.500 7 -10349432.74126  21158517.960
  -3017923.240 5  -2351609.68022  23304744.461
 92  5  8  7 59 59.9980000  0  6G11G21G23G28G17G 3
  -2379554.651 5  -1854198.54922  23917521.438
 -14688413.708 8 -11445501.48928  20512950.575
 -20398373.469 8 -15894817.86529  20231111.794
 -20997104.729 8 -16361373.37427  20954356.293
 -13225689.029 7 -10305711.86526  21169193.567
  -2903897.362 5  -2262758.46522  23326446.441
 92  5  8  8  0 29.9980000  0  6G11G21G23G28G17G 3
  -2490437.494 5  -1940600.76622  23896420.548
 -14736779.910 8 -11483189.39027  20503748.447
 -20372264.835 8 -15874473.48629  20236080.848
 -21050720.825 8 -16403152.14727  20944152.261
 -13169329.258 7 -10261795.16627  21179917.145
  -2789615.109 5  -2173707.44522  23348196.672
 92  5  8  8  0 59.9980000  0  6G11G21G23G28G17G 3
  -2601257.862 5  -2026954.26122  23875333.757
 -14784781.326 8 -11520593.03228  20494612.874
 -20345815.669 8 -15853863.76529  20241113.177
 -21103784.818 8 -16444500.71026  20934055.862
 -13112727.639 7 -10217690.03727  21190691.398
  -2675083.870 5  -2084462.45922  23369987.387
 92  5  8  8  1 29.9980000  0  6G11G21G23G28G17G 3
  -2712015.577 5  -2113258.94421  23854255.342
 -14832421.731 8 -11557715.42727  20485545.357
 -20319039.590 8 -15832999.28629  20246207.838
 -21156308.938 8 -16485428.58726  20924060.482
 -13055885.877 7 -10173397.78026  21201507.601
  -2560308.927 5  -1995027.5182   23391831.168
 92  5  8  8  1 59.9980000  0  6G11G21G23G28G17G 3
  -2822710.992 5  -2199515.08521  23833188.933
 -14879708.091 8 -11594561.96728  20476550.381
 -20291956.257 8 -15811895.40129  20251364.569
 -21208297.772 8 -16525939.35827  20914167.918
 -12998791.072 7 -10128908.33926  21212375.073
  -2445295.457 5  -1905406.65422  23413716.324
 92  5  8  8  2 29.9980000  0  6G11G21G23G28G17G 3
  -2933334.787 5  -2285715.43221  23812141.702
 -14926630.372 8 -11631124.77928  20467619.569
 -20264567.270 8 -15790553.33829  20256574.960
 -21259740.508 8 -16566024.60726  20904377.892
 -12941441.123 7 -10084220.08326  21223280.622
  -2330038.779 5  -1815596.37022  23435649.433
 92  5  8  8  2 59.9980000  0  6G11G21G23G28G17G 3
  -3043884.546 5  -2371858.06322  23791104.069
 -14973193.221 8 -11667407.51128  20458758.592
 -20236874.165 8 -15768974.31229  20261843.809
 -21310647.579 8 -16605692.44626  20894690.404
 -12883843.678 7 -10039338.98926  21234244.942
  -2214541.712 5  -1725598.76521  23457629.029
 92  5  8  8  3 29.9980000  0  6G11G21G23G28G17G 3
  -3154357.764 6  -2457941.06422  23770087.410
 -15019417.817 8 -11703426.64628  20449965.079
 -20208871.079 8 -15747153.73529  20267173.524
 -21361019.633 8 -16644943.38727  20885106.343
 -12825987.910 7  -9994256.59526  21245254.808
  -2098806.581 6  -1635415.70022  23479652.670
 92  5  8  8  3 59.9980000  0  6G11G21G23G28G17G 3
  -3264755.870 6  -2543965.53222  23749075.254
 -15065298.766 8 -11739178.02227  20441231.227
 -20180552.592 8 -15725087.38929  20272564.403
 -21410850.465 8 -16683772.60227  20875620.911
 -12767867.077 7  -9948967.66126  21256313.552
  -1982839.742 6  -1545052.05022  23501718.296
 92  5  8  8  4 29.9980000  0  6G11G21G23G28G17G 3
  -3375076.177 6  -2629929.38322  23728090.390
 -15110825.500 8 -11774653.38828  20432569.620
 -20151905.757 8 -15702765.18329  20278012.221
 -21460126.119 8 -16722169.21527  20866245.205
 -12709491.683 7  -9903480.34125  21267423.565
  -1866643.602 6  -1454509.70823  23523830.688
 92  5  8  8  4 59.9980000  0  6G11G21G23G28G17G 3
  -3485318.258 5  -2715832.27123  23707106.119
 -15155996.021 8 -11809851.16428  20423972.770
 -20122921.645 8 -15680180.17629  20283529.003
 -21508837.281 8 -16760125.94927  20856975.022
 -12650857.020 7  -9857791.01626  21278582.142
  -1750222.668 6  -1363792.17723  23545984.455
 92  5  8  8  5 29.9980000  0  6G11G21G23G28G17G 3
  -3595475.036 6  -2801668.67122  23686143.731
 -15200802.054 8 -11844764.92328  20415446.977
 -20093599.138 8 -15657331.47629  20289109.041
 -21556958.014 8 -16797622.62527  20847819.049
 -12591950.372 7  -9811889.76027  21289790.190
  -1633574.892 6  -1272897.94123  23568179.893
 92  5  8  8  5 59.9980000  0  6G11G21G23G28G17G 3
  -3705544.305 6  -2887436.90621  23665197.223
 -15245242.368 8 -11879393.71328  20406988.333
 -20063942.345 8 -15634222.30029  20294752.634
 -21604478.493 8 -16834651.56527  20838776.120
 -12532779.532 7  -9765782.64426  21301050.082
  -1516703.141 6  -1181829.10221  23590424.488
 92  5  8  8  6 29.9980000  0  6G11G21G23G28G17G 3
  -3815522.452 6  -2973134.11921  23644270.520
 -15289325.059 8 -11913743.82528  20398601.043
 -20033959.238 8 -15610858.84629  20300456.185
 -21651399.373 8 -16871213.28627  20829847.698
 -12473358.069 7  -9719480.21725  21312357.666
  -1399608.903 6  -1090586.89522  23612705.066
 92  5  8  8  6 59.9980000  0  6G11G21G23G28G17G 3
  -3925403.238 6  -3058755.51123  23623359.087
 -15333053.844 8 -11947818.18528  20390280.902
 -20003655.810 8 -15587245.79429  20306223.587
 -21697727.131 8 -16907312.83327  20821031.691
 -12413664.899 7  -9672966.08926  21323716.205
  -1282290.895 5   -999170.39522  23635027.611
 92  5  8  8  7 29.9980000  0  6G11G21G23G28G17G 3
  -4035187.927 6  -3144301.99622  23602467.145
 -15376443.095 8 -11981627.96628  20382020.719
 -19973059.285 8 -15563404.35329  20312047.667
 -21743483.925 8 -16942967.47428  20812326.022
 -12353706.704 7  -9626245.42626  21335127.199
  -1164755.657 5   -907584.58223  23657390.624
 92  5  8  8  7 59.9980000  0  6G11G21G23G28G17G 3
  -4144873.302 6  -3229771.11322  23581595.900
 -15419492.476 8 -12015172.91728  20373830.686
 -19942169.058 8 -15539334.06129  20317926.889
 -21788686.969 8 -16978190.62528  20803724.373
 -12293492.382 7  -9579325.20325  21346587.961
  -1047004.643 5   -815830.66023  23679803.422
 92  5  8  8  8 29.9980000  0  6G11G21G23G28G17G 3
  -4254459.925 6  -3315163.26222  23560741.144
 -15462189.597 8 -12048443.39127  20365704.818
 -19910988.630 8 -15515037.63329  20323858.881
 -21833337.504 8 -17012983.24828  20795224.372
 -12233031.957 7  -9532213.20726  21358087.707
   -929044.124 5   -723913.47923  23702248.869
 92  5  8  8  8 59.9980000  0  6G11G21G23G28G17G 3
  -4363946.530 6  -3400477.46321  23539903.455
 -15504531.364 8 -12081436.95928  20357646.691
 -19879510.211 9 -15490508.99329  20329850.536
 -21877436.350 8 -17047345.99028  20786833.767
 -12172322.831 7  -9484907.42426  21369641.409
   -810877.741 5   -631835.8682   23724736.005
 92  5  8  8  9 29.9980000  0  6G11G21G23G28G17G 3
  -4473333.472 6  -3485714.02422  23519091.872
 -15546513.634 8 -12114150.39828  20349658.121
 -19847720.523 8 -15465737.82029  20335898.258
 -21920983.345 8 -17081278.71327  20778546.920
 -12111391.220 7  -9437428.26726  21381235.578
   -692510.643 5   -539601.88422  23747260.606
 92  5  8  8  9 59.9980000  0  6G11G21G23G28G17G 3
  -4582612.507 6  -3570866.46423  23498295.872
 -15588119.396 8 -12146570.45228  20341741.201
 -19815592.127 8 -15440702.71229  20342011.313
 -21963960.137 8 -17114767.11227  20770368.265
 -12050234.136 7  -9389773.43526  21392872.029
   -573940.257 5   -447209.45423  23769829.583
 92  5  8  8 10 29.9980000  0  6G11G21G23G28G17G 3
  -4691779.438 6  -3655931.59024  23477520.847
 -15629348.938 8 -12178697.34428  20333895.932
 -19783119.428 8 -15415399.32529  20348191.535
 -22006358.401 8 -17147804.72428  20762300.558
 -11988844.330 7  -9341937.24125  21404552.838
   -455167.360 4   -354659.23422  23792424.352
 92  5  8  8 10 59.9980000  0  6G11G21G23G28G17G 3
  -4800840.436 5  -3740914.15922  23456767.425
 -15670231.602 8 -12210553.94429  20326115.125
 -19750316.197 9 -15389838.36929  20354434.123
 -22048196.979 8 -17180406.21527  20754338.669
 -11927218.282 7  -9293916.94925  21416284.008
   -336203.473 4   -261960.23921  23815058.977
 92  5  8  8 11 29.9980000  0  6G11G21G23G28G17G 3
  -4909788.301 5  -3825808.57722  23436037.072
 -15710765.373 8 -12242138.69029  20318402.059
 -19717197.751 8 -15364031.79929  20360733.949
 -22089462.951 8 -17212561.51427  20746486.507
 -11865354.458 7  -9245711.40025  21428057.164
   -217046.238 4   -169110.59323  23837746.965
 92  5  8  8 11 59.9980000  0  6G11G21G23G28G17G 3
  -5018618.598 6  -3910611.38822  23415324.711
 -15750960.003 8 -12273459.16028  20310753.454
 -19683783.083 9 -15337994.39629  20367095.844
 -22130145.921 8 -17244262.53127  20738745.259
 -11803234.017 7  -9197305.89926  21439877.680
    -97696.651 3    -76111.06521  23860455.352
 92  5  8  8 12 29.9980000  0  6G11G21G23G28G17G 3
  -5127325.345 6  -3995317.90221  23394640.828
 -15790814.718 8 -12304514.76229  20303171.107
 -19650082.076 9 -15311733.89129  20373508.119
 -22170244.283 8 -17275508.00427  20731115.553
 -11740849.039 7  -9148694.25325  21451748.260
     21846.014 4     17038.90722  23883204.800
 92  5  8  8 12 59.9980000  0  6G11G21G23G28G17G 3
  -5235907.109 6  -4079927.01922  23373977.327
 -15830330.155 8 -12335305.99628  20295647.812
 -19616110.865 9 -15285262.81829  20379973.442
 -22209752.878 8 -17306293.92727  20723597.354
 -11678206.353 7  -9099881.79525  21463668.906
    141577.913 4    110336.34022  23905989.636
 92  5  8  8 13 29.9980000  0  6G11G21G23G28G17G 3
  -5344363.892 6  -4164438.78522  23353335.430
 -15869495.307 8 -12365824.27928  20288196.779
 -19581869.326 8 -15258581.11229  20386487.329
 -22248664.604 8 -17336614.75728  20716189.788
 -11615310.619 7  -9050872.15624  21475640.819
    261493.622 4    203777.01722  23928800.544
 92  5  8  8 13 59.9980000  0  6G11G21G23G28G17G 3
  -5452687.535 6  -4248846.80324  23332722.290
 -15908295.097 8 -12396057.86928  20280815.581
 -19547337.977 9 -15231673.56329  20393059.674
 -22286982.422 8 -17366472.79327  20708900.030
 -11552154.202 7  -9001659.40025  21487657.109
    381596.216 5    297363.30821  23951654.919
 92  5  8  8 14 29.9980000  0  6G11G21G23G28G17G 3
  -5560875.521 6  -4333149.09523  23312138.240
 -15946722.083 8 -12426000.95328  20273501.846
 -19512516.436 9 -15204539.91629  20399686.290
 -22324705.636 8 -17395867.50128  20701720.905
 -11488749.818 7  -8952253.43725  21499721.649
    501883.040 5    391093.19922  23974548.261
 92  5  8  8 14 59.9980000  0  6G11G21G23G28G17G 3
  -5668929.846 6  -4417347.24622  23291573.385
 -15984785.203 8 -12455660.51328  20266258.260
 -19477413.382 9 -15177186.89429  20406365.361
 -22361824.460 8 -17424791.26028  20694657.790
 -11425103.806 7  -8902659.16225  21511834.770
    622346.637 5    484960.74922  23997471.897
 92  5  8  8 15 29.9980000  0  6G11G21G23G28G17G 3
  -5776849.279 6  -4501440.27623  23271036.102
 -16022489.170 8 -12485040.21129  20259085.436
 -19442023.566 8 -15149610.42929  20413099.312
 -22398344.063 8 -17453248.09327  20687707.997
 -11361213.828 7  -8852874.77625  21523991.952
    742983.020 5    578963.00123  24020424.011
 92  5  8  8 15 59.9980000  0  6G11G21G23G28G17G 3
  -5884625.929 6  -4585422.06923  23250528.798
 -16059833.644 8 -12514139.79029  20251978.852
 -19406350.917 9 -15121813.56429  20419889.000
 -22434259.082 8 -17481233.82028  20680875.120
 -11297083.384 7  -8802903.03025  21536197.106
    863794.569 5    673101.83221  24043418.687
 92  5  8  8 16 29.9980000  0  6G11G21G23G28G17G 3
  -5992261.168 6  -4669293.64722  23230048.472
 -16096831.104 8 -12542968.95929  20244937.323
 -19370414.440 9 -15093811.13029  20426726.973
 -22469569.736 8 -17508748.61628  20674154.674
 -11232719.742 7  -8752749.58425  21548444.227
    984774.865 5    767372.10422  24066444.249
 92  5  8  8 16 59.9980000  0  6G11G21G23G28G17G 3
  -6099747.680 6  -4753049.35622  23209590.640
 -16133479.627 8 -12571526.24129  20237964.442
 -19334205.905 8 -15065596.69229  20433616.196
 -22504282.991 8 -17535797.91027  20667548.755
 -11168113.537 7  -8702407.10725  21560741.116
   1105925.528 5    861775.00723  24089494.992
 92  5  8  8 17 29.9980000  0  6G11G21G23G28G17G 3
  -6207085.160 6  -4836688.93522  23189168.179
 -16169774.308 8 -12599807.78929  20231055.727
 -19297712.656 9 -15037160.39929  20440561.191
 -22538414.616 8 -17562393.97828  20661054.953
 -11103271.187 7  -8651880.59826  21573079.363
   1227241.451 5    956306.79721  24112577.808
 92  5  8  8 17 59.9980000  0  6G11G21G23G28G17G 3
  -6314270.225 6  -4920209.73924  23168772.085
 -16205710.147 8 -12627809.71729  20224220.162
 -19260923.920 9 -15008493.86829  20447564.644
 -22571961.093 8 -17588534.08828  20654669.063
 -11038192.563 7  -8601170.02325  21585462.002
   1348720.908 6   1050966.08922  24135696.311
 92  5  8  8 18 29.9980000  0  6G11G21G23G28G17G 3
  -6421295.188 6  -5003605.78223  23148407.192
 -16241299.185 8 -12655541.42829  20217445.447
 -19223824.545 9 -14979585.26829  20454620.552
 -22604911.038 8 -17614209.38028  20648402.516
 -10972861.355 7  -8550262.62726  21597894.392
   1470366.105 5   1145754.37921  24158847.479
 92  5  8  8 18 59.9980000  0  6G11G21G23G28G17G 3
  -6528165.718 6  -5086881.46321  23128069.574
 -16276554.505 8 -12683013.08528  20210736.396
 -19186400.804 9 -14950423.92329  20461744.534
 -22637259.746 8 -17639416.16328  20642245.363
 -10907271.779 7  -8499153.89925  21610376.254
   1592165.853 5   1240663.17821  24182024.737
 92  5  8  8 19 29.9980000  0  6G11G21G23G28G17G 3
  -6634877.699 6  -5170033.62522  23107765.530
 -16311468.467 8 -12710218.75729  20204092.401
 -19148643.825 9 -14921002.90729  20468926.956
 -22668994.090 8 -17664144.22428  20636205.756
 -10841421.105 7  -8447841.70625  21622905.772
   1714119.026 6   1335691.46921  24205230.176
 92  5  8  8 19 59.9980000  0  5G11G21G23G28G17
  -6741422.479 6  -5253055.48524  23087483.073
 -16346035.877 8 -12737154.38528  20197517.944
 -19110573.442 9 -14891337.68529  20476172.932
 -22700096.776 8 -17688380.09428  20630286.642
 -10775299.681 7  -8396318.55125  21635487.170
 92  5  8  8 20 29.9980000  0  5G11G21G23G28G17
  -6847792.938 6  -5335941.52523  23067243.176
 -16380241.651 8 -12763808.21528  20191005.854
 -19072205.692 9 -14861440.74129  20483474.679
 -22730565.607 8 -17712122.03628  20624491.058
 -10708901.850 7  -8344580.02126  21648121.616
 92  5  8  8 20 59.9980000  0  5G11G21G23G28G17
  -6953982.051 6  -5418686.26523  23047037.167
 -16414047.266 8 -12790150.24129  20184574.105
 -19033540.766 9 -14831312.23429  20490831.586
 -22760405.868 8 -17735374.18828  20618809.703
 -10642238.620 7  -8292634.69626  21660813.037
 92  5  8  8 21 29.9980000  0  5G11G21G23G28G17
  -7059991.208 6  -5501290.78025  23026861.732
 -16447446.731 8 -12816175.78629  20178216.712
 -18994610.374 9 -14800976.86929  20498241.263
 -22789634.223 8 -17758149.53528  20613249.436
 -10575333.562 7  -8240500.92125  21673538.626
 92  5  8  8 21 59.9980000  0  5G11G21G23G28G17
  -7165823.597 6  -5583757.57023  23006727.077
 -16480459.535 8 -12841900.02729  20171933.359
 -18955442.839 9 -14770456.73229  20505694.408
 -22818257.430 8 -17780453.33828  20607804.916
 -10508199.808 7  -8188188.92625  21686315.169
 92  5  8  8 22 29.9980000  0  5G11G21G23G28G17
  -7271473.553 6  -5666082.18323  22986622.088
 -16513085.128 8 -12867322.55329  20165725.567
 -18916024.785 9 -14739741.35829  20513193.709
 -22846277.273 8 -17802286.97828  20602470.698
 -10440844.715 7  -8135704.47625  21699134.309
 92  5  8  8 22 59.9980000  0  5G11G21G23G28G17
  -7376937.461 6  -5748261.80221  22966553.081
 -16545342.410 8 -12892458.07529  20159585.812
 -18876355.719 9 -14708830.41329  20520743.685
 -22873687.175 8 -17823645.34028  20597255.212
 -10373277.962 6  -8083055.09525  21711991.193
 92  5  8  8 23 29.9980000  0  5G11G21G23G28G17
  -7482210.888 6  -5830293.00222  22946520.650
 -16577256.247 8 -12917325.98129  20153515.004
 -18836449.453 9 -14677734.62029  20528336.833
 -22900475.731 8 -17844519.54728  20592155.752
 -10305489.628 6  -8030233.05924  21724889.469
 92  5  8  8 23 59.9980000  0  5G11G21G23G28G17
  -7587293.945 6  -5912175.85124  22926525.998
 -16608833.125 8 -12941931.32929  20147504.468
 -18796303.784 9 -14646452.29829  20535976.434
 -22926631.289 8 -17864900.50328  20587182.196
 -10237469.713 6  -7977230.56524  21737830.917
 92  5  8  8 24 29.9980000  0  5G11G21G23G28G17
  -7692182.390 6  -5993907.05124  22906561.920
 -16640070.228 8 -12966271.91029  20141561.395
 -18755904.108 9 -14614972.03029  20543664.319
 -22952147.723 8 -17884783.43328  20582324.352
 -10169208.511 6  -7924040.04223  21750822.115
 92  5  8  8 24 59.9980000  0  5G11G21G23G28G17
  -7796878.350 6  -6075488.29723  22886637.418
 -16670984.371 8 -12990360.84129  20135680.061
 -18715246.532 9 -14583290.80429  20551401.362
 -22977028.363 8 -17904170.95928  20577588.241
 -10100690.910 6  -7870649.75225  21763863.099
 92  5  8  8 25 29.9980000  0  5G11G21G23G28G17
  -7901378.430 6  -6156916.90422  22866753.070
 -16701559.643 8 -13014185.72128  20129859.593
 -18674320.290 9 -14551400.23029  20559188.469
 -23001275.419 8 -17923064.77428  20572972.920
 -10031909.544 6  -7817053.91123  21776953.834
 92  5  8  8 25 59.9980000  0  5G11G21G23G28G17
  -8005677.089 6  -6238188.56423  22846907.722
 -16731788.504 8 -13037740.66229  20124106.570
 -18633101.576 8 -14519281.77229  20567033.145
 -23024896.828 8 -17941471.06527  20568480.536
  -9962861.846 6  -7763250.55023  21790093.132
 92  5  8  8 26 29.9980000  0  5G11G21G23G28G17
  -8109770.137 6  -6319299.97822  22827097.729
 -16761674.061 8 -13061028.09129  20118423.698
 -18591578.061 9 -14486925.77629  20574934.761
 -23047901.875 8 -17959397.08628  20564100.566
  -9893556.200 7  -7709246.17624  21803280.401
 92  5  8  8 26 59.9980000  0  5G11G21G23G28G17
  -8213651.369 6  -6400246.36523  22807329.110
 -16791198.188 8 -13084033.89129  20112803.489
 -18549757.187 9 -14454338.08429  20582893.665
 -23070293.424 8 -17976845.04228  20559840.811
  -9824007.334 6  -7655052.29522  21816515.345
 92  5  8  8 27 29.9980000  0  5G11G21G23G28G17
  -8317321.022 6  -6481027.87622  22787600.365
 -16820352.693 7 -13106751.66929  20107254.633
 -18507660.827 9 -14421535.72829  20590904.415
 -23092074.320 8 -17993817.17327  20555695.895
  -9754240.247 7  -7600688.33824  21829790.458
 92  5  8  8 27 59.9980000  0  5G11G21G23G28G17
  -8420776.749 6  -6561642.70423  22767915.699
 -16849159.649 8 -13129198.63029  20101773.537
 -18465301.821 9 -14388528.71929  20598963.135
 -23113238.118 8 -18010308.44928  20551669.380
  -9684250.806 7  -7546151.15924  21843109.930
 92  5  8  8 28 29.9980000  0  5G11G21G23G28G17
  -8524020.972 6  -6642092.71023  22748266.702
 -16877622.977 8 -13151377.82429  20096355.088
 -18422698.451 9 -14355331.28729  20607070.418
 -23133787.655 8 -18026321.08228  20547759.187
  -9614045.010 7  -7491445.35124  21856469.573
 92  5  8  8 28 59.9980000  0  5G11G21G23G28G17
  -8627042.891 6  -6722369.49024  22728667.176
 -16905737.708 8 -13173285.39829  20091010.086
 -18379854.534 9 -14321946.42029  20615225.970
 -23153713.898 8 -18041848.02628  20543966.505
  -9543608.173 7  -7436559.52424  21869873.905
 92  5  8  8 29 29.9980000  0  5G11G21G23G28G17
  -8729844.325 6  -6802474.45522  22709100.316
 -16933522.549 8 -13194935.90629  20085721.449
 -18336766.216 9 -14288371.11629  20623423.803
 -23173008.858 8 -18056883.05928  20540299.150
  -9472921.634 7  -7381479.11123  21883324.393
 92  5  8  8 29 59.9980000  0  5G11G21G23G28G17
  -8832413.902 6  -6882398.75723  22689581.131
 -16960970.957 8 -13216324.26029  20080499.960
 -18293413.368 8 -14254589.68429  20631671.683
 -23191656.493 8 -18071413.68729  20536748.711
  -9401963.431 7  -7326187.04023  21896826.447
 92  5  8  8 30 29.9980000  0  5G11G21G23G28G17
  -8934751.530 6  -6962142.33224  22670111.417
 -16988062.112 8 -13237434.24029  20075343.228
 -18249794.733 8 -14220601.13029  20639971.740
 -23209649.558 8 -18085434.25628  20533322.081
  -9330745.467 7  -7270692.56324  21910378.862
 92  5  8  8 30 59.9980000  0  5G11G21G23G28G17
  -9036854.127 6  -7041702.76624  22650682.763
 -17014785.515 7 -13258257.66029  20070256.350
 -18205925.791 9 -14186417.53329  20648321.861
 -23226966.871 8 -18098928.26829  20530028.562
  -9259269.590 7  -7214997.08524  21923978.043
 92  5  8  8 31 29.9980000  0  5G11G21G23G28G17
  -9138721.576 6  -7121079.94924  22631297.875
 -17041133.437 8 -13278788.48029  20065243.513
 -18161807.616 8 -14152039.74129  20656717.248
 -23243605.997 8 -18111893.82928  20526859.149
  -9187542.708 7  -7159106.01824  21937629.087
 92  5  8  8 31 59.9980000  0  5G11G21G23G28G17
  -9240350.293 6  -7200271.12723  22611956.176
 -17067101.877 8 -13299023.62328  20060299.936
 -18117451.062 9 -14117476.19929  20665160.605
 -23259570.876 8 -18124333.99928  20523821.659
  -9115586.127 7  -7103035.98424  21951318.521
 92  5  8  8 32 29.9980000  0  5G11G21G23G28G17
  -9341737.143 6  -7279273.81625  22592662.430
 -17092688.095 8 -13318960.91729  20055431.919
 -18072867.433 8 -14082735.71329  20673642.633
 -23274879.782 7 -18136263.01628  20520910.666
  -9043403.434 7  -7046789.77924  21965057.706
 92  5  8  8 32 59.9980000  0  5G11G21G23G28G17
  -9442874.478 6  -7358082.09724  22573417.248
 -17117899.081 7 -13338605.82729  20050632.237
 -18028049.827 8 -14047812.90129  20682168.739
 -23289556.467 8 -18147699.40928  20518120.499
  -8970996.615 7  -6990368.86625  21978836.764
 92  5  8  8 33 29.9980000  0  5G11G21G23G28G17
  -9543764.178 6  -7436697.42025  22554219.740
 -17142759.312 8 -13357977.41729  20045902.704
 -17982985.746 8 -14012698.04429  20690746.987
 -23303625.884 8 -18158662.59129  20515439.151
  -8898372.047 7  -6933778.32826  21992656.307
 92  5  8  8 33 59.9980000  0  5G11G21G23G28G17
  -9644393.362 6  -7515109.73924  22535066.904
 -17167262.814 8 -13377071.03529  20041240.931
 -17937671.870 8 -13977388.53329  20699368.424
 -23317087.919 8 -18169152.49129  20512877.424
  -8825517.501 6  -6877008.58824  22006518.411
 92  5  8  8 34 29.9980000  0  5G11G21G23G28G17
  -9744767.718 6  -7593323.49123  22515966.821
 -17191410.042 7 -13395887.04629  20036647.510
 -17892115.453 8 -13941890.03029  20708037.518
 -23329962.434 8 -18179184.59028  20510425.720
  -8752433.063 6  -6820059.72524  22020427.281
 92  5  8  8 34 59.9980000  0  5G11G21G23G28G17
  -9844882.863 6  -7671335.26124  22496917.413
 -17215204.699 7 -13414428.31629  20032116.160
 -17846314.558 8 -13906201.02228  20716751.895
 -23342229.090 8 -18188743.02828  20508095.139
  -8679120.920 6  -6762933.38924  22034381.121
 92  5  8  8 35 29.9980000  0  5G11G21G23G28G17
  -9944737.806 6  -7749144.27724  22477915.661
 -17238649.791 8 -13432697.19929  20027657.350
 -17800268.509 8 -13870320.99529  20725516.319
 -23353875.639 8 -18197818.26028  20505876.082
  -8605567.145 6  -6705618.80324  22048376.929
 92  5  8  8 35 59.9980000  0  5G11G21G23G28G17
 -10044329.072 6  -7826747.82723  22458962.491
 -17261734.809 8 -13450685.52329  20023264.781
 -17753975.664 8 -13834248.66029  20734324.526
 -23364891.345 8 -18206401.93228  20503781.428
  -8531761.789 6  -6648108.17325  22062422.504
 92  5  8  8 36 29.9980000  0  5G11G21G23G28G17
 -10143652.523 6  -7904142.69224  22440061.776
 -17284471.695 7 -13468402.55329  20018936.377
 -17707425.484 8 -13797975.79028  20743183.391
 -23375260.357 8 -18214481.69728  20501804.597
  -8457705.715 6  -6590402.18125  22076512.752
 92  5  8  8 36 59.9980000  0  5G11G21G23G28G17
 -10242702.243 6  -7981324.28124  22421213.517
 -17306869.145 8 -13485855.09429  20014676.936
 -17660610.818 9 -13761496.83628  20752092.617
 -23384957.049 8 -18222037.56327  20499962.378
  -8383396.945 6  -6532499.29124  22090654.252
 92  5  8  8 37 29.9980000  0  5G11G21G23G28G17
 -10341479.744 6  -8058293.74925  22402419.824
 -17328930.714 8 -13503045.92229  20010474.434
 -17613536.692 8 -13724815.70529  20761049.517
 -23393989.918 8 -18229076.16928  20498244.858
  -8308837.559 6  -6474401.08624  22104840.441
 92  5  8  8 37 59.9980000  0  5G11G21G23G28G17
 -10439980.644 6  -8135047.66523  22383672.305
 -17350654.014 8 -13519973.15629  20006342.101
 -17566222.442 8 -13687947.45128  20770053.184
 -23402346.647 8 -18235587.91728  20496653.258
  -8234049.802 6  -6416124.96223  22119072.786
 92  5  8  8 38 29.9980000  0  5G11G21G23G28G17
 -10538196.908 6  -8211579.80624  22364982.337
 -17372027.671 8 -13536627.94229  20002272.710
 -17518682.983 8 -13650903.72028  20779100.022
 -23410027.565 8 -18241573.05328  20495191.174
  -8159053.863 6  -6357686.60825  22133344.098
 92  5  8  8 38 59.9980000  0  5G11G21G23G28G17
 -10636127.573 6  -8287889.38423  22346345.452
 -17393039.528 8 -13553000.79529  19998275.877
 -17470930.687 8 -13613694.14329  20788188.235
 -23417044.388 8 -18247040.71828  20493855.604
  -8083852.901 6  -6299088.50825  22147654.097
 92  5  8  8 39 29.9980000  0  5G11G21G23G28G17
 -10733770.034 6  -8363974.37322  22327765.804
 -17413696.958 8 -13569097.48729  19994344.099
 -17422969.499 8 -13576321.80028  20797313.320
 -23423420.496 8 -18252009.12728  20492644.734
  -8008457.447 6  -6240338.85824  22162005.766
 92  5  8  8 39 59.9980000  0  5G11G21G23G28G17
 -10831120.406 7  -8439831.77024  22309241.630
 -17433996.847 8 -13584915.57429  19990483.674
 -17374800.874 8 -13538787.80128  20806479.780
 -23429159.425 8 -18256481.01928  20491550.186
  -7932867.848 6  -6181437.87724  22176385.915
 92  5  8  8 40 29.9980000  0  5G11G21G23G28G17
 -10928173.094 7  -8515457.22724  22290774.710
 -17453942.308 7 -13600457.47629  19986683.506
 -17326408.769 8 -13501079.66728  20815690.005
 -23434270.725 8 -18260463.86428  20490581.263
  -7857056.789 6  -6122364.37724  22190814.610
 92  5  8  8 40 59.9980000  0  5G11G21G23G28G17
 -11024923.882 7  -8590847.41224  22272359.059
 -17473549.086 8 -13615735.47529  19982951.689
 -17277771.302 8 -13463180.34528  20824943.995
 -23438747.114 8 -18263951.97028  20489725.958
  -7781000.203 6  -6063099.55324  22205287.402
 92  5  8  8 41 29.9980000  0  5G11G21G23G28G17
 -11121378.365 7  -8666006.72923  22254006.368
 -17492833.841 8 -13630762.54629  19979283.427
 -17228895.822 8 -13425095.55828  20834246.253
 -23442597.856 8 -18266952.55628  20488993.869
  -7704704.020 6  -6003648.01624  22219805.756
 92  5  8  8 41 59.9980000  0  5G11G21G23G28G17
 -11217527.345 7  -8740927.99325  22235710.635
 -17511776.811 7 -13645523.28929  19975681.719
 -17179778.427 8 -13386822.25428  20843593.182
 -23445803.970 8 -18269450.83128  20488381.995
  -7628147.818 6  -5943993.85824  22234369.359
 92  5  8  8 42 29.9980000  0  5G11G21G23G28G17
 -11313368.135 7  -8815609.07324  22217470.673
 -17530383.847 8 -13660022.27829  19972141.768
 -17130419.024 8 -13348360.37728  20852982.988
 -23448363.603 8 -18271445.36829  20487896.320
  -7551333.516 6  -5884138.60024  22248987.843
 92  5  8  8 42 59.9980000  0  5G11G21G23G28G17
 -11408899.326 7  -8890048.92823  22199295.154
 -17548652.680 8 -13674257.72629  19968664.777
 -17080827.756 8 -13309717.83528  20862422.247
 -23450275.595 8 -18272935.25028  20487532.378
  -7474270.230 6  -5824089.32223  22263656.688
 92  5  8  8 43 29.9980000  0  5G11G21G23G28G17
 -11504111.868 7  -8964240.48824  22181176.296
 -17566565.246 8 -13688215.55729  19965254.638
 -17031017.404 8 -13270904.57628  20871897.488
 -23451536.124 8 -18273917.49128  20487294.933
  -7396967.676 6  -5763853.59322  22278364.202
 92  5  8  8 43 59.9980000  0  5G11G21G23G28G17
 -11599009.639 7  -9038186.77624  22163118.584
 -17584120.800 8 -13701895.20029  19961914.946
 -16980992.736 8 -13231924.30028  20881418.292
 -23452138.810 8 -18274387.12229  20487177.424
  -7319436.822 6  -5703439.99123  22293117.297
 92  5  8  8 44 29.9980000  0  5G11G21G23G28G17
 -11693587.175 7  -9111883.53024  22145121.459
 -17601318.639 8 -13715296.10429  19958642.419
 -16930752.744 8 -13192776.25028  20890979.877
 -23452077.151 8 -18274339.09529  20487189.115
  -7241675.938 6  -5642847.11424  22307915.047
 92  5  8  8 44 59.9980000  0  5G11G21G23G28G17
 -11787839.497 7  -9185326.85624  22127183.072
 -17618149.397 8 -13728410.97229  19955439.135
 -16880289.958 8 -13153454.60628  20900583.133
 -23451354.396 8 -18273775.93929  20487327.024
  -7163691.525 6  -5582080.07023  22322756.876
 92  5  8  8 45 29.9980000  0  5G11G21G23G28G17
 -11881763.899 7  -9258514.67324  22109310.646
 -17634606.152 8 -13741234.41329  19952309.002
 -16829608.880 8 -13113962.85827  20910228.357
 -23449970.156 8 -18272697.33929  20487589.633
  -7085485.099 6  -5521140.05123  22337636.170
 92  5  8  8 45 59.9980000  0  5G11G21G23G28G17
 -11975355.244 7  -9331442.97222  22091501.774
 -17650690.528 8 -13753767.68129  19949246.018
 -16778707.600 8 -13074299.52827  20919911.640
 -23447923.446 8 -18271102.50328  20487982.367
  -7007045.133 6  -5460018.04824  22352560.452
 92  5  8  8 46 29.9980000  0  5G11G21G23G28G17
 -12068613.220 7  -9404111.48823  22073755.862
 -17666415.115 8 -13766020.59129  19946256.499
 -16727594.878 8 -13034471.42828  20929638.409
 -23445228.870 8 -18269002.83128  20488493.519
  -6928381.197 6  -5398721.50123  22367532.075
 92  5  8  8 46 59.9980000  0  5G11G21G23G28G17
 -12161544.044 7  -9476525.08824  22056071.393
 -17681803.269 8 -13778011.34329  19943327.515
 -16676287.743 8 -12994491.85428  20939402.347
 -23441894.877 8 -18266404.93428  20489127.573
  -6849508.265 6  -5337262.10622  22382544.183
 92  5  8  8 47 29.9980000  0  5G11G21G23G28G17
 -12254138.757 7  -9548676.79023  22038452.292
 -17696857.086 8 -13789741.58129  19940462.102
 -16624789.444 8 -12954363.29928  20949201.970
 -23437902.299 8 -18263293.84228  20489889.641
  -6770405.814 7  -5275623.85323  22397597.666
 92  5  8  8 47 59.9980000  0  5G11G21G23G28G17
 -12346396.973 7  -9620566.28624  22020894.354
 -17711593.179 8 -13801224.24029  19937655.740
 -16573090.229 8 -12914078.20127  20959041.764
 -23433260.316 8 -18259676.72728  20490771.942
  -6691079.027 7  -5213810.82823  22412694.617
 92  5  8  8 48 29.9980000  0  5G11G21G23G28G17
 -12438310.094 7  -9692186.88922  22003404.158
 -17726012.877 8 -13812460.35129  19934911.746
 -16521183.527 8 -12873631.42628  20968918.727
 -23427969.641 8 -18255554.12928  20491777.144
  -6611526.433 6  -5151821.84621  22427828.737
 92  5  8  8 48 59.9980000  0  5G11G21G23G28G17
 -12529877.682 7  -9763538.22824  21985978.126
 -17740100.990 8 -13823438.08629  19932231.305
 -16469071.386 8 -12833024.56729  20978833.155
 -23422038.289 7 -18250932.31129  20492905.859
  -6531747.751 6  -5089656.59122  22443007.827
 92  5  8  8 49 29.9980000  0  5G11G21G23G28G17
 -12621091.754 7  -9834614.09525  21968621.633
 -17753838.642 8 -13834142.73229  19929619.217
 -16416744.807 8 -12792250.60728  20988791.366
 -23415476.788 8 -18245819.47428  20494153.584
  -6451741.665 6  -5027314.2322   22458233.997
 92  5  8  8 49 59.9980000  0  5G11G21G23G28G17
 -12711958.247 7  -9905419.14724  21951332.010
 -17767231.265 8 -13844578.52829  19927070.979
 -16364211.917 8 -12751315.89428  20998788.840
 -23408301.955 8 -18240228.69728  20495517.650
  -6371535.722 6  -4964816.18622  22473503.618
 92  5  8  8 50 29.9980000  0  5G11G21G23G28G17
 -12802471.402 7  -9975948.86125  21934105.033
 -17780260.881 8 -13854731.46829  19924589.593
 -16311471.793 8 -12710219.71029  21008824.687
 -23400500.983 8 -18234150.02829  20497006.119
  -6291132.106 6  -4902163.91723  22488802.625
 92  5  8  8 50 59.9980000  0  5G11G21G23G28G17
 -12892621.099 7 -10046195.36825  21916950.910
 -17792923.217 8 -13864598.20429  19922179.264
 -16258510.723 8 -12668951.36028  21018903.410
 -23392057.970 8 -18227571.07628  20498612.412
  -6210526.013 6  -4839354.04922  22504138.801
 92  5  8  8 51 29.9980000  0  5G11G21G23G28G17
 -12982403.428 7 -10116155.61325  21899866.641
 -17805232.235 8 -13874189.62729  19919839.975
 -16205332.423 8 -12627513.72428  21029021.116
 -23382967.852 8 -18220487.87229  20500342.513
  -6129713.873 6  -4776383.60222  22519510.960
 92  5  8  8 51 59.9980000  0  5G11G21G23G28G17
 -13071812.510 7 -10185825.01325  21882852.225
 -17817195.962 8 -13883511.99729  19917561.867
 -16151936.814 8 -12585906.76428  21039184.384
 -23373216.812 8 -18212889.66628  20502197.332
  -6048698.147 5  -4713254.51622  22534929.885
 92  5  8  8 52 29.9980000  0  5G11G21G23G28G17
 -13160850.750 7 -10255205.44125  21865905.254
 -17828824.071 8 -13892572.84129  19915349.389
 -16098342.774 8 -12544145.19228  21049381.210
 -23362807.563 8 -18204778.57728  20504178.054
  -5967470.869 5  -4649960.60123  22550384.199
 92  5  8  8 52 59.9980000  0  5G11G21G23G28G17
 -13249516.408 7 -10324295.54425  21849036.530
 -17840130.872 8 -13901383.32929  19913198.388
 -16044566.057 8 -12502241.26828  21059615.535
 -23351748.131 8 -18196160.84827  20506280.491
  -5886025.008 5  -4586496.32822  22565890.951
 92  5  8  8 53 29.9980000  0  5G11G21G23G28G17
 -13337804.203 7 -10393091.22425  21832236.158
 -17851109.819 8 -13909938.34029  19911109.422
 -15990618.573 8 -12460204.28128  21069881.027
 -23340041.957 8 -18187039.17527  20508510.350
  -5804358.289 5  -4522859.91422  22581425.310
 92  5  8  8 53 59.9980000  0  5G11G21G23G28G17
 -13425711.211 7 -10461590.18125  21815507.141
 -17861768.315 8 -13918243.64529  19909079.822
 -15936492.872 8 -12418028.43527  21080180.687
 -23327685.097 8 -18177410.45528  20510862.517
  -5722465.496 5  -4459047.41624  22597012.420
 92  5  8  8 54 29.9980000  0  5G11G21G23G28G17
 -13513231.442 7 -10529787.76425  21798851.274
 -17872095.125 8 -13926290.49329  19907114.997
 -15882183.037 8 -12375709.10428  21090516.032
 -23314680.979 8 -18167277.38128  20513335.509
  -5640336.774 5  -4395051.04623  22612642.091
 92  5  8  8 54 59.9980000  0  5G11G21G23G28G17
 -13600359.894 7 -10597680.05325  21782273.044
 -17882094.002 8 -13934081.81929  19905214.006
 -15827680.164 8 -12333239.35228  21100888.564
 -23301033.479 8 -18156642.99028  20515932.608
  -5557981.624 5  -4330878.27223  22628312.841
 92  5  8  8 55 29.9980000  0  5G11G21G23G28G17
 -13687104.512 7 -10665273.23625  21765766.778
 -17891769.073 8 -13941620.83029  19903373.584
 -15772998.581 8 -12290630.34227  21111291.354
 -23286750.735 8 -18145513.59128  20518650.235
  -5475414.829 5  -4266540.55222  22644026.465
 92  5  8  8 55 59.9980000  0  5G11G21G23G28G17
 -13773455.799 7 -10732559.94626  21749334.257
 -17901114.126 8 -13948902.67129  19901591.620
 -15718120.845 8 -12247868.48727  21121735.222
 -23271825.197 8 -18133883.31729  20521491.671
  -5392632.252 5  -4202034.68622  22659770.366
 92  5  8  8 56 29.9980000  0  5G11G21G23G28G17
 -13859411.032 7 -10799538.03824  21732976.668
 -17910113.846 8 -13955915.42429  19899881.306
 -15663054.701 8 -12204959.82128  21132217.166
 -23256259.178 8 -18121753.96928  20524456.620
  -5309645.931 5  -4137370.09923  22675569.723
 92  5  8  8 56 59.9980000  0  5G11G21G23G28G17
 -13944974.113 7 -10866210.56225  21716694.637
 -17918782.448 8 -13962670.18329  19898232.732
 -15607801.678 8 -12161905.54228  21142727.590
 -23240056.726 8 -18109128.68528  20527535.781
  -5226460.226 5  -4072550.13923  22691398.763
 92  5  8  8 57 29.9980000  0  5G11G21G23G28G17
 -14030135.400 7 -10932570.00226  21700487.870
 -17927101.616 8 -13969152.64429  19896647.746
 -15552346.535 8 -12118693.75227  21153282.092
 -23223205.810 8 -18095998.12628  20530741.770
  -5143063.410 5  -4007565.68522  22707261.988
 92  5  8  8 57 59.9980000  0  5G11G21G23G28G17
 -14114889.788 7 -10998612.37426  21684360.535
 -17935069.826 8 -13975361.62029  19895129.891
 -15496679.301 8 -12075316.69227  21163872.263
 -23205702.439 8 -18082359.15328  20534074.849
  -5059461.682 5  -3942421.51624  22723176.168
 92  5  8  8 58 29.9980000  0  5G11G21G23G28G17
 -14199235.553 7 -11064336.33925  21668310.244
 -17942682.340 8 -13981293.45029  19893681.890
 -15440812.829 8 -12031784.39327  21174506.199
 -23187552.906 8 -18068216.66928  20537526.973
  -4975652.803 5  -3877115.94022  22739129.332
 92  5  8  8 58 59.9980000  0  5G11G21G23G28G17
 -14283174.147 7 -11129743.02926  21652337.903
 -17949951.981 8 -13986958.09729  19892299.850
 -15384752.001 8 -11988100.65827  21185171.911
 -23168772.858 8 -18053582.87828  20541103.186
  -4891639.357 5  -3811650.98623  22755118.163
 92  5  8  8 59 29.9980000  0  5G11G21G23G28G17
 -14366697.370 7 -11194826.04825  21636443.494
 -17956869.164 8 -13992348.11329  19890982.568
 -15328505.526 8 -11944272.24327  21195876.608
 -23149362.035 8 -18038457.58128  20544795.128
  -4807424.025 5  -3746028.71523  22771139.069
 92  5  8  8 59 59.9980000  0  5G11G21G23G28G17
 -14449802.908 7 -11259583.61825  21620629.444
 -17963449.748 8 -13997475.83829  19889729.433
 -15272082.906 8 -11900306.58527  21206613.064
 -23129331.142 8 -18022849.10227  20548607.896
  -4723011.207 5  -3680252.55824  22787201.349
 92  5  8  9  0 29.9980000  0  5G11G21G23G28G17
 -14532486.063 7 -11324012.03825  21604893.640
 -17969703.544 8 -14002348.91429  19888542.242
 -15215477.833 8 -11856198.73627  21217382.814
 -23108685.127 8 -18006761.30928  20552537.266
  -4638395.347 6  -3614318.22025  22803303.799
 92  5  8  9  0 59.9980000  0  5G11G21G23G28G17
 -14614745.044 7 -11388109.93625  21589240.288
 -17975638.425 8 -14006973.50229  19887411.136
 -15158694.287 8 -11811951.85127  21228190.031
 -23087413.517 8 -17990186.05728  20556583.571
  -4553581.024 6  -3548229.16922  22819441.027
 92  5  8  9  1 29.9980000  0  5G11G21G23G28G17
 -14696579.388 7 -11451876.93225  21573669.355
 -17981252.838 8 -14011348.37329  19886343.270
 -15101744.821 8 -11767575.64627  21239027.820
 -23065506.386 8 -17973115.58927  20560754.591
  -4468564.132 6  -3481982.28321  22835619.630
 92  5  8  9  1 59.9980000  0  5G11G21G23G28G17
 -14777981.164 7 -11515306.88426  21558179.686
 -17986541.634 8 -14015469.50429  19885335.660
 -15044622.776 8 -11723064.98027  21249898.294
 -23042959.475 8 -17955546.58128  20565041.621
  -4383340.114 6  -3415574.02824  22851845.296
 92  5  8  9  2 29.9980000  0  5G11G21G23G28G17
 -14858949.126 7 -11578398.80025  21542771.249
 -17991488.505 8 -14019324.20229  19884397.013
 -14987329.513 8 -11678420.89527  21260799.654
 -23019774.418 8 -17937480.32427  20569456.963
  -4297909.080 6  -3349004.44224  22868096.143
 92  5  8  9  2 59.9980000  0  5G11G21G23G28G17
 -14939480.734 7 -11641150.70125  21527446.467
 -17996078.940 8 -14022901.16229  19883520.733
 -14929878.483 8 -11633653.89127  21271733.681
 -22995958.108 8 -17918922.17728  20573988.016
  -4212273.405 6  -3282275.41625  22884391.366
 92  5  8  9  3 29.9980000  0  5G11G21G23G28G17
 -15019576.309 8 -11703562.83326  21512206.215
 -18000326.277 8 -14026210.77329  19882713.381
 -14872257.289 8 -11588754.27826  21282698.299
 -22971527.909 8 -17899885.67428  20578635.707
  -4126447.221 6  -3215397.92123  22900725.258
 92  5  8  9  3 59.9980000  0  5G11G21G23G28G17
 -15099230.721 8 -11765631.19726  21497045.414
 -18004239.074 8 -14029259.70429  19881966.895
 -14814448.903 8 -11543708.79027  21293699.771
 -22946490.777 8 -17880376.22728  20583402.409
  -4040440.540 6  -3148379.75722  22917094.522
 92  5  8  9  4 29.9980000  0  5G11G21G23G28G17
 -15178438.969 8 -11827351.90025  21481975.440
 -18007826.529 8 -14032055.11729  19881285.778
 -14756449.627 8 -11498514.56726  21304734.242
 -22920846.323 8 -17860393.56328  20588282.729
  -3954243.600 6  -3081213.36724  22933493.766
 92  5  8  9  4 59.9980000  0  5G11G21G23G28G17
 -15257199.243 7 -11888723.52225  21466986.715
 -18011102.794 8 -14034608.05129  19880661.008
 -14698263.337 7 -11453174.62227  21315808.569
 -22894590.414 8 -17839934.43227  20593276.074
  -3867847.685 6  -3013891.92924  22949939.182
 92  5  8  9  5 29.9980000  0  6G12G11G21G23G28G17
  -2086378.229 4  -1625769.44222  24126459.998
 -15335503.988 7 -11949740.20425  21452087.336
 -18014075.055 8 -14036924.09429  19880099.199
 -14639881.850 8 -11407682.57026  21326918.285
 -22867708.764 8 -17818987.71527  20598388.429
  -3781244.276 6  -2946408.81123  22966416.079
 92  5  8  9  5 59.9980000  0  6G12G11G21G23G28G17
  -2152042.452 3  -1676936.21322  24113951.158
 -15413355.021 7 -12010403.35125  21437270.687
 -18016736.442 8 -14038997.90129  19879591.938
 -14581330.955 8 -11362058.50926  21338060.668
 -22840207.494 8 -17797558.17627  20603622.814
  -3694425.826 6  -2878758.10423  22982930.756
 92  5  8  9  6 29.9980000  0  5G11G21G23G28G17
 -15490751.878 7 -12070712.60725  21422545.181
 -18019085.030 8 -14040827.96529  19879141.949
 -14522628.559 7 -11316316.41026  21349230.343
 -22812083.345 8 -17775643.27728  20608977.099
  -3607382.662 6  -2810932.31823  22999502.373
 92  5  8  9  6 59.9980000  0  5G11G21G23G28G17
 -15567688.205 7 -12130662.99625  21407902.110
 -18021108.450 8 -14042404.65629  19878759.720
 -14463780.271 7 -11270460.61927  21360427.886
 -22783324.123 8 -17753233.52127  20614451.616
  -3520131.335 6  -2742944.32623  23016103.986
 92  5  8  9  7 29.9980000  0  6G12G11G21G23G28G17
    -49324.83215    -38455.42322  24076963.973
 -15644157.692 7 -12190249.59526  21393351.683
 -18022809.291 8 -14043729.98229  19878435.041
 -14404784.844 8 -11224490.18027  21371655.408
 -22753930.871 8 -17730329.68927  20620043.940
  -3432683.703 6  -2674803.36123  23032746.957
 92  5  8  9  7 59.9980000  0  6G12G11G21G23G28G17
   -113276.348 4    -88287.63022  24064777.404
 -15720158.293 7 -12249470.83125  21378889.710
 -18024187.592 8 -14044803.98629  19878173.933
 -14345642.045 7 -11178404.89226  21382910.816
 -22723920.173 8 -17706944.77028  20625754.681
  -3345036.942 6  -2606507.27924  23049425.317
 92  5  8  9  8 29.9980000  0  6G12G11G21G23G28G17
   -176790.499 5   -137779.04721  24052699.969
 -15795687.262 7 -12308324.57625  21364515.861
 -18025238.681 8 -14045623.01629  19877973.971
 -14286338.841 7 -11132194.61526  21394193.813
 -22693289.613 8 -17683076.83227  20631584.153
  -3257203.792 6  -2538065.87221  23066138.751
 92  5  8  9  8 59.9980000  0  6G12G11G21G23G28G17
   -239866.107 5   -186928.7712   24040705.562
 -15870743.782 7 -12366810.16726  21350233.434
 -18025961.419 8 -14046186.18829  19877836.952
 -14226872.523 8 -11085857.25027  21405512.181
 -22662053.150 8 -17658736.74827  20637528.133
  -3169207.104 6  -2469497.07621  23082883.945
 92  5  8  9  9 29.9980000  0  6G12G11G21G23G28G17
   -302500.341 5   -235734.58922  24028784.620
 -15945324.850 8 -12424925.27525  21336040.072
 -18026348.869 8 -14046488.10329  19877760.520
 -14167238.598 7 -11039389.27927  21416858.417
 -22630232.401 8 -17633941.39028  20643586.046
  -3081030.942 6  -2400788.44623  23099658.543
 92  5  8  9  9 59.9980000  0  6G12G11G21G23G28G17
   -364688.015 5   -284192.34521  24016951.802
 -16019425.533 8 -12482666.07025  21321940.226
 -18026384.887 8 -14046516.21829  19877753.610
 -14107434.699 7 -10992788.84127  21428240.339
 -22597823.218 8 -17608687.51027  20649750.981
  -2992677.379 6  -2331941.55523  23116469.996
 92  5  8  9 10 29.9980000  0  6G12G11G21G23G28G17
   -426426.888 5   -332300.48221  24005204.437
 -16093043.667 8 -12540030.84226  21307933.321
 -18026069.785 8 -14046270.65329  19877815.366
 -14047464.814 8 -10946059.07726  21439649.833
 -22564804.780 8 -17582958.87427  20656033.723
  -2904165.378 6  -2262971.19921  23133320.432
 92  5  8  9 10 59.9980000  0  6G12G11G21G23G28G17
   -487714.371 6   -380056.79121  23993537.117
 -16166176.775 8 -12597017.68126  21294013.962
 -18025414.551 8 -14045760.09129  19877937.692
 -13987332.667 7 -10899202.88127  21451093.825
 -22531177.966 8 -17556756.19726  20662430.693
  -2815478.757 6  -2193864.76722  23150195.456
 92  5  8  9 11 29.9980000  0  6G12G11G21G23G28G17
   -548548.448 6   -427459.89721  23981964.534
 -16238822.607 8 -12653624.82126  21280190.231
 -18024429.137 8 -14044992.23129  19878128.354
 -13927031.699 7 -10852215.15328  21462571.374
 -22496924.629 8 -17530065.30227  20668949.082
  -2726598.358 6  -2124607.37621  23167108.852
 92  5  8  9 11 59.9980000  0  6G12G11G21G23G28G17
   -608918.908 5   -474501.70421  23970477.387
 -16310971.367 8 -12709844.62925  21266459.144
 -18023124.546 8 -14043975.66529  19878375.990
 -13866546.574 7 -10805083.88426  21474078.309
 -22462017.263 7 -17502864.79127  20675593.078
  -2637523.201 6  -2055198.22922  23184060.901
 92  5  8  9 12 29.9980000  0  6G12G11G21G23G28G17
   -668829.146 5   -521184.77221  23959070.581
 -16382626.454 8 -12765679.76426  21252826.074
 -18021521.099 8 -14042726.22729  19878679.972
 -13805884.162 7 -10757814.48527  21485621.820
 -22426470.765 7 -17475166.23927  20682354.898
  -2548246.427 6  -1985631.94923  23201049.247
 92  5  8  9 12 59.9980000  0  6G12G11G21G23G28G17
   -728277.425 6   -567508.14522  23947756.715
 -16453785.877 8 -12821128.66326  21239283.257
 -18019612.127 8 -14041238.72329  19879043.321
 -13745043.171 7 -10710405.92926  21497200.092
 -22390310.708 7 -17446989.60227  20689234.542
  -2458761.774 6  -1915903.69623  23218073.854
 92  5  8  9 13 29.9980000  0  6G12G11G21G23G28G17
   -787259.488 6   -613468.05822  23936536.975
 -16524445.722 8 -12876188.27526  21225836.956
 -18017397.775 8 -14039513.26629  19879466.035
 -13684033.831 8 -10662866.20927  21508807.471
 -22353544.724 7 -17418340.80627  20696238.885
  -2369086.861 5  -1846027.24422  23235137.148
 92  5  8  9 13 59.9980000  0  6G12G11G21G23G28G17
   -845774.503 5   -659064.01622  23925401.782
 -16594605.240 8 -12930858.00625  21212487.208
 -18014879.821 8 -14037551.22229  19879943.298
 -13622879.966 7 -10615213.86027  21520445.405
 -22316202.911 7 -17389243.30728  20703339.483
  -2279236.180 6  -1776013.65222  23252237.907
 92  5  8  9 14 29.9980000  0  6G12G11G21G23G28G17
   -903813.311 5   -704289.01023  23914349.948
 -16664255.214 8 -12985130.71125  21199230.679
 -18012042.503 8 -14035340.33329  19880487.431
 -13561593.462 7 -10567458.13926  21532109.427
 -22278293.045 7 -17359703.19227  20710556.073
  -2189201.788 6  -1705857.07121  23269372.852
 92  5  8  9 14 59.9980000  0  6G12G11G21G23G28G17
   -961377.384 6   -749143.97522  23903406.324
 -16733397.012 8 -13039007.44026  21186075.780
 -18008885.096 8 -14032880.01529  19881084.909
 -13500189.138 8 -10519610.63526  21543795.035
 -22239805.637 7 -17329713.02627  20717877.905
  -2098999.532 5  -1635569.68122  23286539.556
 92  5  8  9 15 29.9980000  0  6G12G11G21G23G28G17
  -1018462.832 5   -793625.99322  23892540.335
 -16802027.063 8 -13092485.40826  21173016.526
 -18005424.340 8 -14030183.32529  19881743.847
 -13438677.004 7 -10471679.12126  21555500.432
 -22200729.651 7 -17299264.24727  20725313.059
  -2008615.199 5  -1565140.40621  23303738.054
 92  5  8  9 15 59.9980000  0  6G12G11G21G23G28G17
  -1075067.150 5   -837733.23322  23881764.005
 -16870142.481 8 -13145562.35525  21160053.195
 -18001654.947 8 -14027246.14229  19882461.853
 -13377048.741 7 -10423657.08926  21567226.525
 -22161060.031 7 -17268352.88126  20732861.535
  -1918031.308 5  -1494555.58121  23320970.424
 92  5  8  9 16 29.9980000  0  6G12G11G21G23G28G17
  -1131182.035 5   -881459.0002   23871088.084
 -16937735.237 8 -13198232.02125  21147190.012
 -17997566.614 8 -14024060.43329  19883238.318
 -13315283.264 7 -10375528.14626  21578981.375
 -22120776.834 7 -17236963.41527  20740528.427
  -1827250.694 5  -1423817.44023  23338247.762
 92  5  8  9 16 59.9980000  0  6G12G11G21G23G28G17
  -1186809.390 5   -924804.84622  23860508.715
 -17004807.193 8 -13250495.88326  21134426.346
 -17993166.521 8 -14020631.78929  19884076.539
 -13253366.838 7 -10327281.61226  21590760.534
 -22079891.447 7 -17205104.69626  20748308.345
  -1736286.854 5  -1352936.59322  23355558.675
 92  5  8  9 17 29.9980000  0  6G12G11G21G23G28G17
  -1241941.935 5   -967765.16122  23850014.486
 -17071351.176 8 -13302348.32525  21121764.311
 -17988447.334 8 -14016954.50829  19884973.812
 -13191284.484 7 -10278905.75226  21602575.640
 -22038421.570 7 -17172790.52827  20756200.974
  -1645133.090 5  -1281907.83022  23372905.273
 92  5  8  9 17 59.9980000  0  6G12G11G21G23G28G17
  -1296582.898 4  -1010342.40721  23839621.572
 -17137370.280 8 -13353791.78826  21109202.999
 -17983399.515 8 -14013021.15229  19885932.859
 -13129031.685 7 -10230397.07026  21614423.745
 -21996380.992 7 -17140031.67227  20764201.236
  -1553828.690 5  -1210761.63322  23390278.239
 92  5  8  9 18 29.9980000  0  6G12G11G21G23G28G17
  -1350723.764 4  -1052530.04222  23829299.716
 -17202855.964 8 -13404819.59325  21096739.129
 -17978021.308 8 -14008830.34029  19886956.646
 -13066604.729 7 -10181752.68926  21626302.422
 -21953767.634 7 -17106826.47727  20772311.835
  -1462377.297 5  -1139500.72321  23407678.793
 92  5  8  9 18 59.9980000  0  6G12G11G21G23G28G17
  -1404365.760 4  -1094328.89722  23819104.077
 -17267809.288 8 -13455432.57025  21084378.982
 -17972314.364 8 -14004383.37929  19888044.300
 -13004023.247 7 -10132987.90526  21638209.875
 -21910595.156 7 -17073185.63127  20780525.845
  -1370761.752 5  -1068112.05522  23425111.124
 92  5  8  9 19 29.9980000  0  6G12G11G21G23G28G17
  -1457511.631 5  -1135741.13122  23808988.779
 -17332233.373 8 -13505633.15725  21072121.374
 -17966285.720 8 -13999685.74429  19889191.896
 -12941312.126 7 -10084122.10625  21650145.824
 -21866868.861 7 -17039113.20327  20788846.876
  -1278985.891 5   -996598.44821  23442581.235
 92  5  8  9 19 59.9980000  0  6G12G11G21G23G28G17
  -1510152.221 4  -1176759.68523  23798973.611
 -17396118.660 8 -13555413.89025  21059963.283
 -17959938.198 8 -13994739.63629  19890398.265
 -12878463.882 7 -10035149.42926  21662104.231
 -21822569.924 7 -17004594.57427  20797276.448
  -1187046.513 5   -924957.45523  23460080.732
 92  5  8  9 20 29.9980000  0  6G12G11G21G23G28G17
  -1562285.759 5  -1217383.08622  23789061.276
 -17459463.615 8 -13604773.58926  21047909.528
 -17953281.701 8 -13989552.75929  19891666.093
 -12815489.816 7  -9986078.74326  21674089.948
 -21777696.447 7 -16969628.28227  20805814.543
  -1094921.277 5   -853171.65322  23477610.192
 92  5  8  9 20 59.9980000  0  6G12G11G21G23G28G17
  -1613911.373 5  -1257610.73422  23779232.581
 -17522267.307 8 -13653711.52726  21035956.809
 -17946317.841 8 -13984126.37029  19892990.564
 -12752395.630 7  -9936914.45927  21686095.122
 -21732249.830 7 -16934215.37127  20814462.644
  -1002623.477 5   -781251.35322  23495176.523
 92  5  8  9 21 29.9980000  0  6G12G11G21G23G28G17
  -1665022.918 5  -1297437.83523  23769503.718
 -17584523.319 8 -13702222.68725  21024109.909
 -17939051.745 8 -13978464.47229  19894375.012
 -12689161.711 7  -9887641.25426  21698127.606
 -21686218.062 7 -16898346.48627  20823223.491
   -910170.660 5   -709210.26021  23512764.144
 92  5  8  9 21 59.9980000  0  6G12G11G21G23G28G17
  -1715619.614 5  -1336863.76622  23759877.986
 -17646231.049 8 -13750306.62526  21012369.141
 -17931478.095 8 -13972562.92729  19895814.917
 -12625780.643 7  -9838253.40426  21710189.144
 -21639599.200 7 -16862020.13426  20832093.140
   -817557.340 4   -637044.04022  23530387.747
 92  5  8  9 22 29.9980000  0  6G12G11G21G23G28G17
  -1765696.781 5  -1375884.83222  23750344.583
 -17707385.750 8 -13797959.64826  21000733.597
 -17923577.297 8 -13966406.46429  19897320.173
 -12562251.240 7  -9788749.99126  21722277.381
 -21592400.717 7 -16825242.12026  20841074.924
   -724776.520 4   -564747.42023  23548033.529
 92  5  8  9 22 59.9980000  0  6G12G11G21G23G28G17
  -1815250.476 6  -1414498.01222  23740918.796
 -17767983.105 8 -13845178.34626  20989197.572
 -17915358.334 8 -13960002.06529  19898880.885
 -12498568.793 7  -9739127.31126  21734395.894
 -21544624.403 7 -16788013.85326  20850165.231
   -631831.940 4   -492323.17022  23565739.271
 92  5  8  9 23 29.9980000  0  6G12G11G21G23G28G17
  -1864276.416 6  -1452700.02722  23731584.761
 -17828019.154 8 -13891959.67126  20977776.091
 -17906819.984 8 -13953348.81429  19900506.373
 -12434732.609 7  -9689384.82525  21746542.589
 -21496281.195 7 -16750343.83927  20859367.656
   -538707.590 3   -419758.80322  23583467.209
 92  5  8  9 23 59.9980000  0  5G12G11G21G23G28
  -1912771.693 6  -1490488.52422  23722351.764
 -17887490.756 8 -13938301.16525  20966458.316
 -17897964.118 8 -13946448.14329  19902190.302
 -12370756.787 7  -9639533.53726  21758717.152
 -21447383.644 7 -16712241.87827  20868671.414
 92  5  8  9 24 29.9980000  0  5G12G11G21G23G28
  -1960737.211 6  -1527864.14722  23713229.977
 -17946398.903 8 -13984203.60425  20955248.785
 -17888814.252 8 -13939318.38229  19903931.799
 -12306651.760 7  -9589581.57926  21770918.414
 -21397937.284 7 -16673712.27726  20878084.009
 92  5  8  9 24 59.9980000  0  5G12G11G21G23G28
  -2008174.544 6  -1564828.22722  23704201.129
 -18004744.917 8 -14029668.01026  20944146.276
 -17879389.714 8 -13931974.58929  19905726.658
 -12242428.326 7  -9539537.34225  21783137.057
 -21347944.660 7 -16634757.02126  20887594.622
 92  5  8  9 25 29.9980000  0  5G12G11G21G23G28
  -2055079.002 6  -1601377.06522  23695280.194
 -18062523.999 8 -14074690.66126  20933151.382
 -17869669.984 8 -13924400.77829  19907576.364
 -12178078.894 7  -9489394.91925  21795382.363
 -21297413.386 7 -16595382.04427  20897210.460
 92  5  8  9 25 59.9980000  0  5G12G11G21G23G28
  -2101443.279 6  -1637505.04822  23686452.513
 -18119728.970 8 -14119265.96026  20922262.324
 -17859647.861 8 -13916591.32729  19909483.952
 -12113590.161 7  -9439143.95826  21807652.571
 -21246323.922 7 -16555572.10227  20906931.836
 92  5  8  9 26 29.9980000  0  5G12G11G21G23G28
  -2147271.975 6  -1673215.68322  23677729.446
 -18176363.924 8 -14163397.08326  20911487.181
 -17849321.746 8 -13908545.00329  19911446.997
 -12048963.139 7  -9388785.23226  21819954.259
 -21194675.558 7 -16515326.64127  20916761.125
 92  5  8  9 26 59.9980000  0  5G12G11G21G23G28
  -2192558.551 6  -1708503.84421  23669113.418
 -18232422.508 8 -14207079.08526  20900819.357
 -17838682.483 8 -13900254.66029  19913470.890
 -11984194.345 7  -9338316.03825  21832277.533
 -21142474.364 7 -16474650.40527  20926695.342
 92  5  8  9 27 29.9980000  0  6G12G11G21G23G28G17
  -2237302.122 6  -1743368.96523  23660605.896
 -18287903.525 8 -14250311.04726  20890262.778
 -17827733.731 8 -13891723.16629  19915557.151
 -11919285.230 7  -9287737.49526  21844629.582
 -21089721.276 7 -16433544.13127  20936733.004
     34640.09014     27005.22521  23726360.288
 92  5  8  9 27 59.9980000  0  6G12G11G21G23G28G17
  -2281495.218 6  -1777805.07523  23652178.436
 -18342799.829 8 -14293087.36726  20879816.205
 -17816479.787 8 -13882953.85629  19917699.165
 -11854244.685 7  -9237056.55825  21857003.811
 -21036405.395 7 -16391999.33027  20946878.578
    129242.097 5    100720.90721  23744368.512
 92  5  8  9 28 29.9980000  0  6G12G11G21G23G28G17
  -2325136.946 6  -1811811.47822  23643888.884
 -18397110.143 8 -14335407.08126  20869480.860
 -17804933.475 8 -13873956.74929  19919897.840
 -11789085.916 7  -9186283.47325  21869405.628
 -20982547.597 7 -16350032.23527  20957127.876
    224013.141 4    174568.2922   23762401.637
 92  5  8  9 28 59.9980000  0  6G12G11G21G23G28G17
  -2368223.876 6  -1845385.71323  23635690.458
 -18450830.883 8 -14377267.38126  20859258.540
 -17793090.140 8 -13864728.17329  19922148.081
 -11723811.594 7  -9135420.37024  21881830.218
 -20928151.262 7 -16307645.51026  20967477.321
    318930.293 3    248529.58121  23780452.142
 92  5  8  9 29 29.9980000  0  5G12G11G21G23G28
  -2410757.339 6  -1878528.63722  23627581.970
 -18503963.167 8 -14418669.15626  20849146.836
 -17780939.402 8 -13855260.05829  19924462.782
 -11658416.249 7  -9084462.97126  21894268.018
 -20873216.868 7 -16264839.53027  20977932.881
 92  5  8  9 29 59.9980000  0  5G12G11G21G23G28
  -2452736.604 5  -1911239.71823  23619593.103
 -18556506.415 8 -14459611.92826  20839150.549
 -17768470.364 8 -13845543.93129  19926831.737
 -11592896.697 7  -9033408.76226  21906740.875
 -20817753.049 7 -16221620.99027  20988486.476
 92  5  8  9 30 29.9980000  0  5G12G11G21G23G28
  -2494159.003 6  -1943516.84922  23611719.041
 -18608457.607 8 -14500093.36026  20829262.802
 -17755683.674 8 -13835580.27429  19929267.857
 -11527241.690 7  -8982249.00225  21919234.725
 -20761759.570 7 -16177989.72527  20999141.405
 92  5  8  9 30 59.9980000  0  5G12G11G21G23G28
  -2535019.621 5  -1975356.25722  23603948.424
 -18659811.896 8 -14540109.68126  20819491.971
 -17742570.644 8 -13825362.33429  19931762.732
 -11461449.410 7  -8930982.28725  21931750.161
 -20705231.737 7 -16133942.08827  21009898.556
 92  5  8  9 31 29.9980000  0  5G12G11G21G23G28
  -2575312.546 5  -2006753.32222  23596276.140
 -18710562.931 8 -14579655.92226  20809833.852
 -17729133.002 8 -13814891.44129  19934320.550
 -11395517.081 7  -8879606.45925  21944301.876
 -20648179.825 7 -16089486.06926  21020755.541
 92  5  8  9 31 59.9980000  0  5G12G11G21G23G28
  -2615040.715 5  -2037710.33821  23588720.160
 -18760713.697 8 -14618734.43927  20800290.258
 -17715392.979 8 -13804184.94029  19936935.046
 -11329466.860 7  -8828138.74526  21956867.673
 -20590615.809 7 -16044631.02527  21031709.653
 92  5  8  9 32 29.9980000  0  5G12G11G21G23G28
  -2654200.885 5  -2068224.73723  23581261.937
 -18810260.725 8 -14657342.49827  20790859.986
 -17701364.466 8 -13793253.62529  19939603.202
 -11263307.311 7  -8776585.83425  21969463.153
 -20532546.112 7 -15999381.93727  21042760.894
 92  5  8  9 32 59.9980000  0  5G12G11G21G23G28
  -2692793.722 5  -2098297.16321  23573923.021
 -18859204.427 8 -14695480.44726  20781547.834
 -17687048.296 8 -13782098.17229  19942328.315
 -11197042.326 7  -8724950.78725  21982071.232
 -20473982.086 7 -15953747.66126  21053902.980
 92  5  8  9 33 29.9980000  0  5G12G11G21G23G28
  -2730810.877 4  -2127921.03022  23566672.840
 -18907536.741 8 -14733141.97526  20772349.894
 -17672445.509 8 -13770719.36529  19945108.885
 -11130661.620 7  -8673225.56025  21994702.083
 -20414912.059 7 -15907719.08626  21065144.305
 92  5  8  9 33 59.9980000  0  5G12G11G21G23G28
  -2768255.268 5  -2157098.35524  23559571.945
 -18955260.168 8 -14770329.05426  20763269.795
 -17657574.066 8 -13759131.22729  19947936.536
 -11064165.656 7  -8621410.51626  22007356.929
 -20355321.429 7 -15861284.84726  21076484.260
 92  5  8  9 34 29.9980000  0  5G12G11G21G23G28
  -2805123.674 5  -2185826.95021  23552549.314
 -19002371.511 8 -14807039.16726  20754303.594
 -17642420.039 8 -13747322.88429  19950823.238
 -10997544.307 7  -8569497.77026  22020032.453
 -20295201.457 7 -15814438.14826  21087924.029
 92  5  8  9 34 59.9980000  0  5G12G11G21G23G28
  -2841413.760 5  -2214104.83623  23545639.988
 -19048868.097 8 -14843270.25627  20745455.514
 -17626971.346 8 -13735284.95029  19953762.989
 -10930792.104 7  -8517483.08025  22032735.251
 -20234548.483 7 -15767176.10526  21099468.447
 92  5  8  9 35 29.9980000  0  5G12G11G21G23G28
  -2877122.802 4  -2241929.97422  23538844.890
 -19094746.761 8 -14879019.85926  20736725.868
 -17611219.340 8 -13723010.65728  19956757.325
 -10863917.222 7  -8465372.77324  22045459.654
 -20173359.622 7 -15719496.50026  21111109.976
 92  5  8  9 35 59.9980000  0  5G12G11G21G23G28
  -2912245.085 5  -2269297.92922  23532155.035
 -19140001.874 8 -14914283.57926  20728111.934
 -17595139.609 8 -13710481.00129  19959819.105
 -10796911.423 7  -8413160.46926  22058209.219
 -20111647.865 7 -15671409.43826  21122854.653
 92  5  8  9 36 29.9980000  0  5G12G11G21G23G28
  -2946782.405 5  -2296210.05423  23525583.877
 -19184635.258 8 -14949062.81926  20719620.606
 -17578726.111 8 -13697691.25529  19962939.640
 -10729786.671 7  -8360855.47925  22070986.670
 -20049435.482 7 -15622932.29426  21134695.848
 92  5  8  9 36 59.9980000  0  5G12G11G21G23G28
  -2980731.890 5  -2322664.12421  23519129.652
 -19228643.694 8 -14983355.10026  20711243.803
 -17561989.914 8 -13684650.06829  19966123.432
 -10662549.087 7  -8308462.56525  22083784.206
 -19986722.928 7 -15574065.38825  21146629.092
 92  5  8  9 37 29.9980000  0  5G12G11G21G23G28
  -3014099.804 5  -2348664.95823  23512771.054
 -19272033.126 8 -15017165.04026  20702990.810
 -17544953.691 8 -13671375.07029  19969367.498
 -10595209.459 7  -8255990.12825  22096592.247
 -19923512.623 7 -15524810.62526  21158657.073
 92  5  8  9 37 59.9980000  0  5G12G11G21G23G28
  -3046873.097 5  -2374202.57122  23506545.549
 -19314790.413 8 -15050482.40026  20694854.158
 -17527628.674 8 -13657875.06029  19972662.814
 -10527749.570 7  -8203423.98025  22109431.454
 -19859797.869 7 -15475162.79426  21170781.572
 92  5  8  9 38 29.9980000  0  5G12G11G21G23G28
  -3079056.797 5  -2399280.76922  23500413.002
 -19356920.396 8 -15083310.96026  20686833.497
 -17510038.301 8 -13644168.28629  19976012.087
 -10460181.104 7  -8150773.25125  22122285.965
 -19795581.149 7 -15425123.81726  21182999.621
